[[{"header":{"parameterUnit":"m.s-1","parameterCategory":1,"la1":31.0,"la2":29.5877,"lo1":-88.7671,"lo2":-86.6584,"dy":0.0162,"dx":0.0185,"nx":115,"ny":88,"refTime":"2023-09-23T06:00:00:Z","depth":0,"parameterNumber":2,"parameterNumberName":"U-component_of_WINDS"},"data":[0.0,0.0,0.0,0.0,0.0,0.0,0.0,0.0,0.0,0.0,0.0,0.0,0.0,0.0,0.0,0.0,0.0,0.0,0.0,0.0,0.0,0.0,0.0,0.0,0.0,0.0,0.0,0.0,0.0,0.0,0.0,0.0,0.0,0.0,0.0,0.0,0.0,0.0,0.0,0.0,0.0,0.0,0.0,0.0,0.0,0.0,0.0,0.0,0.0,0.0,0.0,0.0,0.0,0.0,0.0,0.0,0.0,0.0,0.0,0.0,0.0,0.0,0.0,0.0,0.0,0.0,0.0,0.0,0.0,0.0,0.0,0.0,0.0,0.0,0.0,0.0,0.0,0.0,0.0,0.0,0.0,0.0,0.0,0.0,0.0,0.0,0.0,0.0,0.0,0.0,0.0,0.0,0.0,0.0,0.0,0.0,0.0,0.0,0.0,0.0,0.0,0.0,0.0,0.0,0.0,0.0,0.0,0.0,0.0,0.0,0.0,0.0,0.0,0.0,0.0,0.0,0.0,0.0,0.0,0.0,0.0,0.0,0.0,0.0,0.0,0.0,0.0,0.0,0.0,0.0,0.0,0.0,0.0,0.0,0.0,0.0,0.0,0.0,0.0,0.0,0.0,0.0,0.0,0.0,0.0,0.0,0.0,0.0,0.0,0.0,0.0,0.0,0.0,0.0,0.0,0.0,0.0,0.0,0.0,0.0,0.0,0.0,0.0,0.0,0.0,0.0,0.0,0.0,0.0,0.0,0.0,0.0,0.0,0.0,0.0,0.0,0.0,0.0,0.0,0.0,0.0,0.0,0.0,0.0,0.0,0.0,0.0,0.0,0.0,0.0,0.0,0.0,0.0,0.0,0.0,0.0,0.0,0.0,0.0,0.0,0.0,0.0,0.0,0.0,0.0,0.0,0.0,0.0,0.0,0.0,0.0,0.0,0.0,0.0,0.0,0.0,0.0,0.0,0.0,0.0,0.0,0.0,0.0,0.0,0.0,0.0,0.0,0.0,0.0,0.0,0.0,0.0,0.0,0.0,0.0,0.0,0.0,0.0,0.0,0.0,0.0,0.0,0.0,0.0,0.0,0.0,0.0,0.0,0.0,0.0,0.0,0.0,0.0,0.0,0.0,0.0,0.0,0.0,0.0,0.0,0.0,0.0,0.0,0.0,0.0,0.0,0.0,0.0,0.0,0.0,0.0,0.0,0.0,0.0,0.0,0.0,0.0,0.0,0.0,0.0,0.0,0.0,0.0,0.0,0.0,0.0,0.0,0.0,0.0,0.0,0.0,0.0,0.0,0.0,0.0,0.0,0.0,0.0,0.0,0.0,0.0,0.0,0.0,0.0,0.0,0.0,0.0,0.0,0.0,0.0,0.0,0.0,0.0,0.0,0.0,0.0,0.0,0.0,0.0,0.0,0.0,0.0,0.0,0.0,0.0,0.0,0.0,0.0,0.0,0.0,0.0,0.0,0.0,0.0,0.0,0.0,0.0,0.0,0.0,0.0,0.0,0.0,0.0,0.0,0.0,0.0,0.0,0.0,0.0,0.0,0.0,0.0,0.0,0.0,0.0,0.0,0.0,0.0,0.0,0.0,0.0,0.0,0.0,0.0,0.0,0.0,0.0,0.0,0.0,0.0,0.0,0.0,0.0,0.0,0.0,0.0,0.0,0.0,0.0,0.0,0.0,0.0,0.0,0.0,0.0,0.0,0.0,0.0,0.0,0.0,0.0,0.0,0.0,0.0,0.0,0.0,0.0,0.0,0.0,0.0,0.0,0.0,0.0,0.0,0.0,0.0,0.0,0.0,0.0,0.0,0.0,0.0,0.0,0.0,0.0,0.0,0.0,0.0,0.0,0.0,0.0,0.0,0.0,0.0,0.0,0.0,0.0,0.0,0.0,0.0,0.0,0.0,0.0,0.0,0.0,0.0,0.0,0.0,0.0,0.0,0.0,0.0,0.0,0.0,0.0,0.0,0.0,0.0,0.0,0.0,0.0,0.0,0.0,0.0,0.0,0.0,0.0,0.0,0.0,0.0,0.0,0.0,0.0,0.0,0.0,0.0,0.0,0.0,0.0,0.0,0.0,0.0,0.0,0.0,0.0,0.0,0.0,0.0,0.0,0.0,0.0,0.0,0.0,0.0,0.0,0.0,0.0,0.0,0.0,0.0,0.0,0.0,0.0,0.0,0.0,0.0,0.0,0.0,0.0,0.0,0.0,0.0,0.0,0.0,0.0,0.0,0.0,0.0,0.0,0.0,0.0,0.0,0.0,0.0,0.0,0.0,0.0,0.0,0.0,0.0,0.0,0.0,0.0,0.0,0.0,0.0,0.0,0.0,0.0,0.0,0.0,0.0,0.0,0.0,0.0,0.0,0.0,0.0,0.0,0.0,0.0,0.0,0.0,0.0,0.0,0.0,0.0,0.0,0.0,0.0,0.0,0.0,0.0,0.0,0.0,0.0,0.0,0.0,0.0,0.0,0.0,0.0,0.0,0.0,0.0,0.0,0.0,0.0,0.0,0.0,0.0,0.0,0.0,0.0,0.0,0.0,0.0,0.0,0.0,0.0,0.0,0.0,0.0,0.0,0.0,0.0,0.0,0.0,0.0,0.0,0.0,0.0,0.0,0.0,0.0,0.0,0.0,0.0,0.0,0.0,0.0,0.0,0.0,0.0,0.0,0.0,0.0,0.0,0.0,0.0,0.0,0.0,0.0,0.0,0.0,0.0,0.0,0.0,0.0,0.0,0.0,0.0,0.0,0.0,0.0,0.0,0.0,0.0,0.0,0.0,0.0,0.0,0.0,0.0,0.0,0.0,0.0,0.0,0.0,0.0,0.0,0.0,0.0,0.0,0.0,0.0,0.0,0.0,0.0,0.0,0.0,0.0,0.0,0.0,0.0,0.0,0.0,0.0,0.0,0.0,0.0,0.0,0.0,0.0,0.0,0.0,0.0,0.0,0.0,0.0,0.0,0.0,0.0,0.0,0.0,0.0,0.0,0.0,0.0,0.0,0.0,0.0,0.0,0.0,0.0,0.0,0.0,0.0,0.0,0.0,0.0,0.0,0.0,0.0,0.0,0.0,0.0,0.0,0.0,0.0,0.0,0.0,0.0,0.0,0.0,0.0,0.0,0.0,0.0,0.0,0.0,0.0,0.0,0.0,0.0,0.0,0.0,0.0,0.0,0.0,0.0,0.0,0.0,0.0,0.0,0.0,0.0,0.0,0.0,0.0,0.0,0.0,0.0,0.0,0.0,0.0,0.0,0.0,0.0,0.0,0.0,0.0,0.0,0.0,0.0,0.0,0.0,0.0,0.0,0.0,0.0,0.0,0.0,0.0,0.0,0.0,0.0,0.0,0.0,0.0,0.0,0.0,0.0,0.0,0.0,0.0,0.0,0.0,0.0,0.0,0.0,0.0,0.0,0.0,0.0,0.0,0.0,0.0,0.0,0.0,0.0,0.0,0.0,0.0,0.0,0.0,0.0,0.0,0.0,0.0,0.0,0.0,0.0,0.0,0.0,0.0,0.0,0.0,0.0,0.0,0.0,0.0,0.0,0.0,0.0,0.0,0.0,0.0,0.0,0.0,0.0,0.0,0.0,0.0,0.0,0.0,0.0,0.0,0.0,0.0,0.0,0.0,0.0,0.0,0.0,0.0,0.0,0.0,0.0,0.0,0.0,0.0,0.0,0.0,0.0,0.0,0.0,0.0,0.0,0.0,0.0,0.0,0.0,0.0,0.0,0.0,0.0,0.0,0.0,0.0,0.0,0.0,0.0,0.0,0.0,0.0,0.0,0.0,0.0,0.0,0.0,0.0,0.0,0.0,0.0,0.0,0.0,0.0,0.0,0.0,0.0,0.0,0.0,0.0,0.0,0.0,0.0,0.0,0.0,0.0,0.0,0.0,0.0,0.0,0.0,0.0,0.0,0.0,0.0,0.0,0.0,0.0,0.0,0.0,0.0,0.0,0.0,0.0,0.0,0.0,0.0,0.0,0.0,0.0,0.0,0.0,0.0,0.0,0.0,0.0,0.0,0.0,0.0,0.0,0.0,0.0,0.0,0.0,0.0,0.0,0.0,0.0,0.0,0.0,0.0,0.0,0.0,0.0,0.0,0.0,0.0,0.0,0.0,0.0,0.0,0.0,0.0,0.0,0.0,0.0,0.0,0.0,0.0,0.0,0.0,0.0,0.0,0.0,0.0,0.0,0.0,0.0,0.0,0.0,0.0,0.0,0.0,0.0,0.0,0.0,0.0,0.0,0.0,0.0,0.0,0.0,1.2152,0.0,0.0,0.0,0.0,0.0,0.0,0.0,0.0,0.0,0.0,0.0,0.0,0.0,0.0,0.0,0.0,0.0,0.0,0.0,0.0,0.0,0.0,0.0,0.0,0.0,0.0,0.0,0.0,0.0,0.0,0.0,0.0,0.0,0.0,0.0,0.0,0.0,0.0,0.0,0.0,0.0,0.0,0.0,0.0,0.0,0.0,0.0,0.0,0.0,0.0,0.0,0.0,0.0,0.0,0.0,0.0,0.0,0.0,0.0,0.0,0.0,0.0,0.0,0.0,0.0,0.0,0.0,0.0,0.0,0.0,0.0,0.0,0.0,0.0,0.0,0.0,0.0,0.0,0.0,0.0,0.0,0.0,0.0,0.0,0.0,0.0,0.0,0.0,0.0,0.0,0.0,0.0,0.0,0.0,0.0,0.0,0.0,0.0,0.0,0.0,0.0,0.0,0.0,0.0,0.0,0.0,0.0,0.0,0.0,0.0,1.0113,0.9688,1.1152,1.2105,1.237,0.0,0.0,0.0,0.0,0.0,0.0,0.0,0.0,0.0,0.0,0.0,0.0,0.0,0.0,0.0,0.0,0.0,0.0,0.0,0.0,0.0,0.0,0.0,0.0,0.0,0.0,0.0,0.0,0.0,0.0,0.0,0.0,0.0,0.0,0.0,0.0,0.0,0.0,0.0,0.0,0.0,0.0,0.0,0.0,0.0,0.0,0.0,0.0,0.0,0.0,0.0,0.0,0.0,0.0,0.0,0.0,0.0,0.0,0.0,0.0,0.0,0.0,0.0,0.0,0.0,0.0,0.0,0.0,0.0,0.0,0.0,0.0,0.0,0.0,0.0,0.0,0.0,0.0,0.0,0.0,0.0,0.0,0.0,0.0,0.0,0.0,0.0,0.0,0.0,0.0,0.0,0.0,0.0,0.0,0.0,0.0,0.0,0.0,0.0,0.0,0.0,0.0,0.0,0.0,0.0,0.0,0.0,0.0,0.0,0.0,0.0,0.0,1.1826,1.2705,1.2849,0.0,0.0,0.0,0.0,0.0,0.0,0.0,0.0,0.0,0.0,0.0,0.0,0.0,0.0,0.0,0.0,0.0,0.0,0.0,0.0,0.0,0.0,0.0,0.0,0.0,0.0,0.0,0.0,0.0,0.0,0.0,0.0,0.0,0.0,0.0,0.0,0.0,0.0,0.0,0.0,0.0,0.0,0.0,0.0,0.0,0.0,0.0,0.0,0.0,0.0,0.0,0.0,0.0,0.0,0.0,0.0,0.0,0.0,0.0,0.0,0.0,0.0,0.0,0.0,0.0,0.0,0.0,0.0,0.0,0.0,0.0,0.0,0.0,0.0,0.0,0.0,0.0,0.0,0.0,0.0,0.0,0.0,0.0,0.0,0.0,0.0,0.0,0.0,0.0,0.0,0.0,0.0,0.0,0.0,0.0,0.0,0.0,0.0,0.0,0.0,0.0,0.0,0.0,0.0,0.0,0.0,0.0,0.0,0.0,0.0,1.1723,1.2751,1.3732,0.0,1.4503,0.0,0.0,0.0,0.0,0.0,0.0,0.0,0.0,0.0,0.0,0.0,0.0,0.0,0.0,0.0,0.0,0.0,0.0,0.0,0.0,0.0,0.0,0.0,0.0,0.0,0.0,0.0,0.0,0.0,0.0,0.0,0.0,0.0,0.0,0.0,0.0,0.0,0.0,0.0,0.0,0.0,0.0,0.0,0.0,0.0,0.0,0.0,0.0,0.0,0.0,0.0,0.0,0.0,0.0,0.0,0.0,0.0,0.0,0.0,0.0,0.0,0.0,0.0,0.0,0.0,0.0,0.0,0.0,0.0,0.0,0.0,0.0,0.0,0.0,0.0,0.0,0.0,0.0,0.0,0.0,0.0,0.0,0.0,0.0,0.0,0.0,0.0,0.0,0.0,0.0,0.0,0.0,0.0,0.0,0.0,0.0,0.0,0.0,0.0,0.0,0.0,0.0,0.0,0.0,0.0,0.0,0.0,0.0,0.0,0.0,1.1887,1.2724,1.3804,1.4243,0.0,0.0,0.0,0.0,0.0,0.0,0.0,0.0,0.0,0.0,0.0,0.0,0.0,0.0,0.0,0.0,0.0,0.0,0.0,0.0,0.0,0.0,0.0,0.0,0.0,0.0,0.0,0.0,0.0,0.0,0.0,0.0,0.0,0.0,0.0,0.0,0.0,0.0,0.0,0.0,0.0,0.0,0.0,0.0,0.0,0.0,0.0,0.0,0.0,0.0,0.0,0.0,0.0,0.0,0.0,0.0,0.0,0.0,0.0,0.0,0.0,0.0,0.0,0.0,0.0,0.0,0.0,0.0,0.0,0.0,0.0,0.0,0.0,0.0,0.0,0.0,0.0,0.0,0.0,0.0,0.0,0.0,0.0,0.0,0.0,0.0,0.0,0.0,0.0,0.0,0.0,0.0,0.0,0.0,0.0,0.0,0.0,0.0,0.0,0.0,0.0,0.0,0.0,0.0,0.0,0.0,0.0,0.0,0.0,0.0,1.0919,1.2249,1.3008,1.3592,1.3828,1.3684,0.0,0.0,0.0,0.0,0.0,0.0,0.0,0.0,0.0,0.0,0.0,0.0,0.0,0.0,0.0,0.0,0.0,0.0,0.0,0.0,0.0,0.0,0.0,0.0,0.0,0.0,0.0,0.0,0.0,0.0,0.0,0.0,0.0,0.0,0.0,0.0,0.0,0.0,0.0,0.0,0.0,0.0,0.0,0.0,0.0,0.0,0.0,0.0,0.0,0.0,0.0,0.0,0.0,0.0,0.0,0.0,0.0,0.0,0.0,0.0,0.0,0.0,0.0,0.0,0.0,0.0,0.0,0.0,0.0,0.0,0.0,0.0,0.0,0.0,0.0,0.0,0.0,0.0,0.0,0.0,0.0,0.0,0.0,0.0,0.0,0.0,0.0,0.0,0.0,0.0,0.0,0.0,0.0,0.0,0.0,0.0,0.0,0.0,0.0,0.0,0.0,0.0,0.0,0.0,0.0,0.0,0.0,0.0,1.102,1.1979,1.3086,1.4275,1.3415,1.3365,0.0,0.0,0.0,0.0,0.0,0.0,0.0,0.0,0.0,0.0,0.0,0.0,0.0,0.0,0.0,0.0,0.0,0.0,0.0,0.0,0.0,0.0,0.0,0.0,0.0,0.0,0.0,0.0,0.0,0.0,0.0,0.0,0.0,0.0,0.0,0.0,0.0,0.0,0.0,0.0,0.0,0.0,0.0,0.0,0.0,0.0,0.0,0.0,0.0,0.0,0.0,0.0,0.0,0.0,0.0,0.0,0.0,0.0,0.0,0.0,0.0,0.0,0.0,0.0,0.0,0.0,0.0,0.0,0.0,0.0,0.0,0.0,0.0,0.0,0.0,0.0,0.0,0.0,0.0,0.0,0.0,0.0,0.0,0.0,0.0,0.0,0.0,0.0,0.0,0.0,0.0,0.0,0.0,0.0,0.0,0.0,0.0,0.0,0.0,0.0,0.0,0.0,0.0,0.0,0.0,0.0,0.0,0.0,0.0,1.0965,1.2385,1.3247,1.3543,1.3594,1.3648,0.0,0.0,0.0,0.0,0.0,0.0,0.0,0.0,0.0,0.0,0.0,0.0,0.0,0.0,0.0,0.0,0.0,0.0,0.0,0.0,0.0,0.0,0.0,0.0,0.0,0.0,0.0,0.0,0.0,0.0,0.0,0.0,0.0,0.0,0.0,0.0,0.0,0.0,0.0,0.0,0.0,0.0,0.0,0.0,0.0,0.0,0.0,0.0,0.0,0.0,0.0,0.0,0.0,0.0,0.0,0.0,0.0,0.0,0.0,0.0,0.0,0.0,0.0,0.0,0.0,0.0,0.0,0.0,0.0,0.0,0.0,0.0,0.0,0.0,0.0,0.0,0.0,0.0,0.0,0.0,0.0,0.0,0.0,0.0,0.0,0.0,0.0,0.0,0.0,0.0,0.0,0.0,0.0,0.0,0.0,0.0,0.0,0.0,0.0,0.0,0.0,0.0,0.0,0.0,0.0,0.0,0.0,0.0,0.0,1.1047,0.0,1.268,1.2616,1.3233,1.3453,0.0,0.0,0.0,0.0,0.0,0.0,0.0,0.0,0.0,0.0,0.0,0.0,0.0,0.0,0.0,0.0,0.0,0.0,0.0,0.0,0.0,0.0,0.0,0.0,0.0,0.0,0.0,0.0,0.0,0.0,0.0,0.0,0.0,0.0,0.0,0.0,0.0,0.0,0.0,0.0,0.0,0.0,0.0,0.0,0.0,0.0,0.0,0.0,0.0,0.0,0.0,0.0,0.0,0.0,0.0,0.0,0.0,0.0,0.0,0.0,0.0,0.0,0.0,0.0,0.0,0.0,0.0,0.0,0.0,0.0,0.0,0.0,0.0,0.0,0.0,0.0,0.0,0.0,0.0,0.0,0.0,0.0,0.0,0.0,0.0,0.0,0.0,0.0,0.0,0.0,0.0,0.0,0.0,0.0,0.0,0.0,0.0,0.0,0.0,0.0,0.0,0.0,0.0,0.0,0.0,0.0,0.0,0.0,1.1748,1.1494,1.1302,1.139,1.1706,1.2226,1.2617,0.0,0.0,0.0,0.0,0.0,0.0,0.0,0.0,0.0,0.0,0.0,0.0,0.0,0.0,0.0,0.0,0.0,0.0,0.0,0.0,0.0,0.0,0.0,0.0,0.0,0.0,0.0,0.0,0.0,0.0,0.0,0.0,0.0,0.0,0.0,0.0,0.0,0.0,0.0,0.0,0.0,0.0,0.0,0.0,0.0,0.0,0.0,0.0,0.0,0.0,0.0,0.0,0.0,0.0,0.0,0.0,0.0,0.0,0.0,0.0,0.0,0.0,0.0,0.0,0.0,0.0,0.0,0.0,0.0,0.0,0.0,0.0,0.0,0.0,0.0,0.0,0.0,0.0,0.0,0.0,0.0,0.0,0.0,0.0,0.0,0.0,0.0,0.0,0.0,0.0,0.0,0.0,0.0,0.0,0.0,0.0,0.0,0.0,0.0,0.0,0.0,0.0,0.0,0.0,0.0,0.0,0.0,0.0,0.0,1.1179,1.0577,1.07,1.1628,1.1449,1.1789,0.0,0.0,0.0,0.0,0.0,0.0,0.0,0.0,0.0,0.0,0.0,0.0,0.0,0.0,0.0,0.0,0.0,0.0,0.0,0.0,0.0,0.0,0.0,0.0,0.0,0.0,0.0,0.0,0.0,0.0,0.0,0.0,0.0,0.0,0.0,0.0,0.0,0.0,0.0,0.0,0.0,0.0,0.0,0.0,0.0,0.0,0.0,0.0,0.0,0.0,0.0,0.0,0.0,0.0,0.0,0.0,0.0,0.0,0.0,0.0,0.0,0.0,0.0,0.0,0.0,0.0,0.0,0.0,0.0,0.0,0.0,0.0,0.0,0.0,0.0,0.0,0.0,0.0,0.0,0.0,0.0,0.0,0.0,0.0,0.0,0.0,0.0,0.0,0.0,0.0,0.0,0.0,0.0,0.0,0.0,0.0,0.0,0.0,0.0,0.0,0.0,0.0,0.0,0.0,0.0,0.0,0.0,0.0,0.0,1.004,0.9663,0.9931,1.1004,1.1152,1.1614,1.2427,0.0,0.0,0.0,0.0,0.0,0.0,0.0,0.0,0.0,0.0,0.0,0.0,0.0,0.0,0.0,0.0,0.0,0.0,0.0,0.0,0.0,0.0,0.0,0.0,0.0,0.0,0.0,0.0,0.0,0.0,0.0,0.0,0.0,0.0,0.0,0.0,0.0,0.0,0.0,0.0,0.0,0.0,0.0,0.0,0.0,0.0,0.0,0.0,0.0,0.0,0.0,0.0,0.0,0.0,0.0,0.0,0.0,0.0,0.0,0.0,0.0,0.0,0.0,0.0,0.0,0.0,0.0,0.0,0.0,0.0,0.0,0.0,0.0,0.0,0.0,0.0,0.0,0.0,0.0,0.0,0.0,0.0,0.0,0.0,0.0,0.0,0.0,0.0,0.0,0.0,0.0,0.0,0.0,0.0,0.0,0.0,0.0,0.0,0.0,0.0,0.0,0.0,0.0,0.0,0.0,0.0,0.0,0.0,0.8402,0.8647,0.9184,1.0,1.1164,1.1892,0.0,0.0,0.0,0.0,0.0,0.0,0.0,0.0,0.0,0.0,0.0,0.0,0.0,0.0,0.0,0.0,0.0,0.0,0.0,0.0,0.0,0.0,0.0,0.0,0.0,0.0,0.0,0.0,0.0,0.0,0.0,0.0,0.0,0.0,0.0,0.0,0.0,0.0,0.0,0.0,0.0,0.0,0.0,0.0,0.0,0.0,0.0,0.0,0.0,0.0,0.0,0.0,0.0,0.0,0.0,0.0,0.0,0.0,0.0,0.0,0.0,0.0,0.0,0.0,0.0,0.0,0.0,0.0,0.0,0.0,0.0,0.0,0.0,0.0,0.0,0.0,0.0,0.0,0.0,0.0,0.0,0.0,0.0,0.0,0.0,0.0,0.0,0.0,0.0,0.0,0.0,0.0,0.0,0.0,0.0,0.0,0.0,0.0,0.0,0.0,0.0,0.0,0.0,0.0,0.0,0.0,0.0,0.0,0.0,0.8464,0.8589,0.9404,1.0918,1.0215,1.07,0.0,0.0,0.0,0.0,0.0,0.0,0.0,0.0,0.0,0.0,0.0,0.0,0.0,0.0,0.0,0.0,0.0,0.0,0.0,0.0,0.0,0.0,0.0,0.0,0.0,0.0,0.0,0.0,0.0,0.0,0.0,0.0,0.0,0.0,0.0,0.0,0.0,0.0,0.0,0.0,0.0,0.0,0.0,0.0,0.0,0.0,0.0,0.0,0.0,0.0,0.0,0.0,0.0,0.0,0.0,0.0,0.0,0.0,0.0,0.0,0.0,0.0,0.0,0.0,0.0,0.0,0.0,0.0,0.0,0.0,0.0,0.0,0.0,0.0,0.0,0.0,0.0,0.0,0.0,0.0,0.0,0.0,0.0,0.0,0.0,0.0,0.0,0.0,0.0,0.0,0.0,0.0,0.0,0.0,0.0,0.0,0.0,0.0,0.0,0.0,0.0,0.0,0.0,0.0,0.0,0.0,0.0,0.0,0.8187,0.8131,0.8874,1.0068,1.1707,1.0977,1.105,0.0,0.0,0.0,0.0,0.0,0.0,0.0,0.0,0.0,0.0,0.0,0.0,0.0,0.0,0.0,0.0,0.0,0.0,0.0,0.0,0.0,0.0,0.0,0.0,0.0,0.0,0.0,0.0,0.0,0.0,0.0,0.0,0.0,0.0,0.0,0.0,0.0,0.0,0.0,0.0,0.0,0.0,0.0,0.0,0.0,0.0,0.0,0.0,0.0,0.0,0.0,0.0,0.0,0.0,0.0,0.0,0.0,0.0,0.0,0.0,0.0,0.0,0.0,0.0,0.0,0.0,0.0,0.0,0.0,0.0,0.0,0.0,0.0,0.0,0.0,0.0,0.0,0.0,0.0,0.0,0.0,0.0,0.0,0.0,0.0,0.0,0.0,0.0,0.0,0.0,0.0,0.0,0.0,0.0,0.0,0.0,0.0,0.0,0.0,0.0,0.0,0.0,0.0,0.0,0.0,0.0,0.0,0.0,0.8637,0.7771,0.9347,1.0806,1.2035,1.235,1.2126,0.0,0.0,0.0,0.0,0.0,0.0,0.0,0.0,0.0,0.0,0.0,0.0,0.0,0.0,0.0,0.0,0.0,0.0,0.0,0.0,0.0,0.0,0.0,0.0,0.0,0.0,0.0,0.0,0.0,0.0,0.0,0.0,0.0,0.0,0.0,0.0,0.0,0.0,0.0,0.0,0.0,0.0,0.0,0.0,0.0,0.0,0.0,0.0,0.0,0.0,0.0,0.0,0.0,0.0,0.0,0.0,0.0,0.0,0.0,0.0,0.0,0.0,0.0,0.0,0.0,0.0,0.0,0.0,0.0,0.0,0.0,0.0,0.0,0.0,0.0,0.0,0.0,0.0,0.0,0.0,0.0,0.0,0.0,0.0,0.0,0.0,0.0,0.0,0.0,0.0,0.0,0.0,0.0,0.0,0.0,0.0,0.0,0.0,0.0,0.0,0.0,0.0,0.0,0.0,0.0,0.0,0.0,0.0,0.8275,0.8504,0.954,1.0517,1.1307,1.1249,1.1804,0.0,0.0,0.0,0.0,0.0,0.0,0.0,0.0,0.0,0.0,0.0,0.0,0.0,0.0,0.0,0.0,0.0,0.0,0.0,0.0,0.0,0.0,0.0,0.0,0.0,0.0,0.0,0.0,0.0,0.0,0.0,0.0,0.0,0.0,0.0,0.0,0.0,0.0,0.0,0.0,0.0,0.0,0.0,0.0,0.0,0.0,0.0,0.0,1.7237,0.0,0.0,0.0,0.0,0.0,0.0,0.0,0.0,0.0,0.0,0.0,0.0,0.0,0.0,0.0,0.0,0.0,0.0,0.0,0.0,0.0,0.0,0.0,0.0,0.0,0.0,0.0,0.0,0.0,0.0,0.0,0.0,0.0,0.0,0.0,0.0,0.0,0.0,0.0,0.0,0.0,0.0,0.0,0.0,0.0,0.0,0.0,0.0,0.0,0.0,0.0,0.0,0.0,0.0,0.0,0.0,0.0,0.0,0.0,0.8428,0.8763,1.0011,1.099,1.1688,1.1907,1.2412,0.0,0.0,0.0,0.0,0.0,0.0,0.0,0.0,0.0,0.0,0.0,0.0,0.0,0.0,0.0,0.0,0.0,0.0,0.0,0.0,0.0,0.0,0.0,0.0,0.0,0.0,0.0,0.0,0.0,0.0,0.0,0.0,0.0,0.0,0.0,0.0,0.0,0.0,0.0,0.0,0.0,0.0,0.0,0.0,0.0,0.0,0.0,0.0,0.0,0.0,0.0,0.0,0.0,0.0,0.0,0.0,0.0,0.0,0.0,0.0,0.0,0.0,0.0,0.0,0.0,0.0,0.0,0.0,0.0,0.0,0.0,0.0,0.0,0.0,0.0,0.0,0.0,0.0,0.0,0.0,0.0,0.0,0.0,0.0,0.0,0.0,0.0,0.0,0.0,0.0,0.0,0.0,0.0,0.0,0.0,0.0,0.0,0.0,0.0,0.0,0.0,0.0,0.0,0.0,0.0,0.0,0.0,0.8818,0.8931,0.9057,1.0496,1.1655,1.2371,1.3029,1.3337,1.3187,0.0,0.0,0.0,0.0,0.0,0.0,0.0,0.0,0.0,0.0,0.0,0.0,0.0,0.0,0.0,0.0,0.0,0.0,0.0,0.0,0.0,0.0,0.0,0.0,0.0,0.0,0.0,0.0,0.0,0.0,0.0,0.0,0.0,0.0,0.0,0.0,0.0,0.0,1.4366,1.4607,0.0,0.0,0.0,0.0,0.0,0.0,0.0,0.0,1.8742,0.0,0.0,0.0,0.0,0.0,0.0,0.0,0.0,0.0,0.0,0.0,0.0,0.0,0.0,0.0,0.0,0.0,0.0,0.0,0.0,0.0,0.0,0.0,0.0,0.0,0.0,0.0,0.0,0.0,0.0,0.0,0.0,0.0,0.0,0.0,0.0,0.0,0.0,0.0,0.0,0.0,0.0,0.0,0.0,0.0,0.0,0.0,0.0,0.0,0.0,0.0,0.0,0.0,0.0,0.0,0.0,0.9922,0.9816,0.9808,0.9889,1.0809,1.1635,1.2305,1.2984,1.379,1.472,0.0,0.0,0.0,0.0,0.0,0.0,0.0,0.0,0.0,0.0,0.0,0.0,0.0,0.0,0.0,0.0,0.0,0.0,0.0,0.0,0.0,0.0,0.0,0.0,0.0,0.0,0.0,0.0,0.0,0.0,0.0,0.0,0.0,0.0,0.0,0.0,0.0,0.0,0.0,1.4431,1.5296,0.0,0.0,0.0,0.0,0.0,0.0,0.0,0.0,1.8546,0.0,0.0,0.0,0.0,0.0,0.0,0.0,0.0,0.0,0.0,0.0,0.0,0.0,0.0,0.0,0.0,0.0,0.0,0.0,0.0,0.0,0.0,0.0,0.0,0.0,0.0,0.0,0.0,0.0,0.0,0.0,0.0,0.0,0.0,0.0,0.0,0.0,0.0,0.0,0.0,0.0,0.0,0.0,0.0,0.0,0.0,0.0,0.0,0.0,0.0,0.0,0.0,0.0,0.0,0.0,1.0818,1.0335,1.0082,1.0144,1.1741,1.2484,1.2266,1.2928,1.3876,0.0,0.0,0.0,0.0,0.0,0.0,0.0,0.0,0.0,0.0,0.0,0.0,0.0,0.0,0.0,0.0,0.0,0.0,0.0,0.0,0.0,0.0,0.0,0.0,0.0,0.0,0.0,0.0,0.0,0.0,0.0,0.0,0.0,0.0,0.0,0.0,0.0,0.0,0.0,0.0,1.5707,1.597,1.693,0.0,0.0,0.0,0.0,0.0,0.0,1.9107,1.9281,0.0,0.0,0.0,0.0,0.0,0.0,0.0,0.0,0.0,0.0,0.0,0.0,0.0,0.0,0.0,0.0,0.0,0.0,0.0,0.0,0.0,0.0,0.0,0.0,0.0,0.0,0.0,0.0,0.0,0.0,0.0,0.0,0.0,0.0,0.0,0.0,0.0,0.0,0.0,0.0,0.0,0.0,0.0,0.0,0.0,0.0,0.0,0.0,0.0,0.0,0.0,0.0,0.0,0.0,0.0,1.1786,1.1046,1.0624,1.0722,1.2716,1.3396,1.2536,1.3207,1.4143,0.0,0.0,0.0,0.0,0.0,0.0,0.0,0.0,0.0,0.0,0.0,0.0,0.0,0.0,0.0,0.0,0.0,0.0,0.0,0.0,0.0,0.0,0.0,0.0,0.0,0.0,0.0,0.0,0.0,0.0,0.0,0.0,0.0,0.0,0.0,0.0,0.0,0.0,0.0,0.0,0.0,1.7037,1.8163,1.7989,0.0,0.0,0.0,0.0,1.9858,1.9832,0.0,0.0,0.0,0.0,0.0,0.0,0.0,0.0,0.0,0.0,0.0,0.0,0.0,0.0,0.0,0.0,0.0,0.0,0.0,0.0,0.0,0.0,0.0,0.0,0.0,0.0,0.0,0.0,0.0,0.0,0.0,0.0,0.0,0.0,0.0,0.0,0.0,0.0,0.0,0.0,0.0,0.0,0.0,0.0,0.0,0.0,0.0,0.0,0.0,0.0,0.0,0.0,0.0,0.0,0.0,0.0,1.3045,1.2643,1.2408,1.2436,1.3366,1.3735,1.3446,1.4158,1.508,0.0,0.0,0.0,0.0,0.0,0.0,0.0,0.0,0.0,0.0,0.0,0.0,0.0,0.0,0.0,0.0,0.0,0.0,0.0,0.0,0.0,0.0,0.0,0.0,0.0,0.0,0.0,0.0,0.0,0.0,0.0,0.0,0.0,0.0,0.0,0.0,0.0,0.0,0.0,0.0,0.0,1.8238,1.9953,1.8851,1.8228,0.0,0.0,1.9654,2.0031,2.006,0.0,0.0,0.0,0.0,0.0,0.0,0.0,0.0,0.0,0.0,0.0,0.0,0.0,0.0,0.0,0.0,0.0,0.0,0.0,0.0,0.0,0.0,0.0,0.0,0.0,0.0,0.0,0.0,0.0,0.0,0.0,0.0,0.0,0.0,0.0,0.0,0.0,0.0,0.0,0.0,0.0,0.0,0.0,0.0,0.0,0.0,0.0,0.0,0.0,0.0,0.0,0.0,0.0,0.0,0.0,1.2421,1.3365,1.2974,1.2717,1.2742,1.3937,1.4237,1.3547,1.3775,1.4702,0.0,0.0,0.0,0.0,0.0,0.0,0.0,0.0,0.0,0.0,0.0,0.0,0.0,0.0,0.0,0.0,0.0,0.0,0.0,0.0,0.0,0.0,0.0,0.0,0.0,0.0,0.0,0.0,0.0,0.0,0.0,0.0,0.0,0.0,0.0,0.0,0.0,0.0,0.0,0.0,0.0,0.0,2.0457,1.9957,0.0,0.0,0.0,2.0015,2.0728,0.0,0.0,0.0,0.0,0.0,0.0,0.0,0.0,0.0,0.0,0.0,0.0,0.0,0.0,0.0,0.0,0.0,0.0,0.0,0.0,0.0,0.0,0.0,0.0,0.0,0.0,0.0,0.0,0.0,0.0,0.0,0.0,0.0,0.0,0.0,0.0,0.0,0.0,0.0,0.0,0.0,0.0,0.0,0.0,0.0,0.0,0.0,0.0,0.0,0.0,0.0,0.0,0.0,0.0,0.0,0.0,0.0,1.3846,1.3366,1.3088,1.3056,1.4365,1.4594,1.3601,1.3635,0.0,0.0,0.0,0.0,0.0,0.0,0.0,0.0,0.0,0.0,0.0,0.0,0.0,0.0,0.0,0.0,0.0,0.0,0.0,0.0,0.0,0.0,0.0,0.0,0.0,0.0,0.0,1.5878,0.0,0.0,0.0,0.0,0.0,0.0,0.0,0.0,0.0,0.0,0.0,0.0,0.0,0.0,2.1297,2.135,2.1187,2.0886,0.0,0.0,2.0805,2.1626,2.2439,2.3132,0.0,0.0,0.0,0.0,0.0,0.0,0.0,0.0,0.0,0.0,0.0,0.0,0.0,0.0,0.0,0.0,0.0,0.0,0.0,0.0,0.0,0.0,0.0,0.0,0.0,0.0,0.0,0.0,0.0,0.0,0.0,0.0,0.0,0.0,0.0,0.0,0.0,0.0,0.0,0.0,0.0,0.0,0.0,0.0,0.0,0.0,0.0,0.0,0.0,0.0,0.0,0.0,0.0,0.0,1.3491,1.4808,1.4301,1.3936,1.3949,1.4682,1.4628,1.3735,1.436,1.5373,0.0,0.0,0.0,0.0,0.0,0.0,0.0,0.0,0.0,0.0,0.0,0.0,0.0,0.0,0.0,0.0,0.0,0.0,0.0,0.0,0.0,0.0,0.0,0.0,0.0,0.0,0.0,0.0,0.0,0.0,0.0,0.0,0.0,0.0,0.0,0.0,0.0,0.0,0.0,0.0,0.0,2.3188,2.3366,2.2728,2.2212,0.0,2.2422,2.2568,2.2703,2.3441,2.3974,2.3886,0.0,0.0,0.0,0.0,0.0,0.0,0.0,0.0,0.0,0.0,0.0,0.0,0.0,0.0,0.0,0.0,0.0,0.0,0.0,0.0,0.0,0.0,0.0,0.0,0.0,0.0,0.0,0.0,0.0,0.0,0.0,0.0,0.0,0.0,0.0,0.0,0.0,0.0,0.0,0.0,0.0,0.0,0.0,0.0,0.0,0.0,0.0,0.0,0.0,0.0,0.0,0.0,0.0,1.3102,1.4335,1.3137,1.2963,1.3956,1.4236,1.4405,1.4506,1.4738,1.5251,0.0,0.0,0.0,0.0,0.0,0.0,0.0,0.0,0.0,0.0,0.0,0.0,0.0,0.0,0.0,0.0,0.0,0.0,0.0,0.0,0.0,0.0,0.0,0.0,0.0,0.0,0.0,0.0,1.7223,1.7122,1.7789,0.0,0.0,0.0,0.0,0.0,0.0,0.0,0.0,0.0,0.0,2.3221,2.4315,2.3793,0.0,0.0,2.3351,2.3475,2.358,2.4362,2.4876,2.4626,2.4007,0.0,0.0,0.0,0.0,0.0,0.0,0.0,0.0,0.0,0.0,0.0,0.0,0.0,0.0,0.0,0.0,0.0,0.0,0.0,0.0,0.0,0.0,0.0,0.0,0.0,0.0,0.0,0.0,0.0,0.0,0.0,0.0,0.0,0.0,0.0,0.0,0.0,0.0,0.0,0.0,0.0,0.0,0.0,0.0,0.0,0.0,0.0,0.0,0.0,0.0,0.0,0.0,1.3254,1.4752,1.3128,1.2855,1.4012,1.4178,1.4415,1.4683,1.5071,1.5414,0.0,0.0,0.0,0.0,0.0,0.0,0.0,0.0,0.0,0.0,0.0,0.0,0.0,0.0,0.0,0.0,0.0,0.0,0.0,0.0,0.0,0.0,0.0,0.0,0.0,0.0,0.0,0.0,1.8222,1.795,1.8342,0.0,0.0,0.0,0.0,0.0,0.0,0.0,0.0,0.0,0.0,2.3752,2.4941,2.4666,2.4302,2.4227,2.4283,2.4369,2.4456,2.5026,2.5365,2.5103,0.0,0.0,0.0,0.0,0.0,0.0,0.0,0.0,0.0,0.0,0.0,0.0,0.0,0.0,0.0,0.0,0.0,0.0,0.0,0.0,0.0,0.0,0.0,0.0,0.0,0.0,0.0,1.2205,0.0,0.0,1.2514,0.0,0.0,0.0,0.0,0.0,0.0,0.0,0.0,0.0,0.0,0.0,0.0,0.0,0.0,0.0,0.0,0.0,0.0,0.0,0.0,0.0,0.0,1.4272,1.6472,1.4781,1.3995,1.4102,1.4799,1.4757,1.4073,1.5384,1.6074,1.5871,0.0,0.0,0.0,0.0,0.0,0.0,0.0,0.0,0.0,0.0,0.0,0.0,0.0,0.0,0.0,0.0,0.0,0.0,0.0,0.0,0.0,0.0,0.0,0.0,0.0,0.0,1.8489,1.9072,1.9281,0.0,0.0,0.0,0.0,0.0,0.0,0.0,0.0,0.0,2.4809,2.5083,2.5187,2.5346,2.532,2.5272,2.532,2.5346,2.5337,2.5265,2.5357,2.5365,0.0,0.0,0.0,0.0,0.0,0.0,0.0,0.0,0.0,0.0,0.0,0.0,0.0,0.0,0.0,0.0,0.0,0.0,0.0,0.0,0.0,0.0,0.0,0.0,0.0,0.0,0.0,1.2223,1.2802,0.0,0.0,0.0,0.0,0.0,0.0,0.0,0.0,0.0,0.0,0.0,1.5047,1.4463,0.0,0.0,0.0,0.0,0.0,0.0,0.0,0.0,0.0,0.0,0.0,0.0,1.412,1.5547,1.3514,1.2934,1.4051,1.4291,1.4792,1.5605,1.6098,1.674,1.7562,0.0,0.0,0.0,0.0,0.0,0.0,0.0,0.0,0.0,0.0,0.0,0.0,0.0,0.0,0.0,0.0,0.0,0.0,0.0,0.0,0.0,0.0,0.0,0.0,0.0,1.9973,0.0,0.0,0.0,0.0,0.0,0.0,0.0,0.0,0.0,0.0,0.0,2.2704,2.4847,2.4816,2.48,2.5383,2.546,2.5453,0.0,0.0,0.0,0.0,0.0,0.0,0.0,0.0,0.0,0.0,0.0,0.0,0.0,0.0,2.4908,2.4189,2.3779,2.3549,2.3631,0.0,0.0,0.0,0.0,0.0,0.0,0.0,0.0,0.0,0.0,0.0,0.0,0.0,0.0,1.2346,0.0,1.3214,0.0,0.0,0.0,0.0,0.0,0.0,0.0,0.0,1.5643,1.5434,1.518,1.492,1.4615,0.0,1.5184,1.4854,0.0,0.0,0.0,0.0,0.0,0.0,0.0,0.0,1.4332,1.5585,1.3553,1.3092,1.4451,1.4783,1.5415,1.6482,1.6661,1.73,1.8486,1.8297,1.7992,0.0,0.0,0.0,0.0,0.0,0.0,0.0,0.0,0.0,0.0,0.0,0.0,0.0,0.0,0.0,0.0,0.0,0.0,0.0,0.0,0.0,0.0,0.0,1.9884,0.0,0.0,0.0,0.0,0.0,0.0,0.0,0.0,0.0,2.3612,2.302,2.3266,2.507,2.4962,2.4924,2.5493,0.0,0.0,0.0,0.0,0.0,0.0,0.0,2.5354,2.5225,2.4793,2.4321,2.3979,2.4173,2.4279,2.396,0.0,0.0,2.4362,2.4189,2.4151,2.4176,2.3809,2.3815,2.4908,2.4629,2.4157,0.0,0.0,0.0,0.0,0.0,0.0,0.0,0.0,1.129,1.2322,0.0,1.4122,0.0,0.0,0.0,0.0,1.6038,1.5155,0.0,0.0,1.5429,1.5155,1.5302,1.5846,1.5506,1.4528,1.5795,1.5631,1.4199,1.4606,0.0,0.0,0.0,0.0,0.0,0.0,1.4992,1.6583,1.5034,1.4561,1.5375,1.6188,1.6601,1.6605,1.7178,1.787,1.8587,1.839,1.8554,1.9313,1.9669,0.0,0.0,0.0,0.0,0.0,0.0,0.0,0.0,0.0,0.0,0.0,0.0,0.0,0.0,0.0,0.0,0.0,0.0,0.0,0.0,1.9823,0.0,0.0,0.0,0.0,0.0,0.0,0.0,0.0,0.0,0.0,2.3823,2.4438,2.512,2.5498,0.0,0.0,0.0,0.0,2.554,2.5649,2.5607,2.5557,2.5621,2.5531,2.5461,2.5453,0.0,0.0,2.4274,2.4812,2.5082,2.4302,2.4724,2.5168,2.5273,2.5224,2.5203,2.5113,2.5128,2.5253,2.519,2.4802,2.4387,1.043,0.0,0.0,0.0,0.0,1.0707,1.1284,1.1619,1.2927,1.4051,1.4939,1.495,0.0,0.0,0.0,0.0,0.0,0.0,1.6197,1.6028,1.672,1.6751,1.6196,1.6479,1.6545,1.6519,1.6795,1.6576,1.6008,1.5962,1.5799,1.5518,0.0,0.0,0.0,0.0,1.6827,1.8116,1.6654,1.6223,1.7074,1.7241,1.7593,1.8138,1.8906,1.9391,1.9522,1.9907,2.0159,2.0303,2.0751,0.0,0.0,0.0,0.0,0.0,0.0,0.0,0.0,0.0,0.0,0.0,0.0,0.0,0.0,0.0,0.0,0.0,0.0,0.0,2.0164,2.0539,2.0982,0.0,0.0,0.0,0.0,0.0,0.0,0.0,0.0,0.0,2.4163,2.4324,2.4988,0.0,0.0,2.5862,2.647,2.6018,2.5862,2.6493,2.6575,0.0,2.7342,2.6899,2.6451,2.6405,2.5824,2.5271,2.4995,2.5706,2.6028,2.5189,2.5693,2.6078,2.5546,2.5283,2.5214,2.5293,2.5393,2.5456,2.5464,2.5357,2.5087,1.2564,1.1147,1.1093,1.0941,1.0891,1.1815,1.238,1.2755,1.4133,1.518,1.5968,1.6066,1.6151,1.616,1.559,0.0,0.0,0.0,1.6939,1.6726,1.7597,1.776,1.7348,1.7707,1.7782,1.7603,1.7771,1.7522,1.6917,1.7093,1.7032,1.6756,0.0,0.0,1.8102,1.7569,1.7667,1.8364,1.7478,1.7234,1.7716,1.7968,1.851,1.9288,1.9821,2.002,1.9881,2.0482,2.0937,2.1191,2.1696,2.1497,0.0,0.0,0.0,0.0,0.0,0.0,0.0,0.0,0.0,0.0,0.0,2.0376,1.9816,0.0,0.0,0.0,2.1202,2.1401,2.2211,2.1958,0.0,0.0,0.0,0.0,0.0,0.0,0.0,2.425,2.4898,2.5172,2.4781,2.4791,2.5221,2.6223,2.5983,2.5878,2.6357,0.0,2.638,2.691,2.7273,2.7644,2.8158,2.7772,2.74,2.7329,2.6857,2.6466,2.6439,2.6897,2.7043,2.6694,2.6907,2.6986,2.6164,2.5867,2.5657,2.5476,2.5492,2.5564,2.56,2.5636,2.5461,1.499,1.4249,1.2981,1.235,1.2241,1.2786,1.3179,1.357,1.5034,1.5922,1.6442,1.7334,1.7271,1.646,1.646,0.0,1.7315,1.7324,1.7575,1.8027,1.8213,1.8421,1.8647,1.9306,1.9064,1.8055,1.8717,1.8448,1.7341,1.8004,1.8313,1.818,1.7409,1.7347,1.7958,1.8038,1.7954,1.7805,1.788,1.7861,1.7803,1.8565,1.9341,2.006,2.0098,2.0,1.9839,2.0471,2.1157,2.1931,2.2501,2.2792,2.2573,0.0,0.0,0.0,0.0,0.0,0.0,0.0,0.0,0.0,0.0,0.0,0.0,0.0,0.0,2.2426,2.2805,0.0,2.5037,2.3688,0.0,0.0,0.0,2.3638,2.3708,2.4429,2.4972,2.5091,0.0,0.0,2.5498,2.563,2.5691,2.5696,2.5779,2.585,2.5888,2.6575,2.7071,2.7273,2.7839,2.8353,2.8616,2.8443,2.8238,2.806,2.8106,2.8009,2.7997,2.8164,2.8184,2.8009,2.8151,2.7885,2.6971,2.6751,2.6532,2.5651,2.5565,2.56,2.5603,2.5603,2.5597,1.593,1.5725,1.5542,1.4804,1.384,1.4702,1.5221,1.5606,1.6766,1.7522,1.7962,1.8104,1.8023,1.7754,1.771,1.7569,1.7412,1.811,1.8618,1.9044,1.9255,1.9719,2.0345,2.0056,1.9645,1.9156,1.9294,1.9115,1.8661,1.8907,1.9064,1.903,1.8906,1.8855,1.8819,1.9072,1.9307,1.9525,1.9525,1.9507,1.9428,1.9629,1.9827,2.0026,2.0026,1.9996,1.9985,2.1132,2.1981,2.2426,2.3328,2.3433,2.2511,2.2319,0.0,0.0,0.0,0.0,0.0,0.0,0.0,0.0,0.0,2.1644,2.0918,0.0,2.1706,0.0,2.4254,2.4514,2.4049,2.3755,0.0,0.0,2.3341,2.3373,2.4667,2.4514,2.4553,2.5206,2.5387,2.5486,2.5498,2.561,2.5691,2.5715,2.6457,2.715,2.7546,2.7777,2.8212,2.8739,2.9035,2.9429,2.9978,2.9604,2.8981,2.8296,2.8184,2.8159,2.8113,2.8718,2.8968,2.8398,2.8729,2.8548,2.7225,2.6899,2.656,2.5837,2.5632,2.5625,2.5644,2.5637,2.56,1.6622,1.6712,1.6946,1.6683,1.6082,1.6454,1.6792,1.7146,1.7808,1.8305,1.8699,1.8853,1.8856,1.8805,1.9207,1.9241,1.9075,1.9826,2.0357,2.0649,2.0866,2.1211,2.1639,2.1008,2.0684,2.0596,1.9829,1.9549,1.9693,1.9454,1.9314,1.939,1.9518,1.9699,1.9921,1.9782,2.0172,2.1145,2.0781,2.0408,2.0012,1.9993,2.0164,2.0505,2.0183,2.0153,2.0475,2.1183,2.1644,2.1865,2.2783,2.3154,2.2778,2.2675,2.221,0.0,0.0,0.0,0.0,0.0,0.0,0.0,0.0,0.0,0.0,0.0,2.2544,2.3233,2.4504,2.5053,2.4398,2.4457,2.4552,2.462,2.4159,2.4197,2.5178,2.4917,2.4863,2.5329,2.546,2.5535,2.5576,2.5643,2.5691,2.5715,2.6917,2.7759,2.7769,2.8305,2.899,2.9435,2.9826,3.0235,3.0755,3.0404,2.9913,2.9487,2.9347,2.9347,2.9284,2.9401,2.9324,2.8899,2.8899,2.8711,2.775,2.7203,2.6774,2.639,2.5933,2.5664,2.5659,2.5637,2.5609,1.715,1.7439,1.7879,1.8216,1.8447,1.8199,1.8224,1.844,1.8566,1.8807,1.9176,1.974,1.9936,1.9888,2.0729,2.1131,2.1186,2.1678,2.2121,2.2397,2.2464,2.2552,2.2628,2.2016,2.1819,2.1946,2.0478,2.0037,2.0499,1.9959,1.9672,1.9713,1.995,2.0446,2.1142,2.0502,2.0876,2.2303,2.1703,2.1047,2.0334,2.0221,2.0505,2.113,2.0429,2.0293,2.0927,2.0939,2.0979,2.1138,2.1915,2.2697,2.3377,2.2294,2.2096,0.0,2.2051,0.0,0.0,0.0,0.0,0.0,0.0,0.0,0.0,2.3924,2.3558,2.2709,2.4265,2.5322,2.5329,2.5321,2.5322,2.5322,2.5322,2.535,2.5401,2.541,2.543,2.549,2.5515,2.5576,2.5691,2.5703,2.5717,2.5996,2.7259,2.8065,2.7655,2.8592,2.9468,2.9508,3.0033,3.0222,3.0485,3.0579,3.056,3.07,3.0657,3.0739,3.0443,3.0056,2.9595,2.9311,2.8867,2.8418,2.8184,2.7474,2.695,2.6715,2.6132,2.567,2.5627,2.5606,2.5576,1.7625,1.7949,1.9041,1.9623,1.9865,2.0552,2.0388,1.9629,1.9303,1.9591,2.0412,2.1216,2.1565,2.1535,2.1731,2.1885,2.1973,2.2079,2.2604,2.3398,2.2767,2.2855,2.3405,2.2684,2.2256,2.2145,2.1812,2.1367,2.0756,2.1343,2.1335,2.0757,2.1551,2.2066,2.2205,0.0,0.0,0.0,2.2037,2.2228,2.2014,2.1339,2.1036,2.1187,2.0429,0.0,2.0205,2.0752,2.1437,2.2236,2.2911,0.0,0.0,0.0,0.0,0.0,0.0,0.0,0.0,0.0,0.0,0.0,2.4289,2.4398,2.399,2.457,2.4543,2.3554,2.4601,2.5414,2.5467,2.5467,2.546,2.546,2.546,2.546,2.5485,2.5544,2.554,2.5504,2.5605,2.5667,2.5718,2.5701,2.5974,2.6693,2.7656,2.8475,2.8995,2.9315,2.9511,2.9505,2.9201,2.904,2.9635,2.9787,3.0147,3.0567,3.0798,3.0435,2.9718,3.0082,2.9901,2.8782,2.8904,2.873,2.7498,2.7025,2.6732,2.6009,2.5746,2.5637,2.5666,2.5645,2.5617,1.7681,1.8005,1.9278,1.9932,0.0,2.126,2.1624,2.1425,2.0814,2.0881,2.1492,2.2383,2.2753,2.2709,2.3247,2.346,2.3437,2.3544,2.3884,2.4347,2.3967,2.4005,2.4385,2.3929,2.3657,2.3484,2.3582,2.3107,2.2168,2.221,2.209,2.1783,2.2324,2.2764,2.3179,2.3736,2.3323,2.2008,2.2892,2.3073,2.2551,2.2117,2.1866,2.1813,2.1472,0.0,0.0,0.0,0.0,0.0,0.0,0.0,0.0,2.4155,0.0,2.4228,2.4482,2.4321,2.3578,2.3817,2.4162,2.4434,2.4889,2.5003,2.4668,2.5071,2.5131,2.4606,2.5104,2.5467,2.5537,2.5523,2.5504,2.5504,2.5504,2.5504,2.5546,2.5581,2.5615,2.5604,2.5656,2.5839,2.6286,2.5927,2.6277,2.748,2.8749,2.9527,2.9615,2.9931,3.0016,2.9589,2.9173,2.901,2.9425,2.9908,3.0228,3.0667,3.0448,2.9957,2.9396,2.9051,2.857,2.7754,2.7948,2.7964,2.7705,2.7227,2.6888,2.6793,2.6178,2.5639,2.5645,2.5636,2.5601,1.7612,1.7907,1.924,2.0003,2.0425,2.1567,2.2514,2.3214,0.0,0.0,0.0,2.3422,2.378,2.3742,2.4615,2.4898,2.4756,2.494,2.5057,2.5082,2.5082,2.5082,2.5082,2.5063,2.4961,2.4865,2.5034,2.458,2.3585,2.3035,2.2792,2.284,2.2985,2.3427,2.4159,2.4838,2.4571,2.3403,2.3967,2.3927,2.3089,2.2899,2.277,2.2735,2.259,2.2451,2.2331,2.2395,2.2489,2.2577,2.269,2.3094,2.3814,2.3814,2.4155,2.4943,2.4994,2.4968,2.4981,2.4981,2.5012,2.5118,2.532,2.541,2.541,2.541,2.5446,2.551,2.5521,2.554,2.5609,2.5556,2.5532,2.5532,2.5532,2.5552,2.5601,2.5613,2.5695,2.5882,2.597,2.6188,2.6835,2.6548,2.6556,2.7949,2.9489,3.0599,3.0045,3.0196,3.0144,2.9372,2.9082,2.9216,2.9373,2.9723,3.0348,3.0329,2.9781,2.9196,2.871,2.789,2.7109,2.6749,2.6763,2.713,2.7557,2.7069,2.6942,2.7596,2.6626,2.5613,2.5613,2.5593,2.557,1.7766,1.7946,1.9477,2.0571,2.1314,2.2498,2.3484,2.4278,2.4215,2.3883,2.337,2.4237,2.4686,2.478,2.4947,2.4999,2.4966,2.5057,2.5082,2.5082,2.5082,2.5082,2.5082,2.5082,2.507,2.5057,2.5089,2.4632,2.3916,2.4385,2.4381,2.3868,2.4474,2.4928,2.5124,2.4646,2.4651,2.5182,2.5229,2.509,2.4837,2.4033,2.3622,2.3588,2.2899,2.2488,2.2481,2.2555,2.292,2.3629,2.3683,2.4079,2.4893,2.4936,2.4994,2.5088,2.5183,2.5148,2.4934,2.4896,2.4993,2.5168,2.5372,2.5486,2.5486,2.5505,2.5515,2.5565,2.5593,2.5605,2.5673,2.5715,2.5712,2.5712,2.5696,2.5696,2.5732,2.5765,2.6061,2.6737,2.6832,2.6854,2.7064,2.7441,2.748,2.7655,2.927,3.0689,3.0392,3.0138,2.9457,2.8697,2.8472,2.8474,2.8492,2.8555,2.8945,2.9277,2.8827,2.7966,2.6797,2.7207,2.7203,2.6061,2.6442,2.6661,2.6296,2.5882,2.6018,2.6262,2.5839,2.5615,2.561,2.5542,2.5512,1.7856,1.8012,1.9359,2.0456,2.142,2.3125,2.4077,2.4429,2.4515,2.4396,2.4158,2.4542,2.4768,2.4889,2.4902,2.4923,2.4987,2.5038,2.507,2.5082,2.5082,2.5082,2.5082,2.5082,2.5082,2.5082,2.5076,2.4915,2.4621,2.5009,2.5033,2.4743,2.5158,2.5406,2.5415,2.5176,2.5216,2.5649,2.5579,2.5473,2.5309,2.4934,2.4457,2.39,2.3866,2.3679,2.3213,2.3693,2.4124,2.4548,2.4595,2.479,2.5164,2.5213,2.5194,2.5164,2.5244,2.5287,2.5194,2.5207,2.528,2.5421,2.5502,2.558,2.5605,2.5565,2.557,2.5645,2.5648,2.5871,2.6332,2.6412,2.641,2.6405,2.6798,2.6893,2.6574,2.6874,2.7268,2.7622,2.7723,2.7709,2.7715,2.7245,2.7243,2.763,2.9225,2.9984,2.9591,2.9552,2.9298,2.8459,2.7918,2.7627,2.7622,2.8021,2.8356,2.8645,2.8044,2.7283,2.6399,2.6841,2.6395,2.5874,2.632,2.667,2.63,2.63,2.63,2.6262,2.5865,2.5662,2.5599,2.5518,2.5432,1.79,1.8017,1.9178,2.0477,2.1884,2.3565,2.4395,2.458,2.445,2.441,2.4513,2.458,2.4676,2.4768,2.4809,2.4896,2.4993,2.5006,2.5051,2.5126,2.5139,2.5151,2.5163,2.5144,2.5163,2.5144,2.5149,2.5179,2.5254,2.5303,2.5348,2.543,2.5505,2.5546,2.5546,2.5643,2.5699,2.5703,2.5699,2.5605,2.5434,2.5447,2.5074,2.4361,2.4811,2.4826,2.4224,2.4798,2.516,2.5153,2.5225,2.5236,2.5206,2.5217,2.5209,2.5261,2.5658,2.5947,2.5998,2.6075,2.6048,2.5909,2.6096,2.6074,2.5761,2.6027,2.6122,2.6017,2.6025,2.636,2.7082,2.7277,2.7277,2.7316,2.7861,2.7922,2.745,2.7866,2.8397,2.8514,2.8574,2.8515,2.808,2.7005,2.671,2.7871,2.8652,2.873,2.8459,2.8791,2.8654,2.8186,2.7561,2.729,2.7134,2.7524,2.7835,2.7793,2.7169,2.6715,2.6464,2.5995,2.5687,2.5664,2.609,2.6442,2.6578,2.6553,2.6495,2.6378,2.5957,2.5595,2.5544,2.5445,2.5378,1.7873,1.8051,1.9234,2.1111,2.3379,2.3821,2.4478,2.5129,2.4424,2.4134,2.4266,2.4497,2.4629,2.4723,2.4823,2.4917,2.4969,2.5031,2.5139,2.5241,2.5195,2.522,2.5369,2.5321,2.5283,2.533,2.533,2.539,2.5446,2.539,2.5427,2.5499,2.5625,2.5675,2.5683,2.5683,2.5703,2.5691,2.5703,2.5634,2.5498,2.5441,2.5352,2.5277,2.5271,2.5253,2.51,2.5309,2.533,2.5303,2.5351,2.5341,2.5303,2.5226,2.5216,2.536,2.6867,2.786,2.7841,2.7912,2.755,2.6954,2.7527,2.7344,2.6021,2.7087,2.7634,2.7103,2.6893,2.7246,2.7969,2.8086,2.8104,2.8117,2.826,2.8163,2.8156,2.8151,2.852,2.9322,2.9398,2.9103,2.8395,2.7638,2.7293,2.7485,2.766,2.7722,2.7889,2.7715,2.7422,2.7327,2.7581,2.7659,2.7151,2.7015,2.6874,2.622,2.5947,2.5896,2.5851,2.5775,2.5605,2.5629,2.5685,2.5834,2.5815,2.5737,2.5795,2.5912,2.5731,2.5557,2.5437,2.5351,2.5322,1.9297,1.9493,2.0822,2.2404,2.4028,2.4334,2.4772,2.5216,2.4365,2.4075,2.421,2.4321,2.4389,2.447,2.4639,2.4986,2.5455,2.5144,2.5557,2.639,2.6104,2.6201,2.6696,2.6738,2.6729,2.6672,2.6252,2.6083,2.606,2.5739,2.5556,2.5617,2.5678,2.5707,2.5687,2.5707,2.5701,2.5703,2.5699,2.5691,2.563,2.5595,2.5529,2.5453,2.5398,2.5371,2.5367,2.536,2.5332,2.5303,2.5322,2.5341,2.5313,2.5284,2.5524,2.6149,2.7399,2.8163,2.8159,2.824,2.8106,2.7741,2.8018,2.7908,2.7303,2.783,2.8255,2.8415,2.8022,2.8057,2.8839,2.8956,2.8973,2.9047,2.9422,2.9521,2.9031,2.943,2.9929,3.0219,3.0251,2.9928,2.9113,2.8333,2.7757,2.7503,2.7464,2.7491,2.6913,2.6796,2.6718,2.6328,2.6503,2.6549,2.63,2.6197,2.6013,2.5753,2.5636,2.5621,2.5613,2.5595,2.5605,2.5609,2.5613,2.5601,2.564,2.5601,2.5601,2.5595,2.5564,2.549,2.5404,2.5332,2.5303,2.0258,2.0749,2.2208,2.3621,2.4793,2.4818,2.4998,2.5155,2.4324,2.4037,2.4191,2.4431,2.4561,2.4669,2.4845,2.5417,2.6124,2.5819,2.627,2.7338,2.7007,2.7156,2.7723,2.7777,2.778,2.7704,2.7178,2.6853,2.6683,2.5964,2.5625,2.5668,2.5691,2.5687,2.5703,2.5701,2.569,2.5707,2.5699,2.5699,2.5699,2.5699,2.5663,2.5546,2.5492,2.5446,2.5461,2.5404,2.5388,2.535,2.534,2.5466,2.5659,2.5474,2.6075,2.7632,2.8242,2.8661,2.8883,2.8948,2.8881,2.8695,2.8787,2.8691,2.8378,2.8617,2.9029,2.9283,2.9097,2.9207,2.9692,2.9829,2.9829,2.9865,3.0434,3.0479,2.9949,3.0435,3.0715,3.0763,3.0687,3.0458,2.9562,2.8525,2.7605,2.7303,2.7288,2.7175,2.6011,2.6131,2.6287,2.5718,2.5628,2.5652,2.5655,2.5714,2.5601,2.5613,2.5613,2.5609,2.5604,2.5605,2.5595,2.5599,2.5607,2.5607,2.5601,2.5601,2.5622,2.557,2.5529,2.5479,2.5379,2.5312,2.5395,2.0212,2.1231,2.2781,2.4397,2.5781,2.5175,2.5052,2.5226,2.4242,2.3919,2.4207,2.4962,2.539,2.5542,2.5742,2.6276,2.7071,2.7222,2.7437,2.7803,2.7811,2.7865,2.7875,2.7951,2.8038,2.8155,2.7913,2.7437,2.6734,2.6003,2.5605,2.562,2.5683,2.5701,2.5689,2.5703,2.5693,2.5691,2.5703,2.5699,2.5699,2.5699,2.5699,2.5691,2.5615,2.5595,2.5609,2.5607,2.557,2.5505,2.5538,2.5841,2.6478,2.6001,2.7128,2.9922,2.9776,2.9732,3.0434,3.0523,3.0274,2.9771,3.0096,2.9961,2.8708,2.9595,3.0083,2.9513,3.0061,3.0464,3.0541,3.0492,3.0531,3.0555,3.0642,3.0667,3.062,3.0607,3.0704,3.0717,3.0716,3.0431,2.9594,2.7995,2.7432,2.7059,2.6403,2.5907,2.5881,2.5773,2.5847,2.576,2.5654,2.5549,2.5609,2.5585,2.56,2.5591,2.5595,2.56,2.5599,2.5601,2.5601,2.5601,2.5564,2.5583,2.5595,2.5622,2.5673,2.565,2.5599,2.5524,2.5629,2.5354,2.5463,2.2952,2.4547,2.4761,2.5536,2.6468,2.5853,2.543,2.5145,2.4221,2.3899,2.4241,2.5016,2.5698,2.6276,2.7065,2.7639,2.8032,2.7742,2.8185,2.913,2.8912,2.9033,2.9534,2.9593,2.9583,2.9458,2.85,2.7318,2.6115,2.5723,2.5626,2.5664,2.5683,2.5703,2.5698,2.5696,2.5703,2.5687,2.5699,2.5699,2.5699,2.5699,2.5691,2.5639,2.5615,2.5851,2.637,2.5835,2.6013,2.7024,2.6602,2.6653,2.7442,2.7833,2.878,3.0489,3.0492,3.0438,3.0723,3.0785,3.0684,3.0447,3.0623,3.0552,3.0043,3.0346,3.0555,3.0354,3.0458,3.0711,3.0698,3.071,3.0698,3.0704,3.0691,3.0704,3.0704,3.069,3.069,3.0697,3.0704,3.0555,3.0225,2.9687,2.9143,2.8605,2.8217,2.7509,2.6737,2.6835,2.6976,2.6537,2.6366,2.6333,2.6372,2.5835,2.5564,2.555,2.5544,2.5544,2.5551,2.5531,2.5531,2.5522,2.5515,2.5727,2.5824,2.6196,2.6152,2.6168,2.609,2.5874,2.6022,2.5803,2.5963,2.3886,2.5561,2.5265,2.5725,2.6623,2.5937,2.5308,2.4777,2.4153,2.3958,2.4298,2.5035,2.5777,2.6466,2.7475,2.8079,2.832,2.8322,2.9098,3.0157,2.9841,2.996,3.0451,3.0549,3.0385,2.9883,2.8414,2.7,2.608,2.5732,2.5662,2.5699,2.5702,2.5703,2.57,2.5697,2.5701,2.5687,2.5699,2.5699,2.5738,2.5952,2.6061,2.6062,2.6265,2.6508,2.6806,2.6451,2.6796,2.776,2.7462,2.7412,2.8028,2.9162,3.0115,3.071,3.0784,3.0798,3.0798,3.0791,3.079,3.0801,3.0786,3.0755,3.0701,3.071,3.0697,3.069,3.069,3.069,3.069,3.0697,3.069,3.069,3.069,3.069,3.069,3.069,3.071,3.0703,3.0703,3.0703,3.0656,3.0404,3.0081,2.979,2.9421,2.8379,2.7349,2.7544,2.7796,2.7018,2.6764,2.6671,2.6462,2.5912,2.5519,2.5476,2.5483,2.5483,2.5495,2.5472,2.5495,2.5473,2.5637,2.5879,2.6236,2.666,2.6832,2.6886,2.6515,2.6201,2.6281,2.632,2.6467,2.2703,2.4127,2.3969,2.4904,2.6073,2.5492,2.4738,2.418,2.4112,2.4171,2.4358,2.5133,2.569,2.6038,2.6994,2.7483,2.7883,2.8981,2.9762,3.0094,3.024,3.0279,3.0355,3.0356,2.9911,2.911,2.7602,2.6826,2.6571,2.5989,2.5695,2.5702,2.5703,2.57,2.5699,2.5689,2.569,2.5726,2.5757,2.5777,2.5816,2.6513,2.6898,2.6991,2.7607,2.7672,2.6985,2.7528,2.7934,2.8198,2.8144,2.8086,2.8417,2.9712,3.07,3.0765,3.0798,3.079,3.0788,3.0792,3.08,3.0779,3.0729,3.0706,3.0706,3.0704,3.069,3.069,3.069,3.069,3.071,3.0904,3.0865,3.069,3.071,3.071,3.0787,3.0749,3.0703,3.0727,3.07,3.0711,3.054,3.018,2.9962,3.0144,2.9433,2.8307,2.7615,2.8016,2.7748,2.7105,2.7,2.7061,2.6497,2.5908,2.562,2.5387,2.5404,2.5412,2.5395,2.5406,2.5581,2.564,2.6362,2.6651,2.7033,2.7445,2.7704,2.7647,2.7101,2.6676,2.667,2.6765,2.6844,2.2736,2.4155,2.4095,2.4657,2.5536,2.5395,2.4887,2.4266,2.4355,2.4478,2.4696,2.5456,2.5881,2.6134,2.6934,2.7438,2.765,2.8262,2.8602,2.8742,2.8805,2.8877,2.8919,2.8912,2.8473,2.7699,2.7138,2.6558,2.6087,2.578,2.5645,2.5703,2.5703,2.5697,2.5689,2.5701,2.5687,2.5761,2.6264,2.6537,2.6611,2.7357,2.7765,2.782,2.8514,2.878,2.8534,2.8241,2.8664,2.9699,2.9297,2.9246,2.9854,3.0435,3.0749,3.0743,3.0792,3.0798,3.0801,3.0799,3.0792,3.0749,3.072,3.0706,3.071,3.0711,3.069,3.069,3.069,3.069,3.0865,3.1844,3.1921,3.0826,3.071,3.102,3.1421,3.1557,3.127,3.0797,3.0665,3.0637,3.061,3.0261,3.0308,3.054,3.0036,2.9404,2.888,2.9078,2.9455,2.8706,2.8255,2.7344,2.6762,2.6025,2.5426,2.5293,2.5332,2.5351,2.5351,2.5592,2.5736,2.6292,2.6986,2.7503,2.7881,2.8203,2.8509,2.8536,2.8172,2.7769,2.7342,2.7205,2.7191,2.1975,2.3405,2.3362,2.3934,2.4892,2.5004,2.4783,2.443,2.451,2.4588,2.4789,2.5274,2.5565,2.5684,2.6252,2.6593,2.6711,2.685,2.6994,2.7239,2.7854,2.8067,2.8071,2.7761,2.7437,2.6928,2.6592,2.6207,2.5726,2.5666,2.5679,2.5703,2.57,2.5693,2.5698,2.569,2.5697,2.582,2.6498,2.6922,2.7152,2.8076,2.8642,2.8702,2.9395,2.981,2.9788,2.935,2.957,3.0379,3.0164,3.0235,3.0694,3.0756,3.0776,3.0722,3.0762,3.08,3.0792,3.0765,3.0746,3.0711,3.0706,3.0697,3.0704,3.069,3.069,3.069,3.069,3.0807,3.1305,3.24,3.2652,3.1809,3.172,3.1751,3.2043,3.2233,3.179,3.1122,3.0912,3.0884,3.0701,3.0613,3.0613,3.0613,3.0557,3.021,2.9717,2.9893,2.9651,2.9159,2.8232,2.7495,2.7051,2.6235,2.5294,2.5182,2.5233,2.5262,2.5262,2.5871,2.6227,2.7302,2.8148,2.8545,2.8931,2.9213,2.9455,2.9331,2.9055,2.8498,2.7903,2.7426,2.7308,2.0645,2.1971,2.1962,2.2829,2.4058,2.4259,2.4364,2.4431,2.457,2.4629,2.4719,2.4915,2.493,2.4936,2.5317,2.5432,2.5293,2.555,2.5725,2.617,2.705,2.7727,2.7688,2.7117,2.6783,2.6621,2.6089,2.5759,2.5705,2.5703,2.5698,2.5703,2.5677,2.5705,2.5698,2.5697,2.5756,2.6006,2.6708,2.7125,2.7264,2.873,2.9546,2.9518,3.0232,3.0634,3.0565,3.0517,3.0611,3.0709,3.069,3.0683,3.0788,3.0796,3.076,3.0715,3.076,3.0774,3.0784,3.0735,3.0706,3.0706,3.0685,3.071,3.071,3.071,3.0703,3.0683,3.0703,3.1006,3.1759,3.2904,3.332,3.3369,3.3231,3.2909,3.2221,3.276,3.2482,3.1359,3.135,3.1554,3.0723,3.0597,3.0577,3.0549,3.0433,3.0015,2.9704,2.9636,2.9193,2.8664,2.8107,2.7355,2.6816,2.5964,2.5122,2.5072,2.5172,2.5329,2.5654,2.6335,2.7023,2.8123,2.8986,2.943,2.9704,2.9836,2.9909,2.976,2.9395,2.8935,2.8376,2.7803,2.7283,2.0497,2.1387,2.1258,2.1784,2.2809,2.3439,2.3818,2.4024,2.4726,2.5038,2.5175,2.5173,2.516,2.5184,2.5209,2.5283,2.5348,2.5379,2.5479,2.563,2.5974,2.6291,2.6347,2.6154,2.6039,2.601,2.5836,2.5703,2.5703,2.5703,2.5702,2.5702,2.5659,2.565,2.5701,2.5694,2.6067,2.6688,2.7507,2.8209,2.881,2.9786,3.0426,3.0473,3.0629,3.0726,3.0712,3.0771,3.0786,3.0772,3.0781,3.0769,3.0732,3.0765,3.0774,3.072,3.0715,3.0721,3.0728,3.0724,3.0704,3.0697,3.0649,3.0634,3.0707,3.0707,3.068,3.0653,3.0684,3.1019,3.1854,3.3439,3.4494,3.4803,3.4429,3.3824,3.3234,3.3518,3.3432,3.197,3.1758,3.1458,3.0811,3.0462,3.0411,3.037,3.0251,3.0126,2.9851,2.9729,2.9489,2.8796,2.8141,2.7262,2.6434,2.5622,2.5069,2.4975,2.5139,2.5469,2.6174,2.7178,2.7891,2.8769,2.9352,2.9836,2.988,2.9954,3.0003,2.9912,2.9604,2.9082,2.8464,2.7869,2.7311,2.0275,2.0766,2.1348,2.1878,2.2476,2.3657,2.4201,2.4404,2.4926,2.5312,2.5385,2.5357,2.5339,2.5321,2.5313,2.535,2.5437,2.5449,2.5537,2.5648,2.5694,2.5735,2.5733,2.5699,2.57,2.5699,2.5703,2.5696,2.5693,2.5701,2.5702,2.5662,2.5625,2.5625,2.5661,2.5683,2.5879,2.6543,2.7577,2.8533,2.898,3.0214,3.0715,3.0769,3.0732,3.0741,3.0741,3.0781,3.08,3.0797,3.0786,3.0765,3.0704,3.0721,3.0753,3.0704,3.0704,3.0691,3.0688,3.0673,3.0645,3.0645,3.061,3.0629,3.0637,3.0621,3.0597,3.1004,3.1129,3.1672,3.2653,3.4218,3.5174,3.5333,3.5121,3.4546,3.378,3.4439,3.3877,3.2668,3.2097,3.1835,3.0703,3.0378,3.0283,3.0209,3.0109,3.0052,2.9969,2.9924,2.9551,2.8669,2.7899,2.703,2.6115,2.5275,2.5086,2.5002,2.5343,2.5636,2.6683,2.777,2.8417,2.907,2.9675,3.0037,2.9905,2.9782,2.9671,2.9583,2.9463,2.8978,2.8209,2.7499,2.6998,2.0087,2.0134,2.1771,2.2433,2.2612,2.4202,2.4706,2.4837,2.5158,2.5305,2.5271,2.5352,2.5429,2.5404,2.5351,2.5374,2.5492,2.5505,2.5571,2.5752,2.5948,2.6151,2.5976,2.5774,2.5814,2.5877,2.578,2.5672,2.5671,2.5684,2.5651,2.5622,2.5603,2.5588,2.5597,2.5597,2.5694,2.6358,2.7534,2.8475,2.9022,3.0165,3.0715,3.0703,3.0712,3.0768,3.0785,3.0785,3.0791,3.0767,3.0794,3.0759,3.0703,3.0685,3.0775,3.0874,3.0936,3.0928,3.0826,3.0897,3.0704,3.0617,3.0704,3.0722,3.0791,3.0827,3.113,3.1646,3.1943,3.2675,3.3689,3.4827,3.521,3.5339,3.5328,3.5058,3.4762,3.5082,3.4569,3.2347,3.2587,3.1926,3.0953,3.0259,3.0209,3.0095,2.9981,2.9905,2.9874,2.9822,2.911,2.806,2.7374,2.6745,2.5842,2.494,2.5001,2.5066,2.5574,2.6091,2.7172,2.8112,2.8722,2.9307,2.9791,2.9817,2.9573,2.9466,2.9285,2.882,2.8454,2.8003,2.7495,2.681,2.6255,2.062,2.0085,2.113,2.1559,2.1839,2.3378,2.3899,2.3586,2.4911,2.5179,2.4861,2.522,2.5473,2.5459,2.5367,2.5374,2.5511,2.5557,2.5591,2.5858,2.7223,2.7231,2.6702,2.6069,2.6089,2.6325,2.5928,2.5664,2.5652,2.573,2.5629,2.5704,2.5777,2.5543,2.5625,2.5823,2.6325,2.7346,2.803,2.8886,2.9842,3.0341,3.0662,3.063,3.0638,3.0697,3.0784,3.0789,3.0739,3.0689,3.0726,3.0782,3.0723,3.0681,3.0926,3.1416,3.165,3.1614,3.1399,3.1623,3.1506,3.0625,3.1295,3.1781,3.1238,3.167,3.2044,3.2426,3.2775,3.335,3.4277,3.4772,3.5013,3.5066,3.5114,3.5082,3.4833,3.4534,3.3758,3.2779,3.1993,3.1353,3.0335,3.0071,2.9996,2.9937,2.9857,2.9774,2.9719,2.9701,2.8951,2.7977,2.7563,2.705,2.6263,2.5549,2.5565,2.5609,2.5984,2.6564,2.7633,2.8266,2.879,2.9301,2.9761,2.9631,2.9271,2.8883,2.8681,2.8046,2.7466,2.7206,2.6815,2.6146,2.5706,2.0793,2.0202,2.1393,2.193,2.2259,2.3793,2.4428,2.4335,2.5084,2.5336,2.5091,2.5385,2.5505,2.5499,2.5404,2.5432,2.5628,2.6022,2.6238,2.6498,2.7315,2.7585,2.7357,2.6407,2.609,2.6699,2.6037,2.5805,2.6053,2.6174,2.6432,2.6748,2.6624,2.6701,2.6604,2.6587,2.711,2.7852,2.8502,2.9263,3.0033,3.0502,3.06,3.062,3.0639,3.067,3.0748,3.0722,3.0664,3.0691,3.0943,3.1142,3.1021,3.082,3.1102,3.2032,3.2826,3.2656,3.2369,3.2184,3.2095,3.1291,3.1993,3.2048,3.1952,3.2205,3.2572,3.2914,3.3221,3.3601,3.4509,3.4717,3.4793,3.4812,3.487,3.487,3.4661,3.4219,3.3547,3.2672,3.1847,3.1005,3.0319,2.9926,2.9769,2.9735,2.9699,2.9626,2.9608,2.9532,2.9083,2.839,2.8016,2.7473,2.6726,2.6314,2.6308,2.6384,2.6553,2.7187,2.8024,2.842,2.8758,2.9284,2.9771,2.9284,2.891,2.8501,2.7901,2.7092,2.6606,2.6501,2.6153,2.5467,2.5245,2.0929,2.0431,2.1981,2.2719,2.3152,2.4672,2.5265,2.5246,2.5546,2.5473,2.5449,2.5459,2.5532,2.5492,2.5451,2.5487,2.5824,2.6654,2.7036,2.6591,2.74,2.7644,2.7487,2.666,2.6345,2.6889,2.6062,2.6021,2.654,2.6831,2.6973,2.7771,2.7817,2.7508,2.7689,2.7753,2.7772,2.8183,2.8788,2.9385,2.979,3.03,3.0505,3.0472,3.0479,3.0502,3.0505,3.0496,3.0546,3.0636,3.1223,3.1603,3.1626,3.1364,3.1322,3.2847,3.3677,3.3579,3.2889,3.2707,3.2711,3.2534,3.2691,3.2598,3.2543,3.2675,3.307,3.3351,3.3646,3.3789,3.4536,3.4529,3.4569,3.4591,3.4591,3.4502,3.4349,3.4036,3.3295,3.2473,3.1398,3.0364,3.0011,2.968,2.9608,2.9513,2.9474,2.9399,2.9323,2.9361,2.8969,2.8595,2.8185,2.7662,2.6934,2.6767,2.6802,2.7028,2.7177,2.7624,2.8278,2.8633,2.8951,2.9345,2.9551,2.9082,2.854,2.8035,2.7269,2.627,2.5646,2.5449,2.5133,2.4744,2.4935,2.1389,2.1344,2.2274,2.3122,2.3953,2.5039,2.5141,2.4696,2.5398,2.5266,2.4786,2.5305,2.5584,2.5565,2.5522,2.5517,2.5871,2.6927,2.7147,2.6596,2.7505,2.8197,2.7137,2.684,2.6998,2.7233,2.6533,2.6222,2.6769,2.6796,2.7412,2.7717,2.7862,2.7809,2.7752,2.7592,2.8109,2.8626,2.9085,2.9555,3.0076,3.0269,3.0294,3.0171,3.0158,3.019,3.0203,3.0177,3.0261,3.0623,3.0801,3.1445,3.211,3.2353,3.2759,3.3279,3.3941,3.3978,3.3349,3.3599,3.3138,3.2646,3.3041,3.3415,3.3243,3.343,3.3773,3.396,3.411,3.4195,3.4307,3.4123,3.4093,3.4117,3.4049,3.3968,3.3938,3.3483,3.2916,3.2231,3.0977,2.9927,2.9833,2.9513,2.9155,2.8984,2.8872,2.8609,2.8327,2.8703,2.8967,2.8632,2.8259,2.7699,2.7103,2.7103,2.7158,2.7514,2.7708,2.7849,2.8412,2.879,2.9153,2.907,2.9099,2.8857,2.8296,2.7492,2.6618,2.556,2.4966,2.4417,2.4665,2.4874,2.5294,2.259,2.232,2.3113,2.3734,2.4325,2.5162,2.5351,2.5129,2.5488,2.5483,2.5272,2.5449,2.5604,2.5588,2.5571,2.5537,2.5944,2.7207,2.7237,2.6791,2.7299,2.7621,2.6819,2.6819,2.7004,2.7174,2.6878,2.7129,2.7951,2.7932,2.8184,2.8804,2.8845,2.8685,2.8623,2.8685,2.8821,2.9292,2.9545,2.9863,3.0332,3.0333,3.0157,2.9958,2.9984,3.0179,3.0487,3.036,3.0672,3.1223,3.1547,3.1935,3.2428,3.3035,3.3534,3.3721,3.408,3.4192,3.3836,3.4083,3.3751,3.3276,3.3753,3.3877,3.371,3.3846,3.4173,3.4173,3.4037,3.3961,3.3884,3.3561,3.3478,3.3478,3.3364,3.3364,3.3285,3.2657,3.2371,3.2066,3.1102,3.0318,2.9951,2.9498,2.8804,2.847,2.8285,2.7853,2.7385,2.8005,2.8623,2.86,2.832,2.8202,2.7659,2.7506,2.7365,2.7692,2.7858,2.8008,2.8202,2.8458,2.8317,2.8123,2.8187,2.8188,2.7128,2.6007,2.5399,2.4941,2.4392,2.4133,2.4703,2.5165,2.5497,2.3459,2.3245,2.3753,2.4209,2.4674,2.5304,2.562,2.5677,2.5662,2.5663,2.5673,2.5627,2.5609,2.5602,2.5586,2.5556,2.5592,2.6969,2.6978,2.6511,2.6601,2.6621,2.6674,2.6608,2.6764,2.7585,2.761,2.8354,2.8706,2.872,2.927,2.9516,2.9653,2.9625,2.9494,2.9252,2.9587,2.978,2.9969,3.0163,3.0216,3.0184,3.0009,2.9732,2.9799,3.0156,3.0693,3.0506,3.0921,3.1589,3.2035,3.2283,3.2475,3.3185,3.3655,3.3781,3.3993,3.4162,3.4123,3.4087,3.3975,3.3783,3.3899,3.3954,3.3954,3.3943,3.4016,3.3976,3.388,3.356,3.3299,3.2942,3.2805,3.2773,3.2709,3.261,3.2693,3.2468,3.2307,3.1846,3.1155,3.0723,3.0356,2.9734,2.9094,2.7683,2.7429,2.6804,2.6545,2.7493,2.8095,2.8364,2.8425,2.8571,2.833,2.7978,2.7705,2.7512,2.7508,2.7505,2.7705,2.7932,2.7655,2.7306,2.7031,2.6822,2.5642,2.4968,2.4842,2.4508,2.3876,2.3861,2.447,2.5041,2.5473,2.2838,2.4171,2.344,2.4046,2.541,2.5644,2.5641,2.5616,2.5618,2.5613,2.5629,2.5663,2.5634,2.5617,2.5589,2.5473,2.5649,2.6143,2.6266,2.5695,2.5975,2.6327,2.6448,2.5823,2.6937,2.7927,2.8275,2.8471,2.8646,2.866,2.8976,2.9362,2.9325,2.926,2.9357,2.9254,2.9251,2.9513,2.9678,2.9763,2.9727,2.9712,2.957,2.9488,2.9481,2.9872,3.0609,3.0562,3.0812,3.1809,3.1775,3.1852,3.2206,3.2577,3.2695,3.296,3.3413,3.4025,3.3778,3.3752,3.3752,3.3716,3.3762,3.3788,3.3762,3.386,3.3907,3.4082,3.3952,3.3454,3.2702,3.2073,3.2057,3.2022,3.1899,3.2074,3.2209,3.2106,3.1978,3.2051,3.1446,3.1103,3.0774,3.008,2.9307,2.7802,2.6507,2.5985,2.5908,2.6892,2.7778,2.8149,2.8196,2.833,2.8085,2.7868,2.7502,2.7217,2.7155,2.7023,2.7209,2.7285,2.6891,2.6552,2.6276,2.6,2.5386,2.4915,2.4605,2.4124,2.3531,2.3759,2.4276,2.4813,2.5258,2.3909,2.5047,2.4184,2.4509,2.5581,2.5642,2.5613,2.56,2.5605,2.56,2.56,2.5626,2.5621,2.5626,2.5885,2.5754,2.5497,2.5844,2.5696,2.5038,2.5289,2.5728,2.6187,2.6278,2.7139,2.7845,2.8627,2.8307,2.8284,2.8518,2.9045,2.8572,2.8827,2.9016,2.9082,2.9034,2.9166,2.9395,2.957,2.957,2.9457,2.9358,2.9397,2.9757,2.9604,3.021,3.0951,3.1121,3.1314,3.2058,3.1876,3.176,3.2039,3.2336,3.2475,3.2021,3.2503,3.2907,3.3051,3.313,3.313,3.3118,3.3166,3.3196,3.3273,3.3408,3.3379,3.3176,3.3112,3.276,3.2263,3.1683,3.1551,3.1511,3.1325,3.1456,3.1679,3.1623,3.1537,3.1669,3.1708,3.1284,3.0744,2.991,2.9158,2.814,2.6909,2.6179,2.6058,2.6526,2.7361,2.8076,2.8022,2.7939,2.7531,2.7195,2.6681,2.6455,2.6691,2.6623,2.6704,2.6642,2.6532,2.6212,2.5957,2.5614,2.5141,2.4378,2.3621,2.3395,2.3204,2.3528,2.3888,2.416,2.4666,2.4768,2.5568,2.4686,2.4793,2.5538,2.5561,2.5574,2.557,2.558,2.558,2.5563,2.5543,2.5505,2.5561,2.5784,2.5558,2.5006,2.5374,2.5091,2.4682,2.4607,2.5105,2.5804,2.6441,2.6883,2.7213,2.7744,2.768,2.7414,2.768,2.816,2.7677,2.8276,2.8634,2.8761,2.8797,2.897,2.9675,2.9764,2.9688,2.9484,2.9205,2.9387,2.9657,3.0007,3.0513,3.1657,3.151,3.1588,3.2089,3.1844,3.1623,3.1671,3.1975,3.1866,3.1466,3.156,3.1723,3.1987,3.2177,3.2348,3.2466,3.2583,3.2777,3.2777,3.2858,3.2902,3.2663,3.2564,3.2247,3.1746,3.1351,3.1207,3.1128,3.0958,3.1072,3.1151,3.1196,3.1334,3.1531,3.1485,3.1086,3.0465,2.9644,2.8922,2.8271,2.74,2.6539,2.6667,2.7011,2.7619,2.85,2.8129,2.7853,2.7161,2.6673,2.6087,2.5812,2.6033,2.6208,2.6351,2.6702,2.6879,2.644,2.5915,2.5235,2.4774,2.365,2.2659,2.2816,2.2998,2.3144,2.3409,2.3801,2.4339,2.4709,2.5532,2.4554,2.4636,2.5425,2.5495,2.5515,2.5488,2.5492,2.5511,2.548,2.5371,2.529,2.5255,2.5134,2.4912,2.4388,2.4281,2.4174,2.4062,2.4044,2.4709,2.5478,2.6139,2.6547,2.6709,2.6674,2.6266,2.6267,2.673,2.7121,2.7205,2.77,2.8156,2.8376,2.842,2.9039,2.9672,2.9834,2.9704,2.9522,2.9323,2.9239,2.9289,2.9708,3.0356,3.1278,3.1077,3.1133,3.188,3.1507,3.1218,3.119,3.1421,3.119,3.0516,3.0344,3.0432,3.0593,3.1373,3.2004,3.2161,3.2316,3.2366,3.223,3.2482,3.2525,3.2296,3.209,3.1777,3.1286,3.094,3.0808,3.0758,3.0675,3.0733,3.0855,3.1015,3.1157,3.1351,3.1125,3.061,3.0308,2.9482,2.9228,2.8679,2.853,2.7741,2.8081,2.8397,2.8624,2.8949,2.8434,2.7862,2.6969,2.6363,2.5842,2.56,2.5681,2.5856,2.603,2.6488,2.75,2.6848,2.6286,2.5341,2.4419,2.3695,2.3112,2.2821,2.2762,2.2976,2.391,2.4842,2.5172,2.4918,2.5197,2.4898,2.5041,2.5451,2.5369,2.5312,2.5312,2.5313,2.5313,2.5312,2.5226,2.5118,2.4969,2.4671,2.4439,2.4133,2.3812,2.3707,2.3746,2.3917,2.4498,2.5114,2.5264,2.5263,2.555,2.5107,2.4665,2.4698,2.5737,2.612,2.6457,2.7091,2.7566,2.7826,2.8164,2.8953,2.9461,2.9347,2.8855,2.9329,2.8898,2.8889,2.954,2.9934,3.0664,3.1394,3.1286,3.1253,3.1138,3.0925,3.0699,3.0493,3.0684,3.0243,2.9318,2.9129,2.901,2.9389,3.0301,3.1111,3.1325,3.1551,3.1699,3.1514,3.1645,3.149,3.1387,3.1365,3.1103,3.0692,3.0434,3.0384,3.041,3.041,3.0468,3.0551,3.0716,3.053,3.0572,3.0269,2.9856,2.9588,2.9349,2.9259,2.917,2.9098,2.9101,2.9357,2.935,2.9401,2.9177,2.8646,2.7496,2.6559,2.6025,2.5582,2.5456,2.5401,2.5729,2.6198,2.7617,2.827,2.7531,2.6882,2.6293,2.5449,2.4308,2.3536,2.3045,2.2856,2.285,2.4081,2.5575,2.5751,2.5027,2.508,2.5077,2.5194,2.5387,2.5244,2.5184,2.5154,2.5107,2.5053,2.5053,2.4943,2.4801,2.4614,2.4255,2.3929,2.3663,2.3392,2.3277,2.3294,2.3476,2.401,2.433,2.4433,2.434,2.4392,2.4277,2.3957,2.4281,2.5029,2.5618,2.6111,2.655,2.6982,2.7557,2.8152,2.8956,2.9382,2.9151,2.8461,2.9123,2.876,2.8715,2.9592,3.0074,3.0544,3.093,3.0819,3.0533,3.0344,3.014,2.9941,2.987,2.9733,2.9376,2.8545,2.7776,2.7684,2.8513,2.9421,3.0351,3.073,3.0891,3.0851,3.0788,3.0891,3.0868,3.0252,3.0326,3.0333,3.0038,3.0005,3.0021,3.0081,3.0215,3.0258,3.03,3.0393,3.0005,2.9739,2.9417,2.9185,2.845,2.8345,2.9019,2.9347,2.9995,3.0029,3.015,3.0014,2.9621,2.9256,2.8727,2.7349,2.6002,2.626,2.6349,2.558,2.5603,2.602,2.6736,2.8066,2.8702,2.7993,2.7496,2.73,2.6378,2.511,2.4056,2.3169,2.3207,2.3354,2.3961,2.5246,2.5615,2.4924,2.5226,2.4949,2.4981,2.5192,2.5138,2.5096,2.5022,2.4839,2.4747,2.4674,2.446,2.4316,2.4154,2.3808,2.3427,2.31,2.285,2.2781,2.2833,2.301,2.3265,2.3499,2.3678,2.3571,2.3369,2.3249,2.348,2.4333,2.4264,2.4911,2.5791,2.6139,2.6417,2.719,2.8724,2.9565,2.9617,2.9425,2.8853,2.8697,2.8516,2.8707,2.8998,2.97,3.017,3.021,2.9946,2.9657,2.948,2.9361,2.9088,2.8685,2.9261,2.895,2.785,2.6871,2.7118,2.8341,2.9284,2.9865,3.0225,3.0377,3.0377,3.0502,3.0526,3.0352,2.9735,2.9729,2.9718,2.9632,2.9592,2.9641,2.9685,2.9761,2.9702,2.9697,2.9664,2.9251,2.8746,2.8722,2.8527,2.7604,2.7251,2.8366,2.9291,3.047,3.0824,3.0622,3.0442,2.9878,2.9332,2.8727,2.7673,2.6687,2.7138,2.7089,2.6147,2.5762,2.6102,2.6671,2.7644,2.8011,2.8038,2.7982,2.7646,2.6809,2.5848,2.48,2.3907,2.4011,2.4237,2.4623,2.4984,2.5491,2.4818,2.4975,2.4949,2.4917,2.493,2.4864,2.4823,2.4704,2.4383,2.4227,2.4263,2.4155,2.4042,2.3837,2.3477,2.3067,2.2703,2.259,2.2542,2.2721,2.285,2.3151,2.3324,2.3253,2.3,2.2643,2.2415,2.2672,2.3403,2.3495,2.4301,2.5206,2.5546,2.5921,2.6452,2.7249,2.7398,2.8066,2.7498,2.6801,2.7462,2.7483,2.7541,2.7726,2.871,2.9281,2.9297,2.8917,2.8779,2.8592,2.8482,2.8321,2.8027,2.8541,2.7984,2.7245,2.6602,2.7601,2.8432,2.9044,2.9409,2.9722,2.9881,2.9837,2.9705,2.9924,2.9701,2.9444,2.9287,2.9307,2.9332,2.9164,2.9102,2.9007,2.8958,2.8666,2.855,2.8578,2.8339,2.7796,2.754,2.732,2.6655,2.6726,2.7639,2.8029,2.8942,2.9712,2.9719,3.0096,2.9922,2.9321,2.8707,2.7818,2.7268,2.7219,2.6964,2.6065,2.5835,2.6056,2.669,2.7326,2.7382,2.742,2.7739,2.7937,2.6778,2.5747,2.5233,2.4764,2.4437,2.4238,2.4345,2.4916,2.5712,2.4704,2.4837,2.4832,2.4752,2.464,2.4629,2.4522,2.4265,2.3905,2.3785,2.3848,2.3744,2.3574,2.3392,2.3063,2.2669,2.2341,2.2398,2.2388,2.2624,2.285,2.3028,2.3112,2.3153,2.3152,2.2609,2.2391,2.2555,2.3023,2.3189,2.3971,2.4719,2.4799,2.4973,2.5422,2.5702,2.6189,2.6683,2.6147,2.5799,2.619,2.6366,2.6557,2.7079,2.7719,2.8186,2.8123,2.8025,2.7826,2.7573,2.7504,2.7575,2.7464,2.7554,2.7232,2.6952,2.7089,2.7875,2.8398,2.8669,2.8997,2.9213,2.9425,2.947,2.9305,2.956,2.9307,2.9032,2.8849,2.8478,2.82,2.8093,2.7952,2.7781,2.7845,2.7565,2.7488,2.7473,2.7488,2.6884,2.6907,2.6495,2.6303,2.642,2.6953,2.713,2.734,2.8054,2.8836,2.9271,2.9381,2.876,2.8378,2.7655,2.7042,2.6772,2.6395,2.5889,2.5901,2.599,2.6329,2.6826,2.6807,2.6835,2.7106,2.7078,2.6269,2.5488,2.482,2.4344,2.4024,2.3931,2.3983,2.4595,2.5361,2.4642,2.4827,2.4594,2.4405,2.4298,2.4298,2.4081,2.3674,2.3482,2.3455,2.3477,2.3189,2.3076,2.2898,2.2527,2.2198,2.1998,2.2203,2.2215,2.2281,2.2473,2.2738,2.3128,2.3429,2.326,2.319,2.2872,2.236,2.2881,2.286,2.3483,2.4151,2.3903,2.383,2.3967,2.418,2.4868,2.5134,2.5165,2.4898,2.5068,2.5342,2.5679,2.6153,2.6591,2.6663,2.6651,2.6553,2.628,2.6141,2.6147,2.6318,2.6683,2.729,2.7231,2.7114,2.7115,2.761,2.822,2.8446,2.8558,2.8794,2.8999,2.9215,2.9178,2.8989,2.8614,2.8162,2.7839,2.7101,2.6489,2.6361,2.6251,2.6378,2.6582,2.6489,2.6385,2.64,2.6449,2.6456,2.6834,2.6796,2.7001,2.7068,2.6955,2.663,2.6759,2.6776,2.7543,2.8387,2.8359,2.7685,2.7387,2.7355,2.6856,2.6318,2.6034,2.5589,2.568,2.5791,2.6134,2.6293,2.6319,2.6389,2.6526,2.6294,2.5608,2.4904,2.4164,2.3837,2.3743,2.3688,2.3769,2.3902,2.4441,2.4265,2.4391,2.4321,2.408,2.3723,2.3356,2.3248,2.3324,2.3342,2.3236,2.3056,2.2975,2.2912,2.2933,2.2685,2.2344,2.2164,2.2068,2.1982,2.2039,2.2147,2.2495,2.2786,2.3033,2.3076,2.285,2.2465,2.2032,2.2011,2.2149,2.2327,2.2731,2.2788,2.2441,2.2128,2.1971,2.2987,2.3703,2.3836,2.3807,2.3852,2.3999,2.4347,2.4509,2.4751,2.4704,2.4654,2.4745,2.4579,2.4808,2.5254,2.5617,2.6096,2.6683,2.6797,2.6283,2.6385,2.6834,2.7825,2.8488,2.8629,2.8385,2.8606,2.8527,2.842,2.8152,2.7796,2.7501,2.7224,2.6688,2.589,2.5457,2.5369,2.5535,2.5716,2.5749,2.572,2.58,2.585,2.6291,2.6644,2.7265,2.7437,2.762,2.7391,2.6735,2.63,2.6125,2.6277,2.7083,2.7285,2.6659,2.6483,2.6488,2.6194,2.5654,2.5552,2.5416,2.5458,2.5513,2.5754,2.586,2.5852,2.5603,2.5287,2.5222,2.5111,2.4343,2.3499,2.3758,2.3733,2.3614,2.3553,2.3711,2.3839,2.3963,2.3981,2.3941,2.3714,2.3312,2.2952,2.2833,2.2935,2.2927,2.2799,2.2677,2.2746,2.2772,2.2721,2.2617,2.2497,2.2315,2.219,2.207,2.2087,2.1897,2.2099,2.2314,2.2719,2.2817,2.2503,2.2087,2.1765,2.1414,2.1341,2.151,2.2168,2.1852,2.1259,2.1006,2.097,2.1286,2.1955,2.2388,2.242,2.2559,2.2706,2.2664,2.2677,2.2824,2.2804,2.2812,2.2977,2.3205,2.3299,2.3716,2.4463,2.5053,2.573,2.5675,2.5258,2.5506,2.6354,2.7447,2.7698,2.7964,2.8081,2.8156,2.7655,2.7598,2.7485,2.7318,2.7149,2.6919,2.6519,2.5601,2.4852,2.4826,2.4861,2.4968,2.5121,2.523,2.5311,2.5683,2.6118,2.6722,2.7379,2.7767,2.7997,2.7737,2.693,2.6089,2.5436,2.5451,2.5811,2.6,2.5654,2.5637,2.5638,2.5287,2.4964,2.4906,2.4845,2.5037,2.5169,2.5378,2.5169,2.491,2.4322,2.3732,2.3718,2.3835,2.3472,2.2894,2.3247,2.3553,2.3422,2.3378,2.3538,2.3711,2.3678,2.3631,2.3459,2.3224,2.2993,2.2807,2.2634,2.2449,2.2343,2.2361,2.2451,2.2487,2.2576,2.2696,2.2549,2.2574,2.2468,2.2362,2.2316,2.2329,2.1842,2.1854,2.228,2.2818,2.2433,2.2056,2.169,2.1344,2.0784,2.0592,2.0899,2.1796,2.0953,2.0346,2.0194,2.0003,2.0245,2.0733,2.1015,2.1064,2.1492,2.1601,2.1578,2.172,2.1701,2.1652,2.1668,2.1811,2.1951,2.1794,2.2242,2.3334,2.4215,2.4762,2.4502,2.4392,2.4706,2.5993,2.6935,2.7321,2.7652,2.7753,2.763,2.7223,2.7158,2.7345,2.7321,2.6881,2.662,2.6359,2.5567,2.518,2.5064,2.5227,2.5411,2.548,2.5563,2.5953,2.664,2.7055,2.7439,2.8096,2.862,2.8841,2.8259,2.724,2.6165,2.5315,2.4774,2.4869,2.467,2.4556,2.4513,2.4447,2.4147,2.3921,2.4116,2.423,2.442,2.4695,2.4815,2.4436,2.3879,2.3319,2.2749,2.2491,2.2376,2.2339,2.2615,2.2942,2.3154,2.3141,2.3216,2.3407,2.348,2.3364,2.3189,2.2721,2.2368,2.2198,2.2084,2.2056,2.2039,2.2015,2.2379,2.2786,2.249,2.2638,2.321,2.2502,2.2425,2.2768,2.2503,2.2556,2.22,2.1713,2.1421,2.1802,2.1892,2.1777,2.1642,2.1312,2.0734,2.0019,1.9743,1.9667,1.9889,1.9527,1.9423,1.9174,1.9028,1.9162,1.9567,1.9577,2.0003,2.0638,2.0799,2.0828,2.0616,2.0438,2.0498,2.0602,2.0896,2.1412,2.185,2.2852,2.3813,2.47,2.4563,2.4249,2.3892,2.4288,2.5615,2.6863,2.7286,2.7527,2.7869,2.784,2.7468,2.7329,2.746,2.7315,2.6852,2.6505,2.625,2.5873,2.5666,2.5439,2.567,2.5922,2.6013,2.6077,2.6773,2.7555,2.7904,2.8271,2.8769,2.9288,2.9202,2.8622,2.7688,2.6443,2.5409,2.4432,2.4089,2.3585,2.3408,2.3304,2.3184,2.2934,2.3068,2.3319,2.345,2.3623,2.3937,2.4261,2.3709,2.3113,2.2455,2.1927,2.1813,2.1888,2.2152,2.2399,2.2752,2.2933,2.3037,2.3082,2.3246,2.3319,2.2738,2.2485,2.2192,2.1895,2.1675,2.1615,2.1554,2.1448,2.157,2.2223,2.2993,2.2588,2.2772,2.3608,2.2832,2.2576,2.2947,2.2508,2.2104,2.1744,2.1314,2.079,2.0846,2.0965,2.0626,2.0506,2.0324,1.9777,1.9217,1.9233,1.9265,1.8927,1.8685,1.8309,1.8061,1.7929,1.7972,1.8232,1.823,1.8826,1.9723,1.9793,1.9592,1.9267,1.9364,1.958,1.9976,2.0241,2.0706,2.1436,2.2305,2.3134,2.378,2.3936,2.406,2.4164,2.4669,2.5477,2.6909,2.746,2.7492,2.7935,2.7451,2.6835,2.7207,2.7398,2.805,2.7769,2.8375,2.8225,2.7135,2.668,2.6144,2.6017,2.6524,2.6823,2.6776,2.7015,2.7541,2.7861,2.8136,2.8423,2.8839,2.9013,2.8326,2.7333,2.6195,2.5216,2.4271,2.3743,2.3105,2.2637,2.2719,2.2455,2.2342,2.2434,2.2618,2.2754,2.2979,2.3157,2.3406,2.2846,2.23,2.1677,2.1342,2.1417,2.1541,2.1983,2.2417,2.2797,2.2933,2.2978,2.3023,2.3023,2.2963,2.201,2.1751,2.1735,2.1584,2.1276,2.1244,2.1103,2.0925,2.1135,2.1924,2.281,2.2358,2.2912,2.3431,2.3419,2.3276,2.3054,2.2643,2.1989,2.1347,2.058,2.0343,2.0167,2.0091,1.984,1.9488,1.9239,1.9046,1.8731,1.8766,1.859,1.834,1.7863,1.7279,1.7157,1.6978,1.6912,1.7155,1.7386,1.7873,1.8318,1.8724,1.8748,1.872,1.8785,1.9372,1.9708,2.0057,2.031,2.0976,2.1891,2.253,2.2955,2.3207,2.3901,2.4166,2.4343,2.5781,2.7283,2.6972,2.7571,2.7803,2.6862,2.6596,2.691,2.7371,2.8029,2.8684,2.9232,2.9392,2.8282,2.7253,2.6672,2.6592,2.7161,2.766,2.7493,2.7462,2.7806,2.8042,2.813,2.836,2.8536,2.8706,2.7896,2.6886,2.5923,2.4863,2.4077,2.3942,2.3579,2.3083,2.2825,2.2477,2.1945,2.1935,2.217,2.2449,2.2678,2.2663,2.2466,2.188,2.1293,2.0832,2.0646,2.1042,2.1527,2.1969,2.2356,2.2843,2.2888,2.2888,2.2706,2.2661,2.2509,2.1708,2.1371,2.1182,2.1007,2.0877,2.0679,2.0663,2.0827,2.1006,2.1552,2.2128,2.1875,2.2215,2.3637,2.3229,2.2929,2.2556,2.2446,2.2458,2.1992,2.0707,2.0204,1.9781,1.9469,1.9338,1.9019,1.8626,1.8348,1.8137,1.7924,1.76,1.7324,1.6866,1.6539,1.6539,1.6368,1.6379,1.6608,1.6859,1.7391,1.8057,1.8589,1.9107,1.9282,1.9569,1.9985,2.0382,2.0875,2.1356,2.1801,2.2019,2.225,2.2347,2.2481,2.3096,2.3967,2.413,2.5402,2.6413,2.6283,2.6826,2.7189,2.6479,2.6123,2.6479,2.6724,2.7382,2.7994,2.8652,2.9397,2.8657,2.7393,2.6679,2.739,2.8012,2.8184,2.818,2.8443,2.8736,2.8655,2.8495,2.8758,2.9056,2.8656,2.7586,2.6725,2.6251,2.5321,2.4905,2.4542,2.4068,2.3605,2.3142,2.2301,2.1703,2.1691,2.1841,2.2123,2.2245,2.2099,2.1643,2.0832,2.0308,2.031,2.0625,2.1042,2.1479,2.1969,2.2449,2.2888,2.2888,2.2843,2.2555,2.2231,2.2063]},{"header":{"parameterUnit":"m.s-1","parameterCategory":1,"la1":31.0,"la2":29.5877,"lo1":-88.7671,"lo2":-86.6584,"dy":0.0162,"dx":0.0185,"nx":115,"ny":88,"refTime":"2023-09-23T06:00:00:Z","depth":0,"parameterNumber":3,"parameterNumberName":"V-component_of_WINDS"},"data":[0.0,0.0,0.0,0.0,0.0,0.0,0.0,0.0,0.0,0.0,0.0,0.0,0.0,0.0,0.0,0.0,0.0,0.0,0.0,0.0,0.0,0.0,0.0,0.0,0.0,0.0,0.0,0.0,0.0,0.0,0.0,0.0,0.0,0.0,0.0,0.0,0.0,0.0,0.0,0.0,0.0,0.0,0.0,0.0,0.0,0.0,0.0,0.0,0.0,0.0,0.0,0.0,0.0,0.0,0.0,0.0,0.0,0.0,0.0,0.0,0.0,0.0,0.0,0.0,0.0,0.0,0.0,0.0,0.0,0.0,0.0,0.0,0.0,0.0,0.0,0.0,0.0,0.0,0.0,0.0,0.0,0.0,0.0,0.0,0.0,0.0,0.0,0.0,0.0,0.0,0.0,0.0,0.0,0.0,0.0,0.0,0.0,0.0,0.0,0.0,0.0,0.0,0.0,0.0,0.0,0.0,0.0,0.0,0.0,0.0,0.0,0.0,0.0,0.0,0.0,0.0,0.0,0.0,0.0,0.0,0.0,0.0,0.0,0.0,0.0,0.0,0.0,0.0,0.0,0.0,0.0,0.0,0.0,0.0,0.0,0.0,0.0,0.0,0.0,0.0,0.0,0.0,0.0,0.0,0.0,0.0,0.0,0.0,0.0,0.0,0.0,0.0,0.0,0.0,0.0,0.0,0.0,0.0,0.0,0.0,0.0,0.0,0.0,0.0,0.0,0.0,0.0,0.0,0.0,0.0,0.0,0.0,0.0,0.0,0.0,0.0,0.0,0.0,0.0,0.0,0.0,0.0,0.0,0.0,0.0,0.0,0.0,0.0,0.0,0.0,0.0,0.0,0.0,0.0,0.0,0.0,0.0,0.0,0.0,0.0,0.0,0.0,0.0,0.0,0.0,0.0,0.0,0.0,0.0,0.0,0.0,0.0,0.0,0.0,0.0,0.0,0.0,0.0,0.0,0.0,0.0,0.0,0.0,0.0,0.0,0.0,0.0,0.0,0.0,0.0,0.0,0.0,0.0,0.0,0.0,0.0,0.0,0.0,0.0,0.0,0.0,0.0,0.0,0.0,0.0,0.0,0.0,0.0,0.0,0.0,0.0,0.0,0.0,0.0,0.0,0.0,0.0,0.0,0.0,0.0,0.0,0.0,0.0,0.0,0.0,0.0,0.0,0.0,0.0,0.0,0.0,0.0,0.0,0.0,0.0,0.0,0.0,0.0,0.0,0.0,0.0,0.0,0.0,0.0,0.0,0.0,0.0,0.0,0.0,0.0,0.0,0.0,0.0,0.0,0.0,0.0,0.0,0.0,0.0,0.0,0.0,0.0,0.0,0.0,0.0,0.0,0.0,0.0,0.0,0.0,0.0,0.0,0.0,0.0,0.0,0.0,0.0,0.0,0.0,0.0,0.0,0.0,0.0,0.0,0.0,0.0,0.0,0.0,0.0,0.0,0.0,0.0,0.0,0.0,0.0,0.0,0.0,0.0,0.0,0.0,0.0,0.0,0.0,0.0,0.0,0.0,0.0,0.0,0.0,0.0,0.0,0.0,0.0,0.0,0.0,0.0,0.0,0.0,0.0,0.0,0.0,0.0,0.0,0.0,0.0,0.0,0.0,0.0,0.0,0.0,0.0,0.0,0.0,0.0,0.0,0.0,0.0,0.0,0.0,0.0,0.0,0.0,0.0,0.0,0.0,0.0,0.0,0.0,0.0,0.0,0.0,0.0,0.0,0.0,0.0,0.0,0.0,0.0,0.0,0.0,0.0,0.0,0.0,0.0,0.0,0.0,0.0,0.0,0.0,0.0,0.0,0.0,0.0,0.0,0.0,0.0,0.0,0.0,0.0,0.0,0.0,0.0,0.0,0.0,0.0,0.0,0.0,0.0,0.0,0.0,0.0,0.0,0.0,0.0,0.0,0.0,0.0,0.0,0.0,0.0,0.0,0.0,0.0,0.0,0.0,0.0,0.0,0.0,0.0,0.0,0.0,0.0,0.0,0.0,0.0,0.0,0.0,0.0,0.0,0.0,0.0,0.0,0.0,0.0,0.0,0.0,0.0,0.0,0.0,0.0,0.0,0.0,0.0,0.0,0.0,0.0,0.0,0.0,0.0,0.0,0.0,0.0,0.0,0.0,0.0,0.0,0.0,0.0,0.0,0.0,0.0,0.0,0.0,0.0,0.0,0.0,0.0,0.0,0.0,0.0,0.0,0.0,0.0,0.0,0.0,0.0,0.0,0.0,0.0,0.0,0.0,0.0,0.0,0.0,0.0,0.0,0.0,0.0,0.0,0.0,0.0,0.0,0.0,0.0,0.0,0.0,0.0,0.0,0.0,0.0,0.0,0.0,0.0,0.0,0.0,0.0,0.0,0.0,0.0,0.0,0.0,0.0,0.0,0.0,0.0,0.0,0.0,0.0,0.0,0.0,0.0,0.0,0.0,0.0,0.0,0.0,0.0,0.0,0.0,0.0,0.0,0.0,0.0,0.0,0.0,0.0,0.0,0.0,0.0,0.0,0.0,0.0,0.0,0.0,0.0,0.0,0.0,0.0,0.0,0.0,0.0,0.0,0.0,0.0,0.0,0.0,0.0,0.0,0.0,0.0,0.0,0.0,0.0,0.0,0.0,0.0,0.0,0.0,0.0,0.0,0.0,0.0,0.0,0.0,0.0,0.0,0.0,0.0,0.0,0.0,0.0,0.0,0.0,0.0,0.0,0.0,0.0,0.0,0.0,0.0,0.0,0.0,0.0,0.0,0.0,0.0,0.0,0.0,0.0,0.0,0.0,0.0,0.0,0.0,0.0,0.0,0.0,0.0,0.0,0.0,0.0,0.0,0.0,0.0,0.0,0.0,0.0,0.0,0.0,0.0,0.0,0.0,0.0,0.0,0.0,0.0,0.0,0.0,0.0,0.0,0.0,0.0,0.0,0.0,0.0,0.0,0.0,0.0,0.0,0.0,0.0,0.0,0.0,0.0,0.0,0.0,0.0,0.0,0.0,0.0,0.0,0.0,0.0,0.0,0.0,0.0,0.0,0.0,0.0,0.0,0.0,0.0,0.0,0.0,0.0,0.0,0.0,0.0,0.0,0.0,0.0,0.0,0.0,0.0,0.0,0.0,0.0,0.0,0.0,0.0,0.0,0.0,0.0,0.0,0.0,0.0,0.0,0.0,0.0,0.0,0.0,0.0,0.0,0.0,0.0,0.0,0.0,0.0,0.0,0.0,0.0,0.0,0.0,0.0,0.0,0.0,0.0,0.0,0.0,0.0,0.0,0.0,0.0,0.0,0.0,0.0,0.0,0.0,0.0,0.0,0.0,0.0,0.0,0.0,0.0,0.0,0.0,0.0,0.0,0.0,0.0,0.0,0.0,0.0,0.0,0.0,0.0,0.0,0.0,0.0,0.0,0.0,0.0,0.0,0.0,0.0,0.0,0.0,0.0,0.0,0.0,0.0,0.0,0.0,0.0,0.0,0.0,0.0,0.0,0.0,0.0,0.0,0.0,0.0,0.0,0.0,0.0,0.0,0.0,0.0,0.0,0.0,0.0,0.0,0.0,0.0,0.0,0.0,0.0,0.0,0.0,0.0,0.0,0.0,0.0,0.0,0.0,0.0,0.0,0.0,0.0,0.0,0.0,0.0,0.0,0.0,0.0,0.0,0.0,0.0,0.0,0.0,0.0,0.0,0.0,0.0,0.0,0.0,0.0,0.0,0.0,0.0,0.0,0.0,0.0,0.0,0.0,0.0,0.0,0.0,0.0,0.0,0.0,0.0,0.0,0.0,0.0,0.0,0.0,0.0,0.0,0.0,0.0,0.0,0.0,0.0,0.0,0.0,0.0,0.0,0.0,0.0,0.0,0.0,0.0,0.0,0.0,0.0,0.0,0.0,0.0,0.0,0.0,0.0,0.0,0.0,0.0,0.0,0.0,0.0,0.0,0.0,0.0,0.0,0.0,0.0,0.0,0.0,0.0,0.0,0.0,0.0,0.0,0.0,0.0,0.0,0.0,0.0,0.0,0.0,0.0,0.0,0.0,0.0,0.0,0.0,0.0,0.0,0.0,0.0,0.0,0.0,0.0,0.0,0.0,0.0,0.0,0.0,0.0,0.0,0.0,0.0,0.0,0.0,0.0,0.0,0.0,0.0,0.0,0.0,0.0,0.0,0.0,0.0,0.0,0.0,0.0,0.0,0.0,0.0,0.0,0.0,0.0,0.0,0.0,0.0,0.0,0.0,0.0,0.0,0.0,0.0,0.0,0.0,0.0,0.0,-0.6598,0.0,0.0,0.0,0.0,0.0,0.0,0.0,0.0,0.0,0.0,0.0,0.0,0.0,0.0,0.0,0.0,0.0,0.0,0.0,0.0,0.0,0.0,0.0,0.0,0.0,0.0,0.0,0.0,0.0,0.0,0.0,0.0,0.0,0.0,0.0,0.0,0.0,0.0,0.0,0.0,0.0,0.0,0.0,0.0,0.0,0.0,0.0,0.0,0.0,0.0,0.0,0.0,0.0,0.0,0.0,0.0,0.0,0.0,0.0,0.0,0.0,0.0,0.0,0.0,0.0,0.0,0.0,0.0,0.0,0.0,0.0,0.0,0.0,0.0,0.0,0.0,0.0,0.0,0.0,0.0,0.0,0.0,0.0,0.0,0.0,0.0,0.0,0.0,0.0,0.0,0.0,0.0,0.0,0.0,0.0,0.0,0.0,0.0,0.0,0.0,0.0,0.0,0.0,0.0,0.0,0.0,0.0,0.0,0.0,0.0,-0.7213,-0.6382,-0.7105,-0.7309,-0.6892,0.0,0.0,0.0,0.0,0.0,0.0,0.0,0.0,0.0,0.0,0.0,0.0,0.0,0.0,0.0,0.0,0.0,0.0,0.0,0.0,0.0,0.0,0.0,0.0,0.0,0.0,0.0,0.0,0.0,0.0,0.0,0.0,0.0,0.0,0.0,0.0,0.0,0.0,0.0,0.0,0.0,0.0,0.0,0.0,0.0,0.0,0.0,0.0,0.0,0.0,0.0,0.0,0.0,0.0,0.0,0.0,0.0,0.0,0.0,0.0,0.0,0.0,0.0,0.0,0.0,0.0,0.0,0.0,0.0,0.0,0.0,0.0,0.0,0.0,0.0,0.0,0.0,0.0,0.0,0.0,0.0,0.0,0.0,0.0,0.0,0.0,0.0,0.0,0.0,0.0,0.0,0.0,0.0,0.0,0.0,0.0,0.0,0.0,0.0,0.0,0.0,0.0,0.0,0.0,0.0,0.0,0.0,0.0,0.0,0.0,0.0,0.0,-0.7354,-0.7447,-0.7196,0.0,0.0,0.0,0.0,0.0,0.0,0.0,0.0,0.0,0.0,0.0,0.0,0.0,0.0,0.0,0.0,0.0,0.0,0.0,0.0,0.0,0.0,0.0,0.0,0.0,0.0,0.0,0.0,0.0,0.0,0.0,0.0,0.0,0.0,0.0,0.0,0.0,0.0,0.0,0.0,0.0,0.0,0.0,0.0,0.0,0.0,0.0,0.0,0.0,0.0,0.0,0.0,0.0,0.0,0.0,0.0,0.0,0.0,0.0,0.0,0.0,0.0,0.0,0.0,0.0,0.0,0.0,0.0,0.0,0.0,0.0,0.0,0.0,0.0,0.0,0.0,0.0,0.0,0.0,0.0,0.0,0.0,0.0,0.0,0.0,0.0,0.0,0.0,0.0,0.0,0.0,0.0,0.0,0.0,0.0,0.0,0.0,0.0,0.0,0.0,0.0,0.0,0.0,0.0,0.0,0.0,0.0,0.0,0.0,0.0,-0.8285,-0.8084,-0.8089,0.0,-0.7671,0.0,0.0,0.0,0.0,0.0,0.0,0.0,0.0,0.0,0.0,0.0,0.0,0.0,0.0,0.0,0.0,0.0,0.0,0.0,0.0,0.0,0.0,0.0,0.0,0.0,0.0,0.0,0.0,0.0,0.0,0.0,0.0,0.0,0.0,0.0,0.0,0.0,0.0,0.0,0.0,0.0,0.0,0.0,0.0,0.0,0.0,0.0,0.0,0.0,0.0,0.0,0.0,0.0,0.0,0.0,0.0,0.0,0.0,0.0,0.0,0.0,0.0,0.0,0.0,0.0,0.0,0.0,0.0,0.0,0.0,0.0,0.0,0.0,0.0,0.0,0.0,0.0,0.0,0.0,0.0,0.0,0.0,0.0,0.0,0.0,0.0,0.0,0.0,0.0,0.0,0.0,0.0,0.0,0.0,0.0,0.0,0.0,0.0,0.0,0.0,0.0,0.0,0.0,0.0,0.0,0.0,0.0,0.0,0.0,0.0,-0.8324,-0.8623,-0.85,-0.8182,0.0,0.0,0.0,0.0,0.0,0.0,0.0,0.0,0.0,0.0,0.0,0.0,0.0,0.0,0.0,0.0,0.0,0.0,0.0,0.0,0.0,0.0,0.0,0.0,0.0,0.0,0.0,0.0,0.0,0.0,0.0,0.0,0.0,0.0,0.0,0.0,0.0,0.0,0.0,0.0,0.0,0.0,0.0,0.0,0.0,0.0,0.0,0.0,0.0,0.0,0.0,0.0,0.0,0.0,0.0,0.0,0.0,0.0,0.0,0.0,0.0,0.0,0.0,0.0,0.0,0.0,0.0,0.0,0.0,0.0,0.0,0.0,0.0,0.0,0.0,0.0,0.0,0.0,0.0,0.0,0.0,0.0,0.0,0.0,0.0,0.0,0.0,0.0,0.0,0.0,0.0,0.0,0.0,0.0,0.0,0.0,0.0,0.0,0.0,0.0,0.0,0.0,0.0,0.0,0.0,0.0,0.0,0.0,0.0,0.0,-0.8228,-0.8419,-0.8692,-0.8618,-0.8309,-0.7782,0.0,0.0,0.0,0.0,0.0,0.0,0.0,0.0,0.0,0.0,0.0,0.0,0.0,0.0,0.0,0.0,0.0,0.0,0.0,0.0,0.0,0.0,0.0,0.0,0.0,0.0,0.0,0.0,0.0,0.0,0.0,0.0,0.0,0.0,0.0,0.0,0.0,0.0,0.0,0.0,0.0,0.0,0.0,0.0,0.0,0.0,0.0,0.0,0.0,0.0,0.0,0.0,0.0,0.0,0.0,0.0,0.0,0.0,0.0,0.0,0.0,0.0,0.0,0.0,0.0,0.0,0.0,0.0,0.0,0.0,0.0,0.0,0.0,0.0,0.0,0.0,0.0,0.0,0.0,0.0,0.0,0.0,0.0,0.0,0.0,0.0,0.0,0.0,0.0,0.0,0.0,0.0,0.0,0.0,0.0,0.0,0.0,0.0,0.0,0.0,0.0,0.0,0.0,0.0,0.0,0.0,0.0,0.0,-0.861,-0.8864,-0.8785,-0.8283,-0.8423,-0.8392,0.0,0.0,0.0,0.0,0.0,0.0,0.0,0.0,0.0,0.0,0.0,0.0,0.0,0.0,0.0,0.0,0.0,0.0,0.0,0.0,0.0,0.0,0.0,0.0,0.0,0.0,0.0,0.0,0.0,0.0,0.0,0.0,0.0,0.0,0.0,0.0,0.0,0.0,0.0,0.0,0.0,0.0,0.0,0.0,0.0,0.0,0.0,0.0,0.0,0.0,0.0,0.0,0.0,0.0,0.0,0.0,0.0,0.0,0.0,0.0,0.0,0.0,0.0,0.0,0.0,0.0,0.0,0.0,0.0,0.0,0.0,0.0,0.0,0.0,0.0,0.0,0.0,0.0,0.0,0.0,0.0,0.0,0.0,0.0,0.0,0.0,0.0,0.0,0.0,0.0,0.0,0.0,0.0,0.0,0.0,0.0,0.0,0.0,0.0,0.0,0.0,0.0,0.0,0.0,0.0,0.0,0.0,0.0,0.0,-0.8959,-0.9333,-0.9105,-0.8178,-0.8577,-0.8528,0.0,0.0,0.0,0.0,0.0,0.0,0.0,0.0,0.0,0.0,0.0,0.0,0.0,0.0,0.0,0.0,0.0,0.0,0.0,0.0,0.0,0.0,0.0,0.0,0.0,0.0,0.0,0.0,0.0,0.0,0.0,0.0,0.0,0.0,0.0,0.0,0.0,0.0,0.0,0.0,0.0,0.0,0.0,0.0,0.0,0.0,0.0,0.0,0.0,0.0,0.0,0.0,0.0,0.0,0.0,0.0,0.0,0.0,0.0,0.0,0.0,0.0,0.0,0.0,0.0,0.0,0.0,0.0,0.0,0.0,0.0,0.0,0.0,0.0,0.0,0.0,0.0,0.0,0.0,0.0,0.0,0.0,0.0,0.0,0.0,0.0,0.0,0.0,0.0,0.0,0.0,0.0,0.0,0.0,0.0,0.0,0.0,0.0,0.0,0.0,0.0,0.0,0.0,0.0,0.0,0.0,0.0,0.0,0.0,-0.8827,0.0,-0.8962,-0.8115,-0.8635,-0.8653,0.0,0.0,0.0,0.0,0.0,0.0,0.0,0.0,0.0,0.0,0.0,0.0,0.0,0.0,0.0,0.0,0.0,0.0,0.0,0.0,0.0,0.0,0.0,0.0,0.0,0.0,0.0,0.0,0.0,0.0,0.0,0.0,0.0,0.0,0.0,0.0,0.0,0.0,0.0,0.0,0.0,0.0,0.0,0.0,0.0,0.0,0.0,0.0,0.0,0.0,0.0,0.0,0.0,0.0,0.0,0.0,0.0,0.0,0.0,0.0,0.0,0.0,0.0,0.0,0.0,0.0,0.0,0.0,0.0,0.0,0.0,0.0,0.0,0.0,0.0,0.0,0.0,0.0,0.0,0.0,0.0,0.0,0.0,0.0,0.0,0.0,0.0,0.0,0.0,0.0,0.0,0.0,0.0,0.0,0.0,0.0,0.0,0.0,0.0,0.0,0.0,0.0,0.0,0.0,0.0,0.0,0.0,0.0,-0.9137,-0.8237,-0.8401,-0.8314,-0.7933,-0.8521,-0.8712,0.0,0.0,0.0,0.0,0.0,0.0,0.0,0.0,0.0,0.0,0.0,0.0,0.0,0.0,0.0,0.0,0.0,0.0,0.0,0.0,0.0,0.0,0.0,0.0,0.0,0.0,0.0,0.0,0.0,0.0,0.0,0.0,0.0,0.0,0.0,0.0,0.0,0.0,0.0,0.0,0.0,0.0,0.0,0.0,0.0,0.0,0.0,0.0,0.0,0.0,0.0,0.0,0.0,0.0,0.0,0.0,0.0,0.0,0.0,0.0,0.0,0.0,0.0,0.0,0.0,0.0,0.0,0.0,0.0,0.0,0.0,0.0,0.0,0.0,0.0,0.0,0.0,0.0,0.0,0.0,0.0,0.0,0.0,0.0,0.0,0.0,0.0,0.0,0.0,0.0,0.0,0.0,0.0,0.0,0.0,0.0,0.0,0.0,0.0,0.0,0.0,0.0,0.0,0.0,0.0,0.0,0.0,0.0,0.0,-0.6952,-0.6771,-0.7048,-0.7769,-0.765,-0.7914,0.0,0.0,0.0,0.0,0.0,0.0,0.0,0.0,0.0,0.0,0.0,0.0,0.0,0.0,0.0,0.0,0.0,0.0,0.0,0.0,0.0,0.0,0.0,0.0,0.0,0.0,0.0,0.0,0.0,0.0,0.0,0.0,0.0,0.0,0.0,0.0,0.0,0.0,0.0,0.0,0.0,0.0,0.0,0.0,0.0,0.0,0.0,0.0,0.0,0.0,0.0,0.0,0.0,0.0,0.0,0.0,0.0,0.0,0.0,0.0,0.0,0.0,0.0,0.0,0.0,0.0,0.0,0.0,0.0,0.0,0.0,0.0,0.0,0.0,0.0,0.0,0.0,0.0,0.0,0.0,0.0,0.0,0.0,0.0,0.0,0.0,0.0,0.0,0.0,0.0,0.0,0.0,0.0,0.0,0.0,0.0,0.0,0.0,0.0,0.0,0.0,0.0,0.0,0.0,0.0,0.0,0.0,0.0,0.0,-0.5033,-0.5329,-0.5997,-0.701,-0.7105,-0.7506,-0.8225,0.0,0.0,0.0,0.0,0.0,0.0,0.0,0.0,0.0,0.0,0.0,0.0,0.0,0.0,0.0,0.0,0.0,0.0,0.0,0.0,0.0,0.0,0.0,0.0,0.0,0.0,0.0,0.0,0.0,0.0,0.0,0.0,0.0,0.0,0.0,0.0,0.0,0.0,0.0,0.0,0.0,0.0,0.0,0.0,0.0,0.0,0.0,0.0,0.0,0.0,0.0,0.0,0.0,0.0,0.0,0.0,0.0,0.0,0.0,0.0,0.0,0.0,0.0,0.0,0.0,0.0,0.0,0.0,0.0,0.0,0.0,0.0,0.0,0.0,0.0,0.0,0.0,0.0,0.0,0.0,0.0,0.0,0.0,0.0,0.0,0.0,0.0,0.0,0.0,0.0,0.0,0.0,0.0,0.0,0.0,0.0,0.0,0.0,0.0,0.0,0.0,0.0,0.0,0.0,0.0,0.0,0.0,0.0,-0.271,-0.4055,-0.5065,-0.5687,-0.6675,-0.7395,0.0,0.0,0.0,0.0,0.0,0.0,0.0,0.0,0.0,0.0,0.0,0.0,0.0,0.0,0.0,0.0,0.0,0.0,0.0,0.0,0.0,0.0,0.0,0.0,0.0,0.0,0.0,0.0,0.0,0.0,0.0,0.0,0.0,0.0,0.0,0.0,0.0,0.0,0.0,0.0,0.0,0.0,0.0,0.0,0.0,0.0,0.0,0.0,0.0,0.0,0.0,0.0,0.0,0.0,0.0,0.0,0.0,0.0,0.0,0.0,0.0,0.0,0.0,0.0,0.0,0.0,0.0,0.0,0.0,0.0,0.0,0.0,0.0,0.0,0.0,0.0,0.0,0.0,0.0,0.0,0.0,0.0,0.0,0.0,0.0,0.0,0.0,0.0,0.0,0.0,0.0,0.0,0.0,0.0,0.0,0.0,0.0,0.0,0.0,0.0,0.0,0.0,0.0,0.0,0.0,0.0,0.0,0.0,0.0,-0.2771,-0.2281,-0.3101,-0.5237,-0.5375,-0.6271,0.0,0.0,0.0,0.0,0.0,0.0,0.0,0.0,0.0,0.0,0.0,0.0,0.0,0.0,0.0,0.0,0.0,0.0,0.0,0.0,0.0,0.0,0.0,0.0,0.0,0.0,0.0,0.0,0.0,0.0,0.0,0.0,0.0,0.0,0.0,0.0,0.0,0.0,0.0,0.0,0.0,0.0,0.0,0.0,0.0,0.0,0.0,0.0,0.0,0.0,0.0,0.0,0.0,0.0,0.0,0.0,0.0,0.0,0.0,0.0,0.0,0.0,0.0,0.0,0.0,0.0,0.0,0.0,0.0,0.0,0.0,0.0,0.0,0.0,0.0,0.0,0.0,0.0,0.0,0.0,0.0,0.0,0.0,0.0,0.0,0.0,0.0,0.0,0.0,0.0,0.0,0.0,0.0,0.0,0.0,0.0,0.0,0.0,0.0,0.0,0.0,0.0,0.0,0.0,0.0,0.0,0.0,0.0,-0.4445,-0.2179,-0.1405,-0.214,-0.4436,-0.4973,-0.5968,0.0,0.0,0.0,0.0,0.0,0.0,0.0,0.0,0.0,0.0,0.0,0.0,0.0,0.0,0.0,0.0,0.0,0.0,0.0,0.0,0.0,0.0,0.0,0.0,0.0,0.0,0.0,0.0,0.0,0.0,0.0,0.0,0.0,0.0,0.0,0.0,0.0,0.0,0.0,0.0,0.0,0.0,0.0,0.0,0.0,0.0,0.0,0.0,0.0,0.0,0.0,0.0,0.0,0.0,0.0,0.0,0.0,0.0,0.0,0.0,0.0,0.0,0.0,0.0,0.0,0.0,0.0,0.0,0.0,0.0,0.0,0.0,0.0,0.0,0.0,0.0,0.0,0.0,0.0,0.0,0.0,0.0,0.0,0.0,0.0,0.0,0.0,0.0,0.0,0.0,0.0,0.0,0.0,0.0,0.0,0.0,0.0,0.0,0.0,0.0,0.0,0.0,0.0,0.0,0.0,0.0,0.0,0.0,-0.4641,-0.1475,-0.1272,-0.193,-0.3451,-0.499,-0.6013,0.0,0.0,0.0,0.0,0.0,0.0,0.0,0.0,0.0,0.0,0.0,0.0,0.0,0.0,0.0,0.0,0.0,0.0,0.0,0.0,0.0,0.0,0.0,0.0,0.0,0.0,0.0,0.0,0.0,0.0,0.0,0.0,0.0,0.0,0.0,0.0,0.0,0.0,0.0,0.0,0.0,0.0,0.0,0.0,0.0,0.0,0.0,0.0,0.0,0.0,0.0,0.0,0.0,0.0,0.0,0.0,0.0,0.0,0.0,0.0,0.0,0.0,0.0,0.0,0.0,0.0,0.0,0.0,0.0,0.0,0.0,0.0,0.0,0.0,0.0,0.0,0.0,0.0,0.0,0.0,0.0,0.0,0.0,0.0,0.0,0.0,0.0,0.0,0.0,0.0,0.0,0.0,0.0,0.0,0.0,0.0,0.0,0.0,0.0,0.0,0.0,0.0,0.0,0.0,0.0,0.0,0.0,0.0,-0.3449,-0.2061,-0.1898,-0.2283,-0.3296,-0.3984,-0.5132,0.0,0.0,0.0,0.0,0.0,0.0,0.0,0.0,0.0,0.0,0.0,0.0,0.0,0.0,0.0,0.0,0.0,0.0,0.0,0.0,0.0,0.0,0.0,0.0,0.0,0.0,0.0,0.0,0.0,0.0,0.0,0.0,0.0,0.0,0.0,0.0,0.0,0.0,0.0,0.0,0.0,0.0,0.0,0.0,0.0,0.0,0.0,0.0,-0.7228,0.0,0.0,0.0,0.0,0.0,0.0,0.0,0.0,0.0,0.0,0.0,0.0,0.0,0.0,0.0,0.0,0.0,0.0,0.0,0.0,0.0,0.0,0.0,0.0,0.0,0.0,0.0,0.0,0.0,0.0,0.0,0.0,0.0,0.0,0.0,0.0,0.0,0.0,0.0,0.0,0.0,0.0,0.0,0.0,0.0,0.0,0.0,0.0,0.0,0.0,0.0,0.0,0.0,0.0,0.0,0.0,0.0,0.0,0.0,-0.3687,-0.1983,-0.2219,-0.2664,-0.3241,-0.3869,-0.4889,0.0,0.0,0.0,0.0,0.0,0.0,0.0,0.0,0.0,0.0,0.0,0.0,0.0,0.0,0.0,0.0,0.0,0.0,0.0,0.0,0.0,0.0,0.0,0.0,0.0,0.0,0.0,0.0,0.0,0.0,0.0,0.0,0.0,0.0,0.0,0.0,0.0,0.0,0.0,0.0,0.0,0.0,0.0,0.0,0.0,0.0,0.0,0.0,0.0,0.0,0.0,0.0,0.0,0.0,0.0,0.0,0.0,0.0,0.0,0.0,0.0,0.0,0.0,0.0,0.0,0.0,0.0,0.0,0.0,0.0,0.0,0.0,0.0,0.0,0.0,0.0,0.0,0.0,0.0,0.0,0.0,0.0,0.0,0.0,0.0,0.0,0.0,0.0,0.0,0.0,0.0,0.0,0.0,0.0,0.0,0.0,0.0,0.0,0.0,0.0,0.0,0.0,0.0,0.0,0.0,0.0,0.0,-0.5194,-0.4046,-0.1822,-0.2375,-0.2906,-0.3257,-0.4077,-0.4986,-0.601,0.0,0.0,0.0,0.0,0.0,0.0,0.0,0.0,0.0,0.0,0.0,0.0,0.0,0.0,0.0,0.0,0.0,0.0,0.0,0.0,0.0,0.0,0.0,0.0,0.0,0.0,0.0,0.0,0.0,0.0,0.0,0.0,0.0,0.0,0.0,0.0,0.0,0.0,-0.8004,-0.7931,0.0,0.0,0.0,0.0,0.0,0.0,0.0,0.0,-0.609,0.0,0.0,0.0,0.0,0.0,0.0,0.0,0.0,0.0,0.0,0.0,0.0,0.0,0.0,0.0,0.0,0.0,0.0,0.0,0.0,0.0,0.0,0.0,0.0,0.0,0.0,0.0,0.0,0.0,0.0,0.0,0.0,0.0,0.0,0.0,0.0,0.0,0.0,0.0,0.0,0.0,0.0,0.0,0.0,0.0,0.0,0.0,0.0,0.0,0.0,0.0,0.0,0.0,0.0,0.0,0.0,-0.4786,-0.3524,-0.2559,-0.1945,-0.2224,-0.274,-0.3499,-0.4219,-0.5224,-0.6554,0.0,0.0,0.0,0.0,0.0,0.0,0.0,0.0,0.0,0.0,0.0,0.0,0.0,0.0,0.0,0.0,0.0,0.0,0.0,0.0,0.0,0.0,0.0,0.0,0.0,0.0,0.0,0.0,0.0,0.0,0.0,0.0,0.0,0.0,0.0,0.0,0.0,0.0,0.0,-0.7512,-0.771,0.0,0.0,0.0,0.0,0.0,0.0,0.0,0.0,-0.5937,0.0,0.0,0.0,0.0,0.0,0.0,0.0,0.0,0.0,0.0,0.0,0.0,0.0,0.0,0.0,0.0,0.0,0.0,0.0,0.0,0.0,0.0,0.0,0.0,0.0,0.0,0.0,0.0,0.0,0.0,0.0,0.0,0.0,0.0,0.0,0.0,0.0,0.0,0.0,0.0,0.0,0.0,0.0,0.0,0.0,0.0,0.0,0.0,0.0,0.0,0.0,0.0,0.0,0.0,0.0,-0.5571,-0.3333,-0.2074,-0.2064,-0.2442,-0.2968,-0.3633,-0.4263,-0.5327,0.0,0.0,0.0,0.0,0.0,0.0,0.0,0.0,0.0,0.0,0.0,0.0,0.0,0.0,0.0,0.0,0.0,0.0,0.0,0.0,0.0,0.0,0.0,0.0,0.0,0.0,0.0,0.0,0.0,0.0,0.0,0.0,0.0,0.0,0.0,0.0,0.0,0.0,0.0,0.0,-0.7492,-0.7575,-0.7449,0.0,0.0,0.0,0.0,0.0,0.0,-0.5569,-0.5941,0.0,0.0,0.0,0.0,0.0,0.0,0.0,0.0,0.0,0.0,0.0,0.0,0.0,0.0,0.0,0.0,0.0,0.0,0.0,0.0,0.0,0.0,0.0,0.0,0.0,0.0,0.0,0.0,0.0,0.0,0.0,0.0,0.0,0.0,0.0,0.0,0.0,0.0,0.0,0.0,0.0,0.0,0.0,0.0,0.0,0.0,0.0,0.0,0.0,0.0,0.0,0.0,0.0,0.0,0.0,-0.6038,-0.3351,-0.1945,-0.206,-0.2645,-0.3185,-0.3684,-0.4291,-0.5394,0.0,0.0,0.0,0.0,0.0,0.0,0.0,0.0,0.0,0.0,0.0,0.0,0.0,0.0,0.0,0.0,0.0,0.0,0.0,0.0,0.0,0.0,0.0,0.0,0.0,0.0,0.0,0.0,0.0,0.0,0.0,0.0,0.0,0.0,0.0,0.0,0.0,0.0,0.0,0.0,0.0,-0.7496,-0.7338,-0.7405,0.0,0.0,0.0,0.0,-0.463,-0.5221,0.0,0.0,0.0,0.0,0.0,0.0,0.0,0.0,0.0,0.0,0.0,0.0,0.0,0.0,0.0,0.0,0.0,0.0,0.0,0.0,0.0,0.0,0.0,0.0,0.0,0.0,0.0,0.0,0.0,0.0,0.0,0.0,0.0,0.0,0.0,0.0,0.0,0.0,0.0,0.0,0.0,0.0,0.0,0.0,0.0,0.0,0.0,0.0,0.0,0.0,0.0,0.0,0.0,0.0,0.0,0.0,-0.4587,-0.289,-0.1938,-0.1886,-0.2477,-0.3108,-0.3697,-0.4261,-0.5451,0.0,0.0,0.0,0.0,0.0,0.0,0.0,0.0,0.0,0.0,0.0,0.0,0.0,0.0,0.0,0.0,0.0,0.0,0.0,0.0,0.0,0.0,0.0,0.0,0.0,0.0,0.0,0.0,0.0,0.0,0.0,0.0,0.0,0.0,0.0,0.0,0.0,0.0,0.0,0.0,0.0,-0.7415,-0.7311,-0.7189,-0.6906,0.0,0.0,-0.5358,-0.4303,-0.4447,0.0,0.0,0.0,0.0,0.0,0.0,0.0,0.0,0.0,0.0,0.0,0.0,0.0,0.0,0.0,0.0,0.0,0.0,0.0,0.0,0.0,0.0,0.0,0.0,0.0,0.0,0.0,0.0,0.0,0.0,0.0,0.0,0.0,0.0,0.0,0.0,0.0,0.0,0.0,0.0,0.0,0.0,0.0,0.0,0.0,0.0,0.0,0.0,0.0,0.0,0.0,0.0,0.0,0.0,0.0,-0.5759,-0.3769,-0.2551,-0.1986,-0.2075,-0.2614,-0.3189,-0.3916,-0.4376,-0.546,0.0,0.0,0.0,0.0,0.0,0.0,0.0,0.0,0.0,0.0,0.0,0.0,0.0,0.0,0.0,0.0,0.0,0.0,0.0,0.0,0.0,0.0,0.0,0.0,0.0,0.0,0.0,0.0,0.0,0.0,0.0,0.0,0.0,0.0,0.0,0.0,0.0,0.0,0.0,0.0,0.0,0.0,-0.7294,-0.7067,0.0,0.0,0.0,-0.4898,-0.4311,0.0,0.0,0.0,0.0,0.0,0.0,0.0,0.0,0.0,0.0,0.0,0.0,0.0,0.0,0.0,0.0,0.0,0.0,0.0,0.0,0.0,0.0,0.0,0.0,0.0,0.0,0.0,0.0,0.0,0.0,0.0,0.0,0.0,0.0,0.0,0.0,0.0,0.0,0.0,0.0,0.0,0.0,0.0,0.0,0.0,0.0,0.0,0.0,0.0,0.0,0.0,0.0,0.0,0.0,0.0,0.0,0.0,-0.3484,-0.2477,-0.2014,-0.2214,-0.2662,-0.3202,-0.3868,-0.4299,0.0,0.0,0.0,0.0,0.0,0.0,0.0,0.0,0.0,0.0,0.0,0.0,0.0,0.0,0.0,0.0,0.0,0.0,0.0,0.0,0.0,0.0,0.0,0.0,0.0,0.0,0.0,-0.6781,0.0,0.0,0.0,0.0,0.0,0.0,0.0,0.0,0.0,0.0,0.0,0.0,0.0,0.0,-0.7074,-0.704,-0.6782,-0.6435,0.0,0.0,-0.4327,-0.4204,-0.4108,-0.4444,0.0,0.0,0.0,0.0,0.0,0.0,0.0,0.0,0.0,0.0,0.0,0.0,0.0,0.0,0.0,0.0,0.0,0.0,0.0,0.0,0.0,0.0,0.0,0.0,0.0,0.0,0.0,0.0,0.0,0.0,0.0,0.0,0.0,0.0,0.0,0.0,0.0,0.0,0.0,0.0,0.0,0.0,0.0,0.0,0.0,0.0,0.0,0.0,0.0,0.0,0.0,0.0,0.0,0.0,-0.5657,-0.3899,-0.2683,-0.2021,-0.1929,-0.2556,-0.3043,-0.3361,-0.3982,-0.4958,0.0,0.0,0.0,0.0,0.0,0.0,0.0,0.0,0.0,0.0,0.0,0.0,0.0,0.0,0.0,0.0,0.0,0.0,0.0,0.0,0.0,0.0,0.0,0.0,0.0,0.0,0.0,0.0,0.0,0.0,0.0,0.0,0.0,0.0,0.0,0.0,0.0,0.0,0.0,0.0,0.0,-0.6924,-0.637,-0.6037,-0.5693,0.0,-0.4409,-0.3827,-0.385,-0.3818,-0.4066,-0.486,0.0,0.0,0.0,0.0,0.0,0.0,0.0,0.0,0.0,0.0,0.0,0.0,0.0,0.0,0.0,0.0,0.0,0.0,0.0,0.0,0.0,0.0,0.0,0.0,0.0,0.0,0.0,0.0,0.0,0.0,0.0,0.0,0.0,0.0,0.0,0.0,0.0,0.0,0.0,0.0,0.0,0.0,0.0,0.0,0.0,0.0,0.0,0.0,0.0,0.0,0.0,0.0,0.0,-0.3974,-0.2917,-0.1817,-0.1477,-0.2023,-0.2382,-0.2865,-0.3416,-0.3777,-0.4626,0.0,0.0,0.0,0.0,0.0,0.0,0.0,0.0,0.0,0.0,0.0,0.0,0.0,0.0,0.0,0.0,0.0,0.0,0.0,0.0,0.0,0.0,0.0,0.0,0.0,0.0,0.0,0.0,-0.6525,-0.6063,-0.5737,0.0,0.0,0.0,0.0,0.0,0.0,0.0,0.0,0.0,0.0,-0.5682,-0.5726,-0.5384,0.0,0.0,-0.4645,-0.4086,-0.4052,-0.375,-0.3996,-0.5234,-0.5322,0.0,0.0,0.0,0.0,0.0,0.0,0.0,0.0,0.0,0.0,0.0,0.0,0.0,0.0,0.0,0.0,0.0,0.0,0.0,0.0,0.0,0.0,0.0,0.0,0.0,0.0,0.0,0.0,0.0,0.0,0.0,0.0,0.0,0.0,0.0,0.0,0.0,0.0,0.0,0.0,0.0,0.0,0.0,0.0,0.0,0.0,0.0,0.0,0.0,0.0,0.0,0.0,-0.2546,-0.1811,-0.0976,-0.0955,-0.1751,-0.2119,-0.2607,-0.3255,-0.3653,-0.442,0.0,0.0,0.0,0.0,0.0,0.0,0.0,0.0,0.0,0.0,0.0,0.0,0.0,0.0,0.0,0.0,0.0,0.0,0.0,0.0,0.0,0.0,0.0,0.0,0.0,0.0,0.0,0.0,-0.6408,-0.5875,-0.5739,0.0,0.0,0.0,0.0,0.0,0.0,0.0,0.0,0.0,0.0,-0.4832,-0.4961,-0.4739,-0.4669,-0.5039,-0.4555,-0.4187,-0.4257,-0.3796,-0.3904,-0.5336,0.0,0.0,0.0,0.0,0.0,0.0,0.0,0.0,0.0,0.0,0.0,0.0,0.0,0.0,0.0,0.0,0.0,0.0,0.0,0.0,0.0,0.0,0.0,0.0,0.0,0.0,0.0,-0.9408,0.0,0.0,-0.9092,0.0,0.0,0.0,0.0,0.0,0.0,0.0,0.0,0.0,0.0,0.0,0.0,0.0,0.0,0.0,0.0,0.0,0.0,0.0,0.0,0.0,0.0,-0.1721,-0.0647,-0.0355,-0.0489,-0.1048,-0.1752,-0.2337,-0.2831,-0.3516,-0.4307,-0.5195,0.0,0.0,0.0,0.0,0.0,0.0,0.0,0.0,0.0,0.0,0.0,0.0,0.0,0.0,0.0,0.0,0.0,0.0,0.0,0.0,0.0,0.0,0.0,0.0,0.0,0.0,-0.6593,-0.6151,-0.5941,0.0,0.0,0.0,0.0,0.0,0.0,0.0,0.0,0.0,-0.5671,-0.5046,-0.4498,-0.3901,-0.4067,-0.4116,-0.4067,-0.3901,-0.3956,-0.4398,-0.3959,-0.3904,0.0,0.0,0.0,0.0,0.0,0.0,0.0,0.0,0.0,0.0,0.0,0.0,0.0,0.0,0.0,0.0,0.0,0.0,0.0,0.0,0.0,0.0,0.0,0.0,0.0,0.0,0.0,-1.0439,-0.9913,0.0,0.0,0.0,0.0,0.0,0.0,0.0,0.0,0.0,0.0,0.0,-0.9678,-0.9573,0.0,0.0,0.0,0.0,0.0,0.0,0.0,0.0,0.0,0.0,0.0,0.0,-0.1828,-0.0034,-0.0177,-0.0621,-0.1198,-0.1723,-0.2244,-0.2717,-0.3166,-0.398,-0.5285,0.0,0.0,0.0,0.0,0.0,0.0,0.0,0.0,0.0,0.0,0.0,0.0,0.0,0.0,0.0,0.0,0.0,0.0,0.0,0.0,0.0,0.0,0.0,0.0,0.0,-0.7024,0.0,0.0,0.0,0.0,0.0,0.0,0.0,0.0,0.0,0.0,0.0,-0.5242,-0.483,-0.3875,-0.3155,-0.306,-0.307,-0.3125,0.0,0.0,0.0,0.0,0.0,0.0,0.0,0.0,0.0,0.0,0.0,0.0,0.0,0.0,-0.5408,-0.5919,-0.6261,-0.6365,-0.6056,0.0,0.0,0.0,0.0,0.0,0.0,0.0,0.0,0.0,0.0,0.0,0.0,0.0,0.0,-1.0923,0.0,-0.9822,0.0,0.0,0.0,0.0,0.0,0.0,0.0,0.0,-0.8187,-0.8207,-0.8589,-0.8571,-0.9044,0.0,-1.0731,-1.1346,0.0,0.0,0.0,0.0,0.0,0.0,0.0,0.0,-0.2398,-0.0204,-0.0177,-0.06,-0.1328,-0.1881,-0.2304,-0.2684,-0.3239,-0.4074,-0.5257,-0.5945,-0.6415,0.0,0.0,0.0,0.0,0.0,0.0,0.0,0.0,0.0,0.0,0.0,0.0,0.0,0.0,0.0,0.0,0.0,0.0,0.0,0.0,0.0,0.0,0.0,-0.6557,0.0,0.0,0.0,0.0,0.0,0.0,0.0,0.0,0.0,-0.6051,-0.5262,-0.4365,-0.3635,-0.2954,-0.24,-0.2174,0.0,0.0,0.0,0.0,0.0,0.0,0.0,-0.3846,-0.4618,-0.4595,-0.4672,-0.4988,-0.4918,-0.4885,-0.4984,0.0,0.0,-0.5345,-0.5751,-0.591,-0.5637,-0.5224,-0.5008,-0.5124,-0.462,-0.3664,0.0,0.0,0.0,0.0,0.0,0.0,0.0,0.0,-1.1742,-1.1242,0.0,-1.0402,0.0,0.0,0.0,0.0,-1.0267,-0.875,0.0,0.0,-0.7484,-0.7107,-0.6974,-0.7473,-0.7986,-0.843,-0.9397,-1.0248,-1.1044,-1.1881,0.0,0.0,0.0,0.0,0.0,0.0,-0.3392,-0.1123,-0.0394,-0.0508,-0.1514,-0.2131,-0.2555,-0.2779,-0.373,-0.4538,-0.5111,-0.5975,-0.6525,-0.6603,-0.8298,0.0,0.0,0.0,0.0,0.0,0.0,0.0,0.0,0.0,0.0,0.0,0.0,0.0,0.0,0.0,0.0,0.0,0.0,0.0,0.0,-0.5404,0.0,0.0,0.0,0.0,0.0,0.0,0.0,0.0,0.0,0.0,-0.5064,-0.5083,-0.4429,-0.2343,0.0,0.0,0.0,0.0,-0.2516,-0.2188,-0.2635,-0.2912,-0.2693,-0.3135,-0.3522,-0.3577,0.0,0.0,-0.428,-0.4375,-0.4423,-0.4231,-0.475,-0.512,-0.4684,-0.4732,-0.4842,-0.4995,-0.4714,-0.468,-0.5011,-0.4206,-0.2832,-1.5463,0.0,0.0,0.0,0.0,-1.6101,-1.4974,-1.3604,-1.2593,-1.1634,-1.0705,-1.0179,0.0,0.0,0.0,0.0,0.0,0.0,-0.8477,-0.8166,-0.7488,-0.7024,-0.6833,-0.6658,-0.7108,-0.8057,-0.8511,-0.9094,-0.9762,-1.0169,-1.1011,-1.2179,0.0,0.0,0.0,0.0,-0.404,-0.2305,-0.1861,-0.1848,-0.2134,-0.2885,-0.346,-0.3814,-0.4148,-0.4566,-0.5094,-0.5897,-0.6405,-0.6597,-0.8018,0.0,0.0,0.0,0.0,0.0,0.0,0.0,0.0,0.0,0.0,0.0,0.0,0.0,0.0,0.0,0.0,0.0,0.0,0.0,-0.5027,-0.5216,-0.5377,0.0,0.0,0.0,0.0,0.0,0.0,0.0,0.0,0.0,-0.3881,-0.3473,-0.3068,0.0,0.0,-0.1979,-0.1677,-0.1705,-0.1695,-0.162,-0.1567,0.0,-0.2092,-0.2235,-0.2431,-0.2892,-0.3457,-0.4003,-0.4351,-0.4129,-0.3832,-0.3765,-0.3955,-0.3897,-0.3477,-0.4288,-0.4787,-0.4233,-0.3852,-0.3691,-0.3635,-0.2945,-0.1864,-1.4775,-1.5919,-1.6759,-1.6928,-1.6611,-1.5822,-1.4624,-1.3151,-1.2232,-1.1335,-1.0519,-1.0186,-1.0489,-1.1211,-1.1172,0.0,0.0,0.0,-0.8353,-0.7711,-0.702,-0.6596,-0.6357,-0.6227,-0.6648,-0.7517,-0.7912,-0.8405,-0.8995,-0.9329,-1.0183,-1.1516,0.0,0.0,-0.7591,-0.6265,-0.4775,-0.3155,-0.2886,-0.2807,-0.2885,-0.3371,-0.385,-0.432,-0.4349,-0.4622,-0.5188,-0.6018,-0.6601,-0.6834,-0.8058,-0.8576,0.0,0.0,0.0,0.0,0.0,0.0,0.0,0.0,0.0,0.0,0.0,-0.7517,-0.7115,0.0,0.0,0.0,-0.5385,-0.4892,-0.4569,-0.4818,0.0,0.0,0.0,0.0,0.0,0.0,0.0,-0.5487,-0.4671,-0.3874,-0.3153,-0.2551,-0.2151,-0.2121,-0.1931,-0.1753,-0.1612,0.0,-0.1556,-0.1528,-0.131,-0.1328,-0.1599,-0.182,-0.2096,-0.2692,-0.306,-0.3367,-0.3716,-0.3541,-0.332,-0.3278,-0.3304,-0.3134,-0.275,-0.3578,-0.4064,-0.3411,-0.313,-0.2856,-0.2296,-0.1568,-0.0611,-1.3736,-1.4311,-1.547,-1.5457,-1.4588,-1.3954,-1.2838,-1.1387,-1.1074,-1.0588,-1.0026,-1.021,-1.095,-1.2069,-1.2069,0.0,-1.0507,-0.9019,-0.7825,-0.683,-0.6316,-0.5941,-0.5745,-0.5995,-0.6425,-0.6976,-0.7373,-0.7926,-0.8599,-0.8976,-0.9231,-0.9363,-0.9111,-0.8181,-0.6625,-0.6343,-0.5404,-0.3785,-0.3516,-0.3512,-0.3703,-0.3777,-0.3979,-0.4447,-0.4456,-0.4709,-0.527,-0.6259,-0.6874,-0.702,-0.819,-0.8806,-0.8721,0.0,0.0,0.0,0.0,0.0,0.0,0.0,0.0,0.0,0.0,0.0,0.0,0.0,0.0,-0.5229,-0.4485,0.0,-0.3854,-0.4337,0.0,0.0,0.0,-0.5784,-0.5911,-0.5752,-0.5479,-0.5105,0.0,0.0,-0.2736,-0.2186,-0.1628,-0.1178,-0.1464,-0.1581,-0.1243,-0.1567,-0.1774,-0.1668,-0.1703,-0.161,-0.1437,-0.174,-0.216,-0.264,-0.2768,-0.2759,-0.2881,-0.2774,-0.2776,-0.2759,-0.2711,-0.2624,-0.2538,-0.2576,-0.2613,-0.2583,-0.2462,-0.2071,-0.1062,-0.0335,0.067,-1.2728,-1.2734,-1.2926,-1.3447,-1.4084,-1.3064,-1.227,-1.1548,-1.0578,-0.9763,-0.9103,-0.9424,-0.9785,-1.0147,-1.0225,-0.9639,-0.8587,-0.8253,-0.7569,-0.6604,-0.6025,-0.5841,-0.593,-0.5515,-0.5679,-0.6456,-0.6596,-0.7099,-0.7873,-0.7687,-0.7558,-0.7592,-0.721,-0.6956,-0.6943,-0.6151,-0.5219,-0.415,-0.415,-0.4325,-0.4664,-0.4667,-0.476,-0.4854,-0.4854,-0.4893,-0.4937,-0.616,-0.6459,-0.5643,-0.7524,-0.7954,-0.6455,-0.8234,0.0,0.0,0.0,0.0,0.0,0.0,0.0,0.0,0.0,-0.6002,-0.6196,0.0,-0.5462,0.0,-0.4605,-0.4267,-0.3971,-0.451,0.0,0.0,-0.4696,-0.5021,-0.5131,-0.4599,-0.4385,-0.4615,-0.3624,-0.2847,-0.2736,-0.2184,-0.1628,-0.1179,-0.1213,-0.1423,-0.1685,-0.1395,-0.1293,-0.1695,-0.1649,-0.1607,-0.1571,-0.1616,-0.1899,-0.2413,-0.2342,-0.2402,-0.2893,-0.2513,-0.2089,-0.211,-0.2135,-0.1934,-0.1486,-0.1704,-0.1799,-0.1467,-0.1287,-0.1007,-0.0168,0.0615,0.151,-1.1911,-1.1648,-1.1376,-1.1519,-1.1955,-1.1575,-1.1114,-1.0559,-0.977,-0.9027,-0.8374,-0.8741,-0.9146,-0.9427,-0.9316,-0.8972,-0.8393,-0.781,-0.7109,-0.6412,-0.5885,-0.5733,-0.5798,-0.5433,-0.5736,-0.6642,-0.6539,-0.6875,-0.7559,-0.7419,-0.7125,-0.6677,-0.6295,-0.6306,-0.6569,-0.5907,-0.5311,-0.4785,-0.4798,-0.4852,-0.499,-0.4985,-0.5027,-0.5112,-0.5032,-0.5071,-0.5152,-0.6124,-0.636,-0.5706,-0.6911,-0.73,-0.6585,-0.7258,-0.7485,0.0,0.0,0.0,0.0,0.0,0.0,0.0,0.0,0.0,0.0,0.0,-0.5153,-0.4833,-0.4652,-0.4361,-0.4138,-0.4478,-0.4606,-0.4341,-0.4478,-0.4594,-0.444,-0.4114,-0.3827,-0.3616,-0.307,-0.2571,-0.235,-0.2018,-0.1628,-0.1179,-0.094,-0.0909,-0.1152,-0.0927,-0.0886,-0.1478,-0.1498,-0.1518,-0.1679,-0.166,-0.1699,-0.1933,-0.1988,-0.1988,-0.2305,-0.2056,-0.1729,-0.1641,-0.1641,-0.1505,-0.1151,-0.1128,-0.111,-0.0922,-0.0453,0.0056,0.0504,0.1175,0.1959,-1.1244,-1.0791,-1.0322,-0.9839,-0.9399,-0.983,-0.9741,-0.9194,-0.8756,-0.8226,-0.7699,-0.8126,-0.8617,-0.9063,-0.8799,-0.8699,-0.8667,-0.7412,-0.6605,-0.6211,-0.581,-0.5623,-0.5642,-0.5591,-0.6102,-0.6972,-0.6753,-0.6899,-0.741,-0.7462,-0.7111,-0.6263,-0.5957,-0.5863,-0.5913,-0.5589,-0.5399,-0.5406,-0.5311,-0.5199,-0.507,-0.5042,-0.5112,-0.5268,-0.5094,-0.5154,-0.551,-0.6054,-0.6264,-0.6211,-0.6336,-0.6723,-0.7371,-0.6288,-0.6128,0.0,-0.69,0.0,0.0,0.0,0.0,0.0,0.0,0.0,0.0,-0.4867,-0.49,-0.4569,-0.4442,-0.4294,-0.4012,-0.4181,-0.4294,-0.4294,-0.4294,-0.4128,-0.3796,-0.3741,-0.3461,-0.2623,-0.2569,-0.235,-0.1909,-0.1741,-0.1517,-0.1021,-0.0595,-0.0306,-0.0241,-0.0312,-0.0514,-0.1159,-0.1246,-0.1386,-0.1598,-0.167,-0.1668,-0.1609,-0.1674,-0.1611,-0.1662,-0.1575,-0.1422,-0.1216,-0.1071,-0.1054,-0.1046,-0.0599,-0.0412,-0.0466,0.0228,0.084,0.0951,0.1398,0.2125,-1.0485,-1.0,-0.939,-0.8891,-0.8535,-0.8566,-0.8654,-0.8637,-0.775,-0.7276,-0.7128,-0.7254,-0.732,-0.7468,-0.7377,-0.7164,-0.6823,-0.654,-0.6269,-0.5942,-0.5729,-0.5698,-0.5835,-0.5656,-0.5911,-0.6455,-0.6409,-0.6533,-0.6844,-0.6678,-0.637,-0.605,-0.5674,-0.5553,-0.5639,0.0,0.0,0.0,-0.5088,-0.5132,-0.5438,-0.532,-0.5245,-0.5283,-0.5094,0.0,-0.4944,-0.5561,-0.5644,-0.5185,-0.6032,0.0,0.0,0.0,0.0,0.0,0.0,0.0,0.0,0.0,0.0,0.0,-0.6,-0.5801,-0.4935,-0.472,-0.4328,-0.3731,-0.3732,-0.3572,-0.3014,-0.3014,-0.307,-0.307,-0.307,-0.307,-0.3186,-0.2854,-0.2516,-0.2681,-0.224,-0.1964,-0.1798,-0.1459,-0.1077,-0.0582,-0.0121,0.0311,0.0696,0.032,-0.0129,-0.0644,-0.102,-0.1141,-0.0905,-0.1496,-0.1712,-0.1535,-0.1614,-0.1795,-0.1687,-0.1445,-0.1109,-0.0628,-0.0378,-0.0125,0.03,0.059,0.0583,0.0568,0.0899,0.1175,0.0952,0.14,0.1847,-1.0467,-0.998,-0.935,-0.8822,0.0,-0.8108,-0.8085,-0.8332,-0.7627,-0.7088,-0.6725,-0.6683,-0.674,-0.6889,-0.6721,-0.6616,-0.6555,-0.6309,-0.601,-0.5845,-0.5754,-0.5763,-0.5854,-0.5745,-0.5953,-0.6457,-0.6319,-0.6354,-0.6514,-0.6369,-0.6074,-0.5634,-0.5566,-0.5413,-0.5086,-0.4399,-0.427,-0.4678,-0.445,-0.4642,-0.5206,-0.5004,-0.5048,-0.5439,-0.5353,0.0,0.0,0.0,0.0,0.0,0.0,0.0,0.0,-0.6135,0.0,-0.6322,-0.6732,-0.6802,-0.6483,-0.6717,-0.6418,-0.5473,-0.512,-0.4747,-0.4294,-0.4139,-0.3756,-0.313,-0.3082,-0.3014,-0.274,-0.2683,-0.2681,-0.2681,-0.2681,-0.2681,-0.246,-0.2294,-0.2128,-0.2015,-0.185,-0.175,-0.1493,-0.1245,-0.0803,-0.018,0.0188,0.0515,0.0905,0.0784,0.0458,-0.0129,-0.0637,-0.0886,-0.0706,-0.0914,-0.1254,-0.1004,-0.113,-0.1177,-0.1027,-0.0824,-0.0499,0.0,0.0244,0.0488,0.0725,0.101,0.1174,0.1111,0.1315,0.1512,0.14,0.1568,0.179,-1.0582,-1.0234,-0.9384,-0.8854,-0.8565,-0.7957,-0.7862,-0.805,0.0,0.0,0.0,-0.6386,-0.6483,-0.6696,-0.6308,-0.6381,-0.6691,-0.6218,-0.59,-0.5791,-0.5791,-0.5791,-0.5791,-0.5786,-0.605,-0.6431,-0.6242,-0.6128,-0.6154,-0.6172,-0.5788,-0.5168,-0.5412,-0.514,-0.4369,-0.3601,-0.3399,-0.3811,-0.3742,-0.4111,-0.4855,-0.4711,-0.4944,-0.5616,-0.5632,-0.5702,-0.5931,-0.5844,-0.5868,-0.5997,-0.5552,-0.5544,-0.6048,-0.5553,-0.5466,-0.5873,-0.5828,-0.5764,-0.5882,-0.5882,-0.566,-0.5167,-0.4067,-0.3458,-0.3458,-0.3458,-0.3181,-0.2625,-0.2514,-0.2516,-0.241,-0.2348,-0.2402,-0.2402,-0.2402,-0.2179,-0.179,-0.1903,-0.1853,-0.1356,-0.1532,-0.1487,-0.1054,-0.0869,-0.0579,0.0122,0.045,0.0601,0.0918,0.1054,0.0855,0.0385,-0.0063,-0.0382,-0.032,-0.0454,-0.0463,-0.0397,-0.052,-0.0446,-0.0188,-0.0061,0.0118,0.07,0.0876,0.1007,0.1083,0.1478,0.1648,0.1507,0.1687,0.1903,0.1903,0.1902,0.1956,-1.0361,-1.0205,-0.8928,-0.8521,-0.8612,-0.7967,-0.7801,-0.7888,-0.7635,-0.7188,-0.6646,-0.6665,-0.6499,-0.6293,-0.6105,-0.6059,-0.6109,-0.59,-0.5791,-0.5791,-0.5791,-0.5791,-0.5791,-0.5791,-0.5845,-0.59,-0.585,-0.5743,-0.5632,-0.5686,-0.5349,-0.4748,-0.4702,-0.4283,-0.3531,-0.2972,-0.2754,-0.2925,-0.349,-0.4142,-0.4884,-0.5108,-0.5345,-0.5663,-0.5603,-0.5555,-0.5501,-0.5363,-0.5344,-0.5401,-0.525,-0.5173,-0.5291,-0.5642,-0.5828,-0.5677,-0.6046,-0.627,-0.6159,-0.615,-0.5655,-0.4608,-0.3453,-0.2847,-0.2847,-0.285,-0.2569,-0.2012,-0.1902,-0.1734,-0.1233,-0.1179,-0.1235,-0.1235,-0.1178,-0.1178,-0.1236,-0.135,-0.1309,-0.1051,-0.1113,-0.1055,-0.0591,-0.018,0.006,0.0302,0.0639,0.0938,0.1061,0.1052,0.0964,0.0877,0.0497,0.0373,0.0497,0.0,-0.0189,0.0064,-0.0252,-0.0366,-0.0,0.0119,0.0475,0.1309,0.1501,0.1747,0.2185,0.2435,0.2448,0.2355,0.2261,0.2128,0.2184,0.2291,0.24,-1.0205,-1.0087,-0.9182,-0.8842,-0.8818,-0.8246,-0.7998,-0.8055,-0.7788,-0.7517,-0.7156,-0.7095,-0.6869,-0.6495,-0.6209,-0.6041,-0.5941,-0.5896,-0.5845,-0.5791,-0.5791,-0.5791,-0.5791,-0.5791,-0.5791,-0.5791,-0.5732,-0.5467,-0.5065,-0.4918,-0.4583,-0.4085,-0.3704,-0.3345,-0.2952,-0.2424,-0.2206,-0.2188,-0.2519,-0.3128,-0.4009,-0.4005,-0.4367,-0.508,-0.5236,-0.5358,-0.5466,-0.547,-0.5514,-0.5498,-0.5284,-0.5213,-0.5234,-0.5474,-0.547,-0.5234,-0.5423,-0.5317,-0.4783,-0.4501,-0.3947,-0.3065,-0.2512,-0.2069,-0.1734,-0.2012,-0.1956,-0.14,-0.1344,-0.1186,-0.092,-0.0865,-0.0922,-0.1037,-0.0994,-0.1057,-0.1218,-0.1056,-0.0952,-0.0904,-0.0786,-0.0544,-0.006,0.0178,0.0416,0.0603,0.0893,0.0982,0.1033,0.1032,0.1023,0.0994,0.0792,0.0723,0.0904,0.0611,0.0433,0.0625,0.0428,0.0357,0.0634,0.0879,0.1268,0.1809,0.2129,0.2392,0.2764,0.2764,0.2764,0.276,0.2604,0.2471,0.2521,0.2907,0.3292,-1.0127,-1.0039,-0.951,-0.9278,-0.9177,-0.8693,-0.8459,-0.8404,-0.824,-0.8049,-0.7729,-0.7515,-0.7192,-0.6869,-0.6416,-0.615,-0.6,-0.5946,-0.5841,-0.5686,-0.5631,-0.5576,-0.5521,-0.5517,-0.5521,-0.5517,-0.5403,-0.5066,-0.4567,-0.4405,-0.4015,-0.3461,-0.285,-0.246,-0.246,-0.2018,-0.1797,-0.1741,-0.1797,-0.224,-0.3123,-0.3012,-0.3468,-0.435,-0.471,-0.4938,-0.5149,-0.5271,-0.5348,-0.5289,-0.5132,-0.5077,-0.5128,-0.5073,-0.5014,-0.4853,-0.464,-0.4226,-0.348,-0.2856,-0.2336,-0.1869,-0.171,-0.1424,-0.1012,-0.1193,-0.1255,-0.0965,-0.0738,-0.0633,-0.065,-0.0655,-0.0655,-0.0656,-0.073,-0.067,-0.0779,-0.0547,-0.031,-0.0311,-0.0187,0.0124,0.0551,0.0589,0.0699,0.1034,0.1063,0.1066,0.0994,0.1005,0.1001,0.0984,0.0962,0.0893,0.0888,0.0901,0.0972,0.1031,0.1008,0.1108,0.1445,0.1761,0.1965,0.2245,0.2512,0.2721,0.2735,0.2791,0.2785,0.2772,0.2671,0.2747,0.3023,0.3633,0.4076,-1.0215,-1.0058,-0.9747,-0.9676,-0.9804,-0.9444,-0.9152,-0.9022,-0.9071,-0.8844,-0.8415,-0.7783,-0.7354,-0.7031,-0.6593,-0.6386,-0.6341,-0.6009,-0.5631,-0.525,-0.5183,-0.4959,-0.4702,-0.4636,-0.4629,-0.4695,-0.4695,-0.4477,-0.4144,-0.4477,-0.4141,-0.3074,-0.2242,-0.1852,-0.174,-0.174,-0.1741,-0.1628,-0.1741,-0.213,-0.2736,-0.3067,-0.345,-0.3834,-0.4003,-0.4113,-0.42,-0.4009,-0.4125,-0.4291,-0.4356,-0.4411,-0.4519,-0.4391,-0.4446,-0.4643,-0.3896,-0.3236,-0.2865,-0.2319,-0.1926,-0.1767,-0.1322,-0.1015,-0.0852,-0.0355,-0.0362,-0.0591,-0.0293,-0.0,0.0,0.0,0.0245,0.0675,0.0308,0.0246,0.0676,0.086,0.0934,0.1408,0.0962,0.1016,0.155,0.1448,0.1311,0.138,0.1389,0.1332,0.1096,0.1028,0.1018,0.0954,0.0963,0.0966,0.0948,0.0943,0.1056,0.1259,0.1246,0.147,0.1864,0.2085,0.224,0.2411,0.2643,0.2715,0.2713,0.2705,0.2711,0.2723,0.2761,0.2912,0.3688,0.4242,0.4408,-1.0751,-1.0639,-1.1013,-1.1049,-1.0761,-1.0204,-0.9695,-0.924,-0.9231,-0.9001,-0.8573,-0.8256,-0.7925,-0.754,-0.7182,-0.7106,-0.7239,-0.6444,-0.6077,-0.6032,-0.5608,-0.5331,-0.525,-0.5137,-0.5075,-0.5064,-0.4866,-0.4482,-0.4011,-0.3503,-0.2742,-0.1847,-0.1514,-0.1347,-0.1346,-0.1347,-0.1459,-0.1741,-0.1797,-0.1909,-0.2186,-0.2352,-0.2627,-0.3125,-0.34,-0.3735,-0.4018,-0.4187,-0.4353,-0.4405,-0.4522,-0.4525,-0.4463,-0.4401,-0.4271,-0.42,-0.3304,-0.2588,-0.2402,-0.1851,-0.1473,-0.1333,-0.0734,-0.0365,-0.0298,0.0364,0.0617,0.0372,0.055,0.0735,0.0692,0.0695,0.0822,0.0951,0.0835,0.0773,0.0824,0.1156,0.1372,0.1452,0.1585,0.1765,0.1972,0.1919,0.1758,0.1742,0.174,0.1621,0.1469,0.1463,0.1459,0.1437,0.1447,0.1333,0.1206,0.1316,0.1477,0.1575,0.1568,0.1792,0.1903,0.2127,0.224,0.241,0.2579,0.2691,0.2695,0.2691,0.2691,0.2747,0.3026,0.3299,0.391,0.4353,0.4519,-1.0658,-1.0687,-1.1438,-1.1584,-1.1299,-1.0663,-0.9973,-0.9405,-0.9337,-0.9047,-0.8685,-0.8711,-0.8517,-0.8075,-0.7715,-0.765,-0.7738,-0.6798,-0.6368,-0.6437,-0.5679,-0.534,-0.5389,-0.5211,-0.5086,-0.5072,-0.4792,-0.4373,-0.3809,-0.2786,-0.1736,-0.0896,-0.0785,-0.0897,-0.101,-0.1066,-0.129,-0.1685,-0.1797,-0.1797,-0.1797,-0.1797,-0.202,-0.246,-0.2792,-0.3181,-0.3522,-0.391,-0.4135,-0.4128,-0.4184,-0.4262,-0.4294,-0.4092,-0.3781,-0.3332,-0.2782,-0.2256,-0.1893,-0.1454,-0.1198,-0.0939,-0.0314,0.0063,0.0248,0.0937,0.1394,0.1407,0.1589,0.1722,0.1426,0.1433,0.1433,0.15,0.1462,0.1331,0.1373,0.1795,0.2013,0.1882,0.2146,0.233,0.2262,0.2245,0.2233,0.2089,0.2028,0.196,0.1819,0.177,0.1781,0.1798,0.1961,0.1906,0.1569,0.1573,0.179,0.1903,0.1903,0.1959,0.2015,0.224,0.2352,0.2521,0.2635,0.2635,0.2691,0.2691,0.2863,0.297,0.3304,0.3808,0.419,0.4577,0.4879,-0.9479,-0.9788,-1.0202,-1.0798,-1.1143,-1.0621,-0.9995,-0.9494,-0.9549,-0.9302,-0.8871,-0.9024,-0.8929,-0.8484,-0.8055,-0.7846,-0.7699,-0.6913,-0.6271,-0.5783,-0.5029,-0.4601,-0.454,-0.4177,-0.4128,-0.4396,-0.4172,-0.3917,-0.3579,-0.279,-0.1734,-0.0503,-0.0224,-0.0336,-0.0841,-0.101,-0.1234,-0.1628,-0.1741,-0.1797,-0.1797,-0.1797,-0.1797,-0.1909,-0.2128,-0.2352,-0.241,-0.2635,-0.297,-0.3188,-0.3079,-0.3173,-0.3721,-0.3308,-0.2732,-0.2158,-0.2278,-0.2079,-0.1462,-0.1199,-0.1057,-0.091,-0.0263,0.0065,0.0376,0.1422,0.2104,0.2128,0.263,0.2732,0.227,0.2132,0.2403,0.2808,0.2479,0.2414,0.2948,0.288,0.3092,0.2958,0.2755,0.2662,0.2589,0.2696,0.2641,0.2427,0.231,0.2153,0.198,0.1859,0.1921,0.2027,0.2357,0.2629,0.1959,0.2014,0.2071,0.2183,0.2352,0.2296,0.2521,0.2691,0.2691,0.2691,0.2856,0.2858,0.2747,0.2863,0.3095,0.3434,0.4054,0.4501,0.4692,0.4986,0.5238,-1.0948,-1.1643,-1.1415,-1.1503,-1.1715,-1.1174,-1.0468,-0.9652,-0.9602,-0.9354,-0.9003,-0.9105,-0.9227,-0.9176,-0.8599,-0.8056,-0.7446,-0.6596,-0.6055,-0.5728,-0.4968,-0.4598,-0.4678,-0.4423,-0.4355,-0.4403,-0.4069,-0.3779,-0.3496,-0.2647,-0.1399,-0.0112,0.0112,-0.0112,-0.0505,-0.0617,-0.101,-0.1684,-0.1797,-0.1797,-0.1797,-0.1797,-0.1909,-0.2074,-0.2354,-0.2546,-0.2655,-0.3058,-0.3367,-0.3618,-0.3384,-0.345,-0.3735,-0.3294,-0.2898,-0.2667,-0.24,-0.2062,-0.1543,-0.1479,-0.1072,-0.0399,0.0334,0.0933,0.1443,0.2255,0.2808,0.2856,0.3,0.3025,0.2956,0.2822,0.2956,0.3092,0.3023,0.2889,0.3092,0.3226,0.3226,0.3159,0.3092,0.3009,0.2977,0.3055,0.2999,0.288,0.2841,0.2649,0.2516,0.2525,0.2479,0.2555,0.2888,0.3175,0.3005,0.2886,0.2856,0.2798,0.2854,0.2854,0.2968,0.3135,0.3135,0.336,0.3416,0.3444,0.3457,0.3623,0.3792,0.4203,0.4777,0.4971,0.5235,0.5426,0.5519,-1.0697,-1.1448,-1.1249,-1.1319,-1.1507,-1.1076,-1.0354,-0.9573,-0.9453,-0.9256,-0.8964,-0.905,-0.9065,-0.8984,-0.8466,-0.7721,-0.6865,-0.6344,-0.5986,-0.5657,-0.486,-0.4611,-0.4755,-0.4634,-0.4541,-0.4466,-0.412,-0.3795,-0.3607,-0.2932,-0.1457,0.0449,0.0224,-0.0112,-0.0393,-0.0561,-0.1066,-0.1684,-0.1797,-0.1797,-0.18,-0.1815,-0.1937,-0.2166,-0.2529,-0.2845,-0.2995,-0.3482,-0.3706,-0.3716,-0.3737,-0.367,-0.3628,-0.3194,-0.29,-0.2822,-0.2423,-0.1951,-0.1614,-0.1344,-0.0806,-0.0067,0.0941,0.1679,0.2214,0.2822,0.3159,0.3226,0.3226,0.3226,0.3226,0.3159,0.3226,0.3226,0.3226,0.3226,0.3226,0.3226,0.3228,0.3295,0.3295,0.3295,0.3357,0.333,0.3228,0.3197,0.3157,0.2983,0.2875,0.2895,0.3106,0.3198,0.3346,0.3748,0.3837,0.3815,0.353,0.3411,0.3355,0.3355,0.3413,0.358,0.3697,0.3978,0.4061,0.4157,0.4273,0.4461,0.4731,0.4983,0.5154,0.5331,0.5526,0.5715,0.5868,-0.8432,-0.9141,-0.9442,-0.9999,-1.0336,-1.0106,-0.962,-0.9221,-0.9015,-0.8798,-0.8625,-0.8715,-0.8471,-0.8023,-0.7613,-0.6916,-0.6245,-0.616,-0.5853,-0.5239,-0.4587,-0.4458,-0.474,-0.4334,-0.427,-0.4351,-0.4002,-0.377,-0.3616,-0.3249,-0.1853,0.0224,0.0,-0.0393,-0.0449,-0.0841,-0.129,-0.1686,-0.1801,-0.1802,-0.1805,-0.1912,-0.1999,-0.2065,-0.2658,-0.3153,-0.3313,-0.3685,-0.374,-0.3525,-0.3643,-0.3635,-0.3175,-0.2796,-0.2484,-0.2151,-0.1951,-0.1748,-0.1412,-0.0739,-0.0202,0.0336,0.1409,0.2147,0.2417,0.2889,0.3226,0.3226,0.3226,0.3226,0.3228,0.3248,0.3244,0.3226,0.3228,0.3228,0.3236,0.3232,0.3295,0.3433,0.3498,0.3567,0.3682,0.3572,0.3414,0.3368,0.3223,0.31,0.2963,0.3068,0.3346,0.3749,0.3795,0.3924,0.4375,0.4685,0.4287,0.4021,0.391,0.3855,0.3965,0.4024,0.4166,0.4406,0.4471,0.452,0.4828,0.4963,0.5072,0.5374,0.5514,0.5731,0.5852,0.6056,0.6321,-0.794,-0.8435,-0.8949,-0.9342,-0.9611,-0.9432,-0.9058,-0.8593,-0.809,-0.7777,-0.7668,-0.7722,-0.7666,-0.7494,-0.7091,-0.6524,-0.594,-0.5686,-0.5043,-0.4167,-0.3856,-0.361,-0.3423,-0.3486,-0.3685,-0.4016,-0.3935,-0.3261,-0.234,-0.2255,-0.14,-0.0112,-0.0168,-0.0561,-0.0841,-0.1066,-0.1346,-0.1745,-0.1837,-0.1856,-0.1919,-0.2153,-0.2429,-0.2679,-0.3186,-0.3597,-0.382,-0.3655,-0.3583,-0.3647,-0.3209,-0.2752,-0.2284,-0.1795,-0.141,-0.1074,-0.0739,-0.0403,0.0,0.0336,0.0739,0.141,0.1946,0.2417,0.2822,0.3025,0.3226,0.3226,0.3226,0.3226,0.3244,0.3277,0.3285,0.324,0.3228,0.326,0.3372,0.3386,0.3494,0.3509,0.3629,0.3694,0.3758,0.3716,0.3654,0.3682,0.3621,0.348,0.3418,0.357,0.3551,0.3715,0.3845,0.427,0.49,0.5118,0.4712,0.446,0.4353,0.4242,0.4356,0.434,0.4538,0.4754,0.4758,0.4973,0.5293,0.5482,0.5542,0.5806,0.6117,0.622,0.625,0.6406,0.6716,-0.714,-0.7605,-0.8101,-0.8534,-0.8815,-0.8732,-0.8473,-0.8115,-0.761,-0.7283,-0.7225,-0.7307,-0.721,-0.7002,-0.6606,-0.6017,-0.5374,-0.4855,-0.3974,-0.2983,-0.2928,-0.2764,-0.2518,-0.2246,-0.2582,-0.3128,-0.3147,-0.2523,-0.1348,-0.0952,-0.0504,-0.0112,-0.0393,-0.0729,-0.1122,-0.129,-0.1515,-0.1749,-0.1853,-0.1942,-0.2018,-0.1963,-0.2254,-0.289,-0.283,-0.3002,-0.3394,-0.2891,-0.2847,-0.3193,-0.2573,-0.1518,-0.0737,-0.0604,-0.0537,-0.0201,-0.0067,0.0202,0.0739,0.1007,0.1477,0.208,0.2417,0.2753,0.3092,0.3226,0.3226,0.3226,0.3226,0.3238,0.3359,0.3405,0.3432,0.3413,0.3334,0.3407,0.3438,0.3672,0.3763,0.3752,0.3864,0.3929,0.3974,0.3894,0.3894,0.3894,0.4023,0.4111,0.411,0.4401,0.4431,0.4423,0.4408,0.491,0.5565,0.5457,0.5089,0.4952,0.4791,0.4739,0.4739,0.4445,0.4448,0.4876,0.5027,0.5355,0.5624,0.5811,0.5993,0.6301,0.6641,0.671,0.6763,0.6902,0.7126,-0.6017,-0.656,-0.6924,-0.7418,-0.7933,-0.7882,-0.7682,-0.7469,-0.7278,-0.7004,-0.6972,-0.6851,-0.6797,-0.6391,-0.5903,-0.529,-0.446,-0.399,-0.3159,-0.229,-0.2069,-0.2182,-0.2179,-0.1303,-0.1345,-0.2037,-0.1824,-0.1463,-0.0954,-0.0168,0.0505,-0.0056,-0.056,-0.0954,-0.1122,-0.1515,-0.1519,-0.1591,-0.1634,-0.1837,-0.2086,-0.1506,-0.1613,-0.2777,-0.1915,-0.174,-0.2204,-0.1733,-0.1805,-0.2619,-0.1407,-0.0134,0.0873,0.0538,0.0336,0.067,0.0336,0.0671,0.1008,0.1678,0.2147,0.2417,0.2887,0.3228,0.3228,0.3228,0.3295,0.3293,0.3295,0.3396,0.3689,0.3822,0.3796,0.3876,0.3713,0.3604,0.36,0.3877,0.406,0.4059,0.4127,0.4224,0.425,0.4164,0.4161,0.4225,0.4616,0.4888,0.4971,0.5359,0.6006,0.5767,0.5146,0.5441,0.6006,0.5697,0.534,0.5386,0.5293,0.5211,0.5278,0.5059,0.4886,0.5276,0.5438,0.5721,0.6043,0.6274,0.6494,0.6802,0.6989,0.7147,0.7207,0.732,0.7374,-0.5301,-0.5681,-0.6146,-0.6504,-0.6756,-0.6832,-0.6494,-0.5934,-0.5595,-0.5265,-0.478,-0.4893,-0.5062,-0.4838,-0.5014,-0.4629,-0.4015,-0.368,-0.3072,-0.2186,-0.2044,-0.1723,-0.1438,-0.097,-0.0909,-0.1136,-0.0451,0.0112,-0.0056,-0.0168,-0.0224,-0.028,-0.0504,-0.084,-0.1066,-0.0673,-0.0626,-0.0757,-0.084,-0.0862,-0.1006,-0.104,-0.1195,-0.1464,-0.1471,-0.1476,-0.1744,-0.1344,-0.0941,-0.0739,0.0134,0.0873,0.1342,0.1478,0.168,0.1946,0.2013,0.2216,0.2621,0.2891,0.3092,0.3159,0.3424,0.3558,0.3431,0.3431,0.3496,0.356,0.3632,0.3946,0.4619,0.4848,0.4925,0.4969,0.438,0.3854,0.386,0.4115,0.4327,0.4209,0.4322,0.4351,0.4467,0.4688,0.4885,0.5014,0.547,0.5924,0.6005,0.6116,0.6673,0.6186,0.5789,0.5981,0.6103,0.5798,0.5673,0.5823,0.5804,0.5763,0.5923,0.6087,0.612,0.6312,0.6105,0.6274,0.6624,0.6915,0.7134,0.7181,0.745,0.7521,0.7494,0.7598,0.7638,-0.4821,-0.5033,-0.5521,-0.5811,-0.5917,-0.5953,-0.5699,-0.5243,-0.4732,-0.4236,-0.3907,-0.3959,-0.407,-0.4181,-0.4463,-0.4128,-0.3405,-0.3463,-0.274,-0.1681,-0.1572,-0.118,-0.0674,-0.0449,-0.0393,-0.0449,0.0168,0.0617,0.0729,0.0336,0.0224,0.028,0.0112,-0.0112,-0.0392,-0.0112,0.0113,-0.0058,-0.018,-0.0311,-0.0506,-0.0264,-0.067,-0.0873,-0.0805,-0.0268,-0.0201,-0.0067,0.0202,0.047,0.0941,0.1478,0.1878,0.2216,0.2555,0.2889,0.2889,0.3023,0.3429,0.3563,0.3627,0.3627,0.3758,0.3761,0.3694,0.3828,0.4164,0.4357,0.4583,0.5158,0.5684,0.5803,0.565,0.5517,0.5092,0.4548,0.4222,0.4458,0.4535,0.4446,0.444,0.4616,0.4657,0.5084,0.5408,0.5804,0.64,0.6662,0.685,0.7046,0.7095,0.6751,0.6441,0.6552,0.6511,0.6243,0.6196,0.6292,0.6377,0.6332,0.6406,0.6731,0.6626,0.6578,0.6647,0.6728,0.7042,0.7219,0.7261,0.7376,0.7688,0.7765,0.7691,0.7691,0.7742,-0.4591,-0.4648,-0.5026,-0.5282,-0.5376,-0.5255,-0.5139,-0.4884,-0.421,-0.3782,-0.3608,-0.3732,-0.3744,-0.391,-0.4242,-0.3849,-0.2792,-0.3188,-0.2181,-0.1237,-0.0679,-0.0285,0.0227,0.0619,0.0563,0.0339,0.0225,0.0784,0.1289,0.1402,0.1288,0.1063,0.1062,0.0949,0.067,0.067,0.0673,0.069,0.0541,0.0311,0.0253,0.079,0.067,-0.0067,0.0804,0.1411,0.1479,0.1479,0.1344,0.094,0.1277,0.1949,0.2686,0.2887,0.3167,0.3518,0.3662,0.3729,0.3922,0.4274,0.4247,0.4303,0.4384,0.4113,0.4465,0.4882,0.5209,0.5438,0.5992,0.6425,0.6931,0.6612,0.6367,0.6311,0.615,0.5631,0.5118,0.5087,0.5089,0.4762,0.487,0.5057,0.5319,0.554,0.5804,0.6465,0.706,0.7456,0.7657,0.7782,0.78,0.7716,0.7335,0.7041,0.6864,0.6683,0.6758,0.6892,0.7032,0.6991,0.6712,0.6814,0.6697,0.6766,0.7015,0.7158,0.7168,0.7278,0.7437,0.752,0.7757,0.77,0.756,0.7688,0.7777,-0.4713,-0.4776,-0.5024,-0.5076,-0.4992,-0.4809,-0.4268,-0.3525,-0.3059,-0.2591,-0.223,-0.2762,-0.3128,-0.3239,-0.4018,-0.3849,-0.2794,-0.2912,-0.2183,-0.0282,0.0416,0.0891,0.1399,0.1823,0.1824,0.1495,0.1586,0.1738,0.1906,0.163,0.1343,0.1403,0.1802,0.1786,0.1736,0.1976,0.2072,0.2032,0.1776,0.1514,0.1564,0.2055,0.2211,0.1806,0.2277,0.2281,0.2153,0.2085,0.1947,0.181,0.2149,0.2896,0.3636,0.3971,0.4346,0.4906,0.5296,0.5503,0.5819,0.6004,0.6195,0.5814,0.6154,0.661,0.6143,0.6371,0.6592,0.6671,0.6817,0.7394,0.8071,0.8188,0.7923,0.7774,0.7464,0.7138,0.7087,0.6791,0.6485,0.6297,0.6146,0.6165,0.6172,0.6666,0.6994,0.7326,0.7722,0.8187,0.8382,0.8447,0.837,0.8221,0.7969,0.7629,0.7469,0.7266,0.721,0.7343,0.7451,0.7554,0.7275,0.7244,0.7245,0.7374,0.7627,0.7663,0.757,0.7739,0.7887,0.791,0.7811,0.7865,0.788,0.7869,0.8105,-0.4657,-0.4618,-0.4841,-0.4762,-0.4428,-0.4195,-0.3705,-0.2934,-0.236,-0.1938,-0.181,-0.25,-0.285,-0.2905,-0.391,-0.3858,-0.2807,-0.1934,-0.0802,0.0578,0.1252,0.1687,0.2153,0.2485,0.2512,0.2043,0.1992,0.2201,0.2279,0.2232,0.2196,0.2399,0.2857,0.3219,0.3208,0.35,0.3569,0.3297,0.2933,0.256,0.2496,0.2736,0.3149,0.3151,0.295,0.2616,0.2622,0.2688,0.2683,0.282,0.3252,0.3755,0.4084,0.4537,0.5135,0.572,0.6158,0.6422,0.6659,0.7061,0.7189,0.6937,0.746,0.7399,0.7377,0.7583,0.7895,0.7978,0.8283,0.8768,0.8925,0.8978,0.8998,0.8922,0.8613,0.8533,0.8722,0.7979,0.7131,0.7019,0.6769,0.6874,0.707,0.7531,0.7907,0.8107,0.8236,0.8635,0.87,0.8748,0.8684,0.8612,0.8365,0.8203,0.8044,0.792,0.7668,0.7753,0.7802,0.786,0.7772,0.7881,0.7975,0.8052,0.8047,0.8052,0.8085,0.824,0.8133,0.7768,0.7692,0.7976,0.8246,0.8336,0.8692,-0.4401,-0.4203,-0.4522,-0.4313,-0.3771,-0.3522,-0.3214,-0.2709,-0.2011,-0.167,-0.1724,-0.2339,-0.2402,-0.2792,-0.386,-0.3752,-0.2203,-0.0582,0.0885,0.1626,0.2096,0.2236,0.2465,0.2508,0.2711,0.2353,0.2395,0.262,0.2907,0.3116,0.3252,0.378,0.4281,0.4603,0.482,0.5019,0.5022,0.459,0.3982,0.3478,0.3197,0.3385,0.3813,0.4215,0.4013,0.3678,0.3813,0.388,0.3954,0.4306,0.4875,0.5218,0.5434,0.5108,0.5805,0.6459,0.7082,0.7444,0.7744,0.8003,0.8232,0.7886,0.8151,0.8279,0.8416,0.8755,0.9016,0.9249,0.9569,0.9849,0.9578,0.982,0.975,0.9674,0.9674,1.0056,1.0093,0.8802,0.8147,0.7721,0.7683,0.7712,0.7831,0.8161,0.856,0.8882,0.8941,0.8988,0.9035,0.8977,0.8926,0.8811,0.8617,0.8457,0.8363,0.8311,0.813,0.8587,0.8504,0.8644,0.8646,0.8754,0.8851,0.8484,0.8404,0.8408,0.8454,0.8504,0.8272,0.7657,0.7902,0.8577,0.8777,0.8823,0.9323,-0.3771,-0.3572,-0.3927,-0.3714,-0.3154,-0.2798,-0.2587,-0.2324,-0.1609,-0.1158,-0.0974,-0.116,-0.1453,-0.2012,-0.336,-0.2738,-0.0621,0.1176,0.2077,0.2561,0.2891,0.3026,0.2434,0.2466,0.2659,0.3043,0.314,0.3278,0.3465,0.3706,0.4219,0.4887,0.529,0.5658,0.6026,0.6117,0.6039,0.5759,0.4998,0.4417,0.4361,0.4659,0.5342,0.6001,0.5862,0.58,0.5734,0.5866,0.6432,0.7564,0.7894,0.9165,0.974,0.8367,0.7789,0.8374,0.8857,0.9025,0.9327,0.9873,1.0052,1.0059,1.0102,1.0216,1.0243,1.03,1.0245,1.0302,1.0347,1.0536,1.0571,1.1087,1.1242,1.1168,1.131,1.1613,1.1273,1.0718,0.9907,0.9471,0.9029,0.8581,0.8695,0.8812,0.8983,0.9139,0.9103,0.9158,0.9204,0.9119,0.9064,0.889,0.8775,0.8667,0.8545,0.861,0.8628,0.9541,0.9812,0.9999,0.9991,0.9913,0.9755,0.9446,0.8966,0.8823,0.8786,0.8867,0.8713,0.8367,0.878,0.9312,0.9592,0.9861,1.0284,-0.3175,-0.2988,-0.3248,-0.3019,-0.2503,-0.2367,-0.1995,-0.1537,-0.1001,-0.05,-0.0221,-0.0111,-0.0279,-0.0949,-0.2181,-0.1227,0.1303,0.292,0.3344,0.329,0.3473,0.3575,0.2878,0.2878,0.3316,0.3819,0.3957,0.3994,0.4177,0.4674,0.516,0.5664,0.6329,0.7019,0.7269,0.7418,0.7119,0.683,0.5944,0.5199,0.5008,0.5348,0.6067,0.6985,0.7129,0.6898,0.7038,0.7569,0.8004,0.8806,0.9645,1.0918,1.1404,1.0893,0.9536,1.0149,1.0176,1.0209,1.0506,1.0828,1.0966,1.0973,1.1212,1.1335,1.1279,1.1243,1.1186,1.1186,1.1471,1.1694,1.1916,1.2631,1.2851,1.2851,1.3142,1.3142,1.286,1.2699,1.2022,1.1198,1.0331,0.9778,0.9515,0.9584,0.9568,0.9457,0.9395,0.9455,0.9496,0.937,0.9369,0.95,0.9476,0.9642,0.9659,0.974,0.996,1.0699,1.1185,1.1387,1.1323,1.121,1.087,1.0445,0.9982,0.95,0.9341,0.9466,0.9307,0.9139,0.9486,0.9873,1.0486,1.0942,1.1352,-0.2517,-0.2494,-0.2706,-0.2278,-0.1617,-0.1548,-0.1119,-0.056,-0.028,0.0168,0.0728,0.0951,0.0894,0.0391,0.0,0.0725,0.3426,0.4513,0.4333,0.3903,0.4094,0.4216,0.3868,0.3917,0.406,0.4616,0.4931,0.4872,0.5126,0.5583,0.6022,0.6814,0.7807,0.8285,0.8318,0.8595,0.8275,0.7632,0.685,0.6137,0.5873,0.5935,0.6584,0.7967,0.7637,0.7659,0.8153,0.9036,0.9749,1.0416,1.1344,1.2311,1.2629,1.2243,1.1918,1.1797,1.1045,1.0771,1.1087,1.1323,1.1533,1.155,1.1755,1.1774,1.1774,1.1687,1.1713,1.1948,1.2331,1.2799,1.3201,1.4068,1.4434,1.4506,1.4649,1.4775,1.43,1.4033,1.3714,1.2786,1.1648,1.1182,1.1049,1.1265,1.146,1.1044,1.0943,1.0558,1.0523,1.0007,0.9949,1.0184,1.0416,1.0753,1.0946,1.1304,1.176,1.2538,1.2827,1.2972,1.2772,1.2509,1.2025,1.145,1.099,1.0566,1.036,1.0151,1.01,1.0089,1.0135,1.0561,1.1346,1.1877,1.2287,-0.1547,-0.2274,-0.2515,-0.1629,-0.0111,0.0168,0.0392,0.0671,0.0615,0.0783,0.1343,0.202,0.213,0.1847,0.1958,0.2959,0.4235,0.5023,0.5106,0.4762,0.5167,0.4998,0.4307,0.4379,0.481,0.5365,0.5817,0.6117,0.6416,0.6617,0.7225,0.8212,0.8896,0.9366,0.9256,0.9576,0.9646,0.8812,0.8091,0.7697,0.7757,0.7892,0.8549,0.9227,0.9508,0.9634,1.0019,1.0823,1.1674,1.2771,1.3569,1.46,1.5275,1.4846,1.4728,1.4076,1.291,1.1385,1.2211,1.2285,1.2285,1.2439,1.2372,1.2298,1.2372,1.2157,1.2257,1.2743,1.3033,1.3601,1.4474,1.573,1.5983,1.6053,1.6253,1.5904,1.5449,1.5573,1.5253,1.4776,1.3837,1.3202,1.2826,1.3157,1.3356,1.289,1.2431,1.1979,1.1535,1.1071,1.0802,1.1088,1.1392,1.1735,1.2358,1.27,1.3339,1.4168,1.4287,1.4368,1.4013,1.3604,1.2898,1.2381,1.1906,1.1373,1.0973,1.0833,1.0955,1.093,1.091,1.1524,1.2369,1.2779,1.2939,0.0887,-0.0765,-0.0845,-0.0374,0.0502,0.1064,0.1623,0.2071,0.224,0.2296,0.2296,0.2637,0.2693,0.2637,0.3293,0.4194,0.5072,0.5966,0.6169,0.5896,0.6188,0.6117,0.5686,0.5346,0.5522,0.6237,0.6675,0.7321,0.7711,0.811,0.8466,0.9146,0.9926,1.0275,1.0085,1.0281,0.9901,0.9198,0.8619,0.8409,0.8726,0.9186,0.9765,1.0464,1.0775,1.122,1.1803,1.2495,1.3454,1.4525,1.5375,1.6008,1.6237,1.5947,1.5752,1.6228,1.4727,1.3799,1.386,1.3723,1.3723,1.3803,1.3738,1.3665,1.3528,1.3244,1.3317,1.4168,1.4656,1.5103,1.5562,1.6669,1.7042,1.7198,1.7453,1.7257,1.6844,1.6991,1.6945,1.6486,1.6069,1.5343,1.4664,1.4507,1.4617,1.4338,1.3785,1.3195,1.278,1.2299,1.2111,1.2135,1.2403,1.2732,1.3502,1.4082,1.4713,1.5351,1.5332,1.5293,1.5032,1.4541,1.3665,1.2998,1.2451,1.1944,1.1524,1.1497,1.1584,1.1601,1.1633,1.2118,1.2568,1.2846,1.2977,0.2767,0.0949,0.1024,0.1245,0.1562,0.2068,0.2575,0.314,0.3368,0.3368,0.3195,0.3193,0.3188,0.3365,0.4373,0.5258,0.5946,0.7096,0.7373,0.7311,0.7289,0.7258,0.6854,0.6409,0.6578,0.7483,0.7759,0.8331,0.9106,0.9599,0.9765,1.0074,1.1138,1.1135,1.0968,1.0982,1.0688,0.9857,0.9456,0.9503,0.9937,1.0558,1.1134,1.1682,1.2123,1.2639,1.3194,1.4029,1.4982,1.5564,1.6489,1.6991,1.7107,1.6912,1.7033,1.7442,1.6693,1.6339,1.6035,1.5694,1.5429,1.5226,1.5021,1.4593,1.4593,1.4458,1.4649,1.5405,1.5971,1.6431,1.6968,1.7647,1.8018,1.8154,1.8327,1.8212,1.8076,1.792,1.7638,1.712,1.6917,1.732,1.6627,1.5928,1.5703,1.5671,1.5188,1.4484,1.3956,1.3541,1.3545,1.3517,1.3568,1.4039,1.5056,1.5712,1.6301,1.6444,1.6425,1.6218,1.5833,1.4877,1.3843,1.3327,1.285,1.224,1.1618,1.1921,1.2175,1.2004,1.1908,1.2177,1.2512,1.2856,1.3215,0.3253,0.2402,0.2743,0.3353,0.4027,0.3697,0.3416,0.3469,0.3583,0.3585,0.3524,0.3735,0.4006,0.434,0.5285,0.6327,0.734,0.8066,0.8442,0.8639,0.8692,0.8327,0.785,0.7619,0.7612,0.8166,0.8731,0.9495,1.0215,1.1004,1.1234,1.1688,1.2406,1.2097,1.1826,1.1772,1.1439,1.0873,1.0712,1.118,1.1704,1.2296,1.2789,1.3348,1.3932,1.4479,1.4585,1.541,1.6034,1.6419,1.7285,1.7842,1.8008,1.7959,1.8281,1.8609,1.8777,1.8558,1.8292,1.7123,1.6131,1.586,1.5587,1.5438,1.572,1.5147,1.5513,1.6634,1.7153,1.7524,1.8154,1.8775,1.8879,1.8849,1.8798,1.8741,1.8539,1.8269,1.7988,1.7647,1.761,1.7762,1.7853,1.7021,1.6875,1.6809,1.6638,1.5936,1.5247,1.4861,1.506,1.507,1.496,1.5524,1.677,1.7284,1.7186,1.7267,1.7322,1.6952,1.6503,1.537,1.3786,1.3386,1.2892,1.2291,1.2042,1.2599,1.2811,1.2327,1.223,1.241,1.2982,1.3558,1.381,0.445,0.433,0.4222,0.4078,0.386,0.4132,0.4236,0.4236,0.4349,0.4349,0.4236,0.4505,0.4769,0.5307,0.6323,0.7239,0.8016,0.92,0.9518,0.9474,0.9361,0.9098,0.877,0.8576,0.8637,0.9236,1.0017,1.0917,1.178,1.2414,1.3094,1.3553,1.3729,1.3296,1.2976,1.2613,1.2067,1.1754,1.1931,1.2547,1.2829,1.3861,1.4325,1.4328,1.5334,1.5793,1.5996,1.646,1.7058,1.7707,1.8307,1.8721,1.9054,1.9081,1.9267,1.9683,1.9927,2.0031,1.9823,1.866,1.7872,1.7453,1.7042,1.6766,1.7111,1.6826,1.7276,1.7939,1.8291,1.8504,1.8993,1.9295,1.9264,1.9187,1.9187,1.9131,1.8998,1.8731,1.8435,1.8098,1.7919,1.7851,1.7954,1.7897,1.793,1.7963,1.7744,1.74,1.661,1.6019,1.613,1.6173,1.6042,1.6277,1.7413,1.772,1.7913,1.7991,1.8035,1.7355,1.653,1.4995,1.3636,1.3279,1.3184,1.2966,1.3037,1.3474,1.3452,1.2972,1.2669,1.2601,1.328,1.425,1.4495,0.532,0.516,0.5273,0.4783,0.4021,0.4622,0.4838,0.4889,0.5222,0.5382,0.5382,0.5701,0.6126,0.6768,0.7706,0.8947,0.9681,1.0415,1.0669,1.0677,1.0514,1.0068,0.9645,0.9379,0.9404,1.0166,1.0682,1.1427,1.291,1.3946,1.4494,1.4773,1.4869,1.465,1.389,1.3655,1.3044,1.2852,1.3132,1.3958,1.4204,1.5052,1.5999,1.5984,1.6929,1.7369,1.7678,1.8063,1.8619,1.9145,1.9573,1.9911,2.0053,2.015,2.0189,2.0455,2.0647,2.0673,2.0432,1.9845,1.9243,1.8556,1.8287,1.8355,1.8499,1.8287,1.8365,1.918,1.932,1.9417,1.9694,1.9672,1.9683,1.9628,1.9528,1.9462,1.9396,1.9177,1.884,1.8493,1.8382,1.8237,1.7864,1.7884,1.8133,1.8161,1.8112,1.7865,1.7583,1.7154,1.7015,1.7061,1.6921,1.734,1.7787,1.7964,1.8109,1.7746,1.7679,1.7059,1.6065,1.461,1.3999,1.4109,1.401,1.3835,1.4248,1.4865,1.4383,1.358,1.367,1.4033,1.454,1.5471,1.5391,0.5869,0.4505,0.576,0.571,0.4897,0.5171,0.5277,0.5433,0.6136,0.6573,0.6843,0.7304,0.796,0.8672,0.9318,1.0431,1.158,1.1769,1.1733,1.176,1.141,1.0972,1.0462,1.0051,1.0249,1.0466,1.1277,1.2419,1.3908,1.4869,1.5566,1.6038,1.6255,1.5951,1.484,1.4953,1.4983,1.5009,1.4912,1.5585,1.6071,1.6547,1.7335,1.7945,1.8739,1.9128,1.9246,1.9727,2.0193,2.0451,2.0655,2.1037,2.1616,2.1065,2.1227,2.2153,2.147,2.1378,2.1649,2.0696,1.9955,1.9441,1.9166,1.9166,1.8967,1.889,1.9058,1.9868,1.9771,1.9857,1.9987,2.0149,2.0182,2.0117,2.0074,1.9846,1.9749,1.9727,1.9361,1.9027,1.8921,1.8792,1.8098,1.7781,1.8071,1.8214,1.8308,1.8247,1.8128,1.8201,1.8041,1.7887,1.7864,1.7885,1.817,1.8305,1.8272,1.7887,1.7376,1.6789,1.5946,1.4698,1.4504,1.483,1.4644,1.4315,1.5323,1.6388,1.6105,1.5899,1.5742,1.5966,1.6375,1.6537,1.6475,0.6534,0.5823,0.5932,0.5982,0.5928,0.6199,0.6362,0.6735,0.7688,0.8165,0.8059,0.8376,0.881,0.951,1.0269,1.125,1.2135,1.2586,1.2431,1.2017,1.1769,1.1167,1.0753,1.0905,1.1342,1.1913,1.2618,1.369,1.5564,1.5847,1.6468,1.7082,1.7312,1.6673,1.5894,1.5811,1.6059,1.5638,1.6198,1.7074,1.716,1.8104,1.8928,1.9414,2.029,2.0598,2.061,2.1106,2.1393,2.1545,2.1658,2.2027,2.2494,2.1999,2.236,2.2862,2.2322,2.2152,2.1916,2.1198,2.0688,2.0237,1.9966,2.0031,2.0226,1.9901,2.0128,2.0331,2.0317,2.0426,2.073,2.0899,2.0951,2.0882,2.0751,2.0353,2.0177,2.0104,1.9935,1.9553,1.9373,1.9041,1.8491,1.8112,1.8294,1.8376,1.8438,1.8387,1.8301,1.8806,1.8971,1.886,1.8731,1.8588,1.8566,1.8359,1.7932,1.7416,1.7019,1.668,1.5722,1.4837,1.51,1.5513,1.5139,1.4854,1.641,1.7778,1.8501,1.8576,1.7836,1.7209,1.7126,1.7366,1.7589,0.7025,0.6539,0.648,0.6632,0.6891,0.7004,0.7439,0.8237,0.9176,0.9429,0.9214,0.9533,0.9946,1.0415,1.1124,1.1864,1.2511,1.2608,1.2666,1.2157,1.1769,1.1418,1.1335,1.1734,1.2246,1.2988,1.3587,1.4577,1.6121,1.6087,1.6707,1.7713,1.8267,1.7895,1.739,1.75,1.7581,1.7328,1.7887,1.8318,1.8509,1.9068,1.9831,2.0405,2.0983,2.1434,2.1677,2.1994,2.2433,2.2528,2.2673,2.2832,2.3148,2.3223,2.3361,2.3326,2.3137,2.2775,2.2087,2.1702,2.1262,2.1031,2.07,2.0635,2.0903,2.0506,2.0426,2.0613,2.0768,2.0881,2.1058,2.1266,2.1643,2.1608,2.1366,2.0961,2.1093,2.1081,2.0997,2.0629,2.0276,1.9784,1.9023,1.8758,1.8611,1.8559,1.8528,1.848,1.8459,1.9009,1.9447,1.9217,1.9051,1.883,1.8412,1.7973,1.7554,1.6973,1.674,1.6637,1.6134,1.5488,1.5869,1.6204,1.6207,1.6593,1.8054,1.9206,1.9655,1.9625,1.9024,1.8446,1.799,1.8116,1.8426,0.7241,0.6652,0.7402,0.7812,0.7953,0.7953,0.8646,0.9806,1.021,1.032,1.0269,1.0813,1.1007,1.1416,1.2295,1.288,1.3218,1.2949,1.289,1.2735,1.2393,1.2026,1.204,1.2392,1.3227,1.366,1.4223,1.5224,1.6321,1.6915,1.7615,1.8448,1.927,1.9297,1.9408,1.958,1.9341,1.9026,1.905,1.9365,1.9497,1.9622,2.0426,2.1084,2.1629,2.1882,2.2264,2.2981,2.3353,2.3537,2.3647,2.401,2.4131,2.4038,2.3986,2.3883,2.3675,2.3065,2.2347,2.2025,2.1913,2.1698,2.1556,2.1129,2.0812,2.0773,2.0694,2.065,2.0694,2.0795,2.0976,2.1634,2.2223,2.2133,2.201,2.2031,2.2337,2.2349,2.2292,2.2101,2.1827,2.1219,1.9889,1.9397,1.905,1.8733,1.865,1.8489,1.8578,1.8967,1.9219,1.9028,1.891,1.8888,1.8544,1.8258,1.7809,1.7423,1.7078,1.6909,1.641,1.6192,1.6446,1.6812,1.7391,1.8156,1.9209,1.9988,2.0638,2.0359,1.9834,1.9441,1.8906,1.8927,1.9095,0.8296,0.7984,0.8256,0.8764,0.9585,1.0399,1.0779,1.0753,1.0761,1.0897,1.1183,1.1082,1.1299,1.1434,1.1621,1.2385,1.2861,1.3064,1.3208,1.3112,1.3045,1.3185,1.3422,1.3771,1.456,1.5124,1.5657,1.6228,1.7508,1.8177,1.9239,2.0377,2.0518,2.0926,2.1369,2.178,2.088,2.0244,2.0179,2.0243,2.0461,2.0679,2.1351,2.1875,2.2482,2.2736,2.3192,2.4001,2.4365,2.4272,2.4709,2.5065,2.4765,2.4882,2.4989,2.4509,2.4284,2.3846,2.2836,2.2762,2.2773,2.2578,2.2551,2.1889,2.1319,2.0927,2.0946,2.0818,2.0795,2.0945,2.1437,2.2129,2.2643,2.2691,2.2752,2.3184,2.3362,2.3332,2.3276,2.2955,2.2756,2.1883,2.0676,2.0067,1.9718,1.9158,1.8759,1.8635,1.8657,1.914,1.9194,1.8928,1.9241,1.9333,1.9206,1.8983,1.8395,1.7879,1.7579,1.729,1.6965,1.6874,1.703,1.7679,1.8626,1.9266,1.9885,2.0608,2.1159,2.0927,2.045,2.0168,1.9939,1.972,1.9565,0.9079,0.9086,0.919,0.9762,1.0685,1.1569,1.176,1.156,1.1619,1.1868,1.2058,1.1715,1.1665,1.1891,1.1963,1.2471,1.3675,1.3202,1.3326,1.4003,1.3683,1.3542,1.4011,1.4754,1.5246,1.5977,1.6644,1.7158,1.8533,1.9728,2.0772,2.1129,2.1568,2.2207,2.2526,2.2586,2.2235,2.1575,2.1153,2.1091,2.1314,2.1641,2.2078,2.2677,2.3328,2.3511,2.3829,2.464,2.4775,2.4552,2.4991,2.5222,2.5053,2.5285,2.5341,2.4929,2.4955,2.4576,2.3859,2.3657,2.3464,2.3354,2.3417,2.2797,2.2249,2.1765,2.1439,2.1116,2.1126,2.1284,2.1962,2.2574,2.2949,2.3285,2.3797,2.4259,2.4258,2.423,2.395,2.362,2.3025,2.227,2.1499,2.0906,2.0338,1.9655,1.9217,1.908,1.9092,1.9362,1.9239,1.8983,1.9495,1.9941,1.9756,1.9504,1.8939,1.8468,1.8107,1.7788,1.7523,1.7788,1.8182,1.9088,2.009,2.0527,2.072,2.1042,2.1442,2.1116,2.0746,2.045,2.0144,1.9926,1.972,0.9747,0.9909,1.0261,1.083,1.1401,1.181,1.2098,1.2316,1.2706,1.291,1.2832,1.2529,1.245,1.2516,1.2499,1.3165,1.3836,1.3636,1.408,1.4991,1.4525,1.4328,1.4747,1.5031,1.6374,1.662,1.7253,1.8554,1.9466,2.0592,2.136,2.1513,2.2469,2.3098,2.3231,2.3421,2.3187,2.2725,2.2438,2.2392,2.2063,2.2175,2.2442,2.3089,2.3374,2.3525,2.396,2.433,2.4703,2.4634,2.481,2.5242,2.5406,2.553,2.5483,2.548,2.5584,2.5211,2.4898,2.4708,2.4572,2.4339,2.4124,2.4085,2.3922,2.2742,2.2124,2.1768,2.1749,2.2216,2.2919,2.3687,2.4204,2.4682,2.519,2.5592,2.5675,2.5392,2.4842,2.436,2.3539,2.2751,2.1961,2.1342,2.0815,2.0157,1.9897,1.9689,1.9618,1.9782,1.9624,1.9359,1.9851,2.0332,2.0173,1.9895,1.9442,1.9016,1.8738,1.8441,1.8278,1.875,1.9423,2.0182,2.0938,2.1158,2.1421,2.1572,2.1368,2.093,2.0666,2.0563,2.036,2.008,1.9965,1.0525,1.0813,1.1765,1.2463,1.288,1.3074,1.3122,1.3112,1.3228,1.338,1.3422,1.3116,1.2938,1.2998,1.3057,1.3608,1.402,1.4405,1.5143,1.5762,1.5703,1.5707,1.6503,1.7027,1.7952,1.8896,1.9615,2.0198,2.1095,2.183,2.2525,2.3287,2.3794,2.3879,2.4105,2.4245,2.409,2.3736,2.3855,2.3524,2.3022,2.2797,2.2929,2.3302,2.3511,2.4,2.4552,2.5349,2.586,2.6156,2.6639,2.668,2.6372,2.634,2.6232,2.6188,2.6275,2.5953,2.5716,2.5781,2.5895,2.6102,2.6189,2.641,2.5821,2.4082,2.3022,2.2631,2.2738,2.3327,2.3917,2.4678,2.5439,2.6008,2.6609,2.682,2.7003,2.6425,2.5808,2.4905,2.4039,2.3193,2.2372,2.1707,2.1276,2.0959,2.0846,2.0668,2.041,2.0393,2.0412,2.0259,2.0348,2.0602,2.056,2.0409,2.0093,1.994,1.9734,1.9384,1.904,1.9631,2.027,2.0939,2.1547,2.1718,2.1698,2.1485,2.1256,2.0848,2.0649,2.0562,2.0511,2.0296,2.0182,1.1774,1.2209,1.2812,1.3351,1.3742,1.3836,1.3931,1.4129,1.3941,1.4226,1.4508,1.3639,1.3214,1.3562,1.3651,1.4107,1.4689,1.4969,1.5694,1.6385,1.6878,1.7062,1.7726,1.863,1.9234,2.0151,2.1046,2.1773,2.25,2.3023,2.358,2.4225,2.4461,2.4744,2.4974,2.502,2.4965,2.4752,2.5092,2.4869,2.4139,2.3904,2.3767,2.4006,2.4128,2.4506,2.4889,2.5676,2.6031,2.6471,2.6819,2.6731,2.6526,2.6701,2.6957,2.7074,2.7039,2.6847,2.6675,2.6868,2.7253,2.7332,2.7571,2.7547,2.7207,2.5661,2.5036,2.4676,2.4666,2.5192,2.5084,2.5652,2.6144,2.6707,2.7467,2.802,2.7849,2.7371,2.625,2.4866,2.4137,2.343,2.2633,2.1863,2.154,2.1547,2.1497,2.1631,2.1379,2.1472,2.1358,2.1202,2.1372,2.1309,2.1202,2.1104,2.0908,2.0759,2.051,2.0308,1.9991,2.057,2.1161,2.1771,2.21,2.2081,2.2016,2.1602,2.118,2.0799,2.0649,2.0599,2.0549,2.0549,2.0586,1.316,1.3658,1.3647,1.3884,1.4351,1.4329,1.4571,1.4926,1.4662,1.4997,1.5604,1.3903,1.3972,1.4358,1.4563,1.5188,1.5697,1.6151,1.6645,1.7056,1.7192,1.7919,1.8724,1.9402,2.0455,2.1455,2.2327,2.2798,2.3234,2.3805,2.4337,2.4672,2.5044,2.5497,2.5556,2.5652,2.5672,2.5675,2.5897,2.6251,2.5799,2.519,2.4879,2.4729,2.4704,2.4795,2.5226,2.5672,2.5995,2.6489,2.7033,2.709,2.7116,2.7414,2.7617,2.78,2.788,2.7768,2.7764,2.8175,2.8056,2.8047,2.8307,2.8396,2.8234,2.7732,2.7067,2.6631,2.667,2.6581,2.6489,2.6549,2.7023,2.7537,2.8372,2.8894,2.8595,2.819,2.6735,2.5249,2.4561,2.3903,2.3108,2.2327,2.2189,2.2163,2.2337,2.2387,2.255,2.292,2.307,2.2684,2.2528,2.238,2.1945,2.165,2.141,2.1118,2.0871,2.0858,2.1042,2.1595,2.2146,2.2634,2.283,2.2466,2.2002,2.1589,2.1215,2.0749,2.0699,2.0699,2.0898,2.0947,2.1082,1.3763,1.428,1.449,1.4777,1.496,1.5232,1.522,1.5062,1.4846,1.5021,1.5423,1.4964,1.4704,1.535,1.5891,1.6355,1.6767,1.7301,1.8105,1.87,1.8975,1.9425,2.013,2.1154,2.2344,2.3175,2.384,2.4349,2.4288,2.4784,2.5253,2.5443,2.5726,2.5961,2.5961,2.6068,2.6085,2.6195,2.6336,2.6526,2.6645,2.6061,2.5587,2.5357,2.5161,2.558,2.6087,2.6718,2.7334,2.7779,2.7931,2.8097,2.822,2.8262,2.8394,2.8689,2.8757,2.8586,2.8699,2.9319,2.9275,2.9285,2.9667,3.0317,2.9929,2.9421,2.8729,2.7994,2.7912,2.7897,2.7795,2.7875,2.8237,2.8612,2.9261,2.9313,2.9181,2.8567,2.7629,2.6605,2.5883,2.4999,2.3952,2.3517,2.3457,2.3645,2.4055,2.4134,2.4368,2.4542,2.4707,2.4231,2.3755,2.2993,2.2376,2.1977,2.1746,2.1458,2.1388,2.1622,2.2024,2.2634,2.3157,2.3467,2.3007,2.2466,2.2049,2.1589,2.1118,2.0699,2.0699,2.0749,2.1033,2.1375,2.1492]}]]